Darstellungsparameter: Aktuell verwendete Einstellungen:
Skalierung der Graphiken ... ?
xyx+y,   Skalierungsfaktor:      Skalierung: Modus: x, Faktor: 1
Darstellungszeitraum ... ?
Vom - - bis: - -   Zeitraum: 25.04.2020 - 08.05.2020
Min/Max/Avg-Anzeige ... ?
Zeige MMA aktuell
Zeige MMA Monat
Zeige MMA alles
Zeige --A aktuell
Zeige --A Monat
Zeige --A alles
Keine MMA-Anzeige
MMA:
Average (ber die Originaldaten)
MMA-Basis: 07.04.2020 - 09.05.2020
Quicknavigation für Darstellung... ?
Tage:      1T, 2T, 3T, 5T -1T -2T -3T -5T +1T +2T +3T +5T
Wochen: 1W, 2W, 3W -1W -2W -3W +1W +2W +3W
Monate: 1M, 3M, 6M -1M -3M -6M +1M +3M +6M
Jahre:    1J, 3J, 5J, 10J -1J -3J -5J -10J +1J +3J +5J +10J
Nutze für die Darstellung ... ?
Originaldaten oder Mittelwerte auf ...
Stundenbasis Tagesbasis Wochenbasis
Monatsbasis Jahresbasis      Datenbasis: Original-Daten
Darstellen als:
Statistik (Auto) Statistik J:M      Darstellung:
Zur Graphik,    zurück zur Übersicht aller Sensoren.
 
Tabellarische Datenbersicht: ?
 
Sensor: Nr:Datum:Temp:Feuchte:
Aussen-T/F 1 25-04-2020 00:02:18 12.6 C 20 %
2 25-04-2020 00:12:18 12.7 C 20 %
3 25-04-2020 00:23:17 12.6 C 20 %
4 25-04-2020 00:32:18 12.3 C 20 %
5 25-04-2020 00:42:18 11.8 C 20 %
6 25-04-2020 00:52:18 11.7 C 20 %
7 25-04-2020 01:03:17 11.7 C 20 %
8 25-04-2020 01:12:17 11.7 C 20 %
9 25-04-2020 01:23:17 11.3 C 22 %
10 25-04-2020 01:33:17 11 C 25 %
11 25-04-2020 01:43:17 11.1 C 25 %
12 25-04-2020 01:52:17 11.1 C 25 %
13 25-04-2020 02:02:18 10.4 C 26 %
14 25-04-2020 02:12:18 10.3 C 26 %
15 25-04-2020 02:23:17 9.7 C 29 %
16 25-04-2020 02:33:17 9.5 C 29 %
17 25-04-2020 02:43:17 9.4 C 30 %
18 25-04-2020 02:53:17 9.8 C 29 %
19 25-04-2020 03:03:17 10.1 C 28 %
20 25-04-2020 03:13:17 10 C 28 %
21 25-04-2020 03:22:18 10 C 28 %
22 25-04-2020 03:33:17 9.7 C 30 %
23 25-04-2020 03:43:17 9 C 30 %
24 25-04-2020 03:53:17 9 C 30 %
25 25-04-2020 04:02:18 9.3 C 30 %
Sensor: Nr:Datum:Temp:Feuchte:
Aussen-T/F 26 25-04-2020 04:12:18 8.9 C 30 %
27 25-04-2020 04:23:17 8.9 C 30 %
28 25-04-2020 04:33:18 8.7 C 31 %
29 25-04-2020 04:42:18 8.2 C 32 %
30 25-04-2020 04:53:17 8.3 C 33 %
31 25-04-2020 05:03:17 8.1 C 33 %
32 25-04-2020 05:13:18 7.5 C 35 %
33 25-04-2020 05:23:18 7 C 36 %
34 25-04-2020 05:32:18 7.1 C 37 %
35 25-04-2020 05:42:18 7.2 C 38 %
36 25-04-2020 05:53:18 7.6 C 38 %
37 25-04-2020 06:02:18 8 C 36 %
38 25-04-2020 06:12:18 8.2 C 36 %
39 25-04-2020 06:23:17 8.3 C 36 %
40 25-04-2020 06:33:17 8.3 C 36 %
41 25-04-2020 06:43:18 8.4 C 35 %
42 25-04-2020 06:53:17 8.3 C 35 %
43 25-04-2020 07:03:18 8.3 C 35 %
44 25-04-2020 07:12:18 8.4 C 35 %
45 25-04-2020 07:23:17 8.3 C 35 %
46 25-04-2020 07:32:18 8.4 C 35 %
47 25-04-2020 07:42:18 8.4 C 35 %
48 25-04-2020 07:52:18 8.4 C 35 %
49 25-04-2020 08:03:17 8.4 C 34 %
50 25-04-2020 08:13:17 8.7 C 34 %
Sensor: Nr:Datum:Temp:Feuchte:
Aussen-T/F 51 25-04-2020 08:23:17 8.6 C 34 %
52 25-04-2020 08:33:17 8.7 C 34 %
53 25-04-2020 08:43:17 8.8 C 34 %
54 25-04-2020 08:53:17 8.8 C 32 %
55 25-04-2020 09:03:17 9.3 C 32 %
56 25-04-2020 09:13:17 9.6 C 31 %
57 25-04-2020 09:23:17 9.7 C 31 %
58 25-04-2020 09:33:17 9.8 C 31 %
59 25-04-2020 09:43:17 10.2 C 30 %
60 25-04-2020 09:53:17 10.4 C 30 %
61 25-04-2020 10:03:17 10.8 C 30 %
62 25-04-2020 10:13:17 10.5 C 28 %
63 25-04-2020 10:23:17 11 C 28 %
64 25-04-2020 10:32:18 11.1 C 27 %
65 25-04-2020 10:42:18 10.5 C 27 %
66 25-04-2020 10:53:17 11.5 C 26 %
67 25-04-2020 11:03:17 12.4 C 25 %
68 25-04-2020 11:13:18 12 C 24 %
69 25-04-2020 11:23:17 10.9 C 25 %
70 25-04-2020 11:32:18 11.6 C 25 %
71 25-04-2020 11:42:18 11.2 C 25 %
72 25-04-2020 11:53:17 11.8 C 25 %
73 25-04-2020 12:03:18 11.2 C 25 %
74 25-04-2020 12:13:18 11.5 C 25 %
75 25-04-2020 12:23:18 11.7 C 25 %
Sensor: Nr:Datum:Temp:Feuchte:
Aussen-T/F 76 25-04-2020 12:33:17 11.7 C 25 %
77 25-04-2020 12:43:18 11.4 C 25 %
78 25-04-2020 12:53:17 12.3 C 24 %
79 25-04-2020 13:03:17 12.4 C 22 %
80 25-04-2020 13:13:17 12.5 C 23 %
81 25-04-2020 13:23:17 13.2 C 21 %
82 25-04-2020 13:33:17 13.1 C 21 %
83 25-04-2020 13:43:17 13.2 C 21 %
84 25-04-2020 13:53:17 13.7 C 20 %
85 25-04-2020 14:03:17 13.8 C 20 %
86 25-04-2020 14:13:17 14.1 C 20 %
87 25-04-2020 14:23:17 15.8 C 20 %
88 25-04-2020 14:33:17 21 C 20 %
89 25-04-2020 14:43:17 22.5 C 20 %
90 25-04-2020 14:53:17 20.7 C 20 %
91 25-04-2020 15:03:17 23.8 C 20 %
92 25-04-2020 15:13:17 23.8 C 20 %
93 25-04-2020 15:23:17 23.7 C 20 %
94 25-04-2020 15:33:18 25.7 C 20 %
95 25-04-2020 15:43:18 25.7 C 20 %
96 25-04-2020 15:53:18 26.3 C 20 %
97 25-04-2020 16:03:17 23.2 C 20 %
98 25-04-2020 16:13:17 24.8 C 20 %
99 25-04-2020 16:23:17 23.9 C 20 %
100 25-04-2020 16:33:17 25.3 C 20 %
Sensor: Nr:Datum:Temp:Feuchte:
Aussen-T/F 101 25-04-2020 16:43:17 22.5 C 20 %
102 25-04-2020 16:53:17 23.9 C 20 %
103 25-04-2020 17:03:17 25.1 C 20 %
104 25-04-2020 17:13:17 25.9 C 20 %
105 25-04-2020 17:23:17 26.4 C 20 %
106 25-04-2020 17:33:18 27.1 C 20 %
107 25-04-2020 17:43:18 22.5 C 20 %
108 25-04-2020 17:53:17 23.3 C 20 %
109 25-04-2020 18:03:17 20.1 C 20 %
110 25-04-2020 18:13:17 18.5 C 20 %
111 25-04-2020 18:23:17 18.6 C 20 %
112 25-04-2020 18:33:17 18.3 C 20 %
113 25-04-2020 18:43:17 17.9 C 20 %
114 25-04-2020 18:53:17 17.7 C 20 %
115 25-04-2020 19:03:17 17.5 C 20 %
116 25-04-2020 19:13:17 17.1 C 20 %
117 25-04-2020 19:23:17 16.9 C 20 %
118 25-04-2020 19:33:17 16.4 C 20 %
119 25-04-2020 19:43:18 16.2 C 20 %
120 25-04-2020 19:53:17 15.7 C 20 %
121 25-04-2020 20:03:18 15.4 C 20 %
122 25-04-2020 20:13:18 14.7 C 20 %
123 25-04-2020 20:23:17 13.9 C 20 %
124 25-04-2020 20:33:17 13.8 C 20 %
125 25-04-2020 20:43:17 12.7 C 20 %
Sensor: Nr:Datum:Temp:Feuchte:
Aussen-T/F 126 25-04-2020 20:53:17 12.4 C 20 %
127 25-04-2020 21:03:18 12.1 C 20 %
128 25-04-2020 21:13:18 12 C 20 %
129 25-04-2020 21:23:17 11.4 C 21 %
130 25-04-2020 21:33:17 11.1 C 22 %
131 25-04-2020 21:43:18 11.2 C 21 %
132 25-04-2020 21:53:17 11 C 22 %
133 25-04-2020 22:03:17 11 C 22 %
134 25-04-2020 22:13:17 10.9 C 23 %
135 25-04-2020 22:23:17 10.1 C 25 %
136 25-04-2020 22:33:17 10.1 C 25 %
137 25-04-2020 22:43:17 9.9 C 26 %
138 25-04-2020 22:53:18 9.8 C 27 %
139 25-04-2020 23:03:17 9.6 C 27 %
140 25-04-2020 23:13:17 9.5 C 27 %
141 25-04-2020 23:23:17 9.1 C 28 %
142 25-04-2020 23:33:18 8.7 C 30 %
143 25-04-2020 23:43:18 8.2 C 31 %
144 25-04-2020 23:53:17 7.7 C 32 %
145 26-04-2020 00:03:18 7.1 C 33 %
146 26-04-2020 00:13:18 6.8 C 35 %
147 26-04-2020 00:23:17 6.6 C 35 %
148 26-04-2020 00:33:18 6.3 C 35 %
149 26-04-2020 00:43:18 6.2 C 36 %
150 26-04-2020 00:53:17 5.9 C 37 %
Sensor: Nr:Datum:Temp:Feuchte:
Aussen-T/F 151 26-04-2020 01:03:17 5.8 C 37 %
152 26-04-2020 01:13:18 5.5 C 38 %
153 26-04-2020 01:23:17 5.6 C 38 %
154 26-04-2020 01:33:17 5.2 C 38 %
155 26-04-2020 01:43:17 5.1 C 38 %
156 26-04-2020 01:53:17 5.1 C 39 %
157 26-04-2020 02:03:17 4.7 C 40 %
158 26-04-2020 02:13:17 4.7 C 40 %
159 26-04-2020 02:23:17 4.6 C 40 %
160 26-04-2020 02:33:17 4.5 C 40 %
161 26-04-2020 02:43:17 4.8 C 41 %
162 26-04-2020 02:53:18 4.7 C 41 %
163 26-04-2020 03:03:17 4.4 C 41 %
164 26-04-2020 03:13:18 4.3 C 41 %
165 26-04-2020 03:23:17 4.1 C 41 %
166 26-04-2020 03:33:18 4 C 41 %
167 26-04-2020 03:43:18 3.8 C 42 %
168 26-04-2020 03:53:17 3.6 C 43 %
169 26-04-2020 04:03:18 3.9 C 44 %
170 26-04-2020 04:13:18 3.6 C 43 %
171 26-04-2020 04:23:17 3.4 C 43 %
172 26-04-2020 04:33:17 3.2 C 43 %
173 26-04-2020 04:43:17 3.3 C 44 %
174 26-04-2020 04:53:17 3.1 C 44 %
175 26-04-2020 05:03:18 3.1 C 45 %
Sensor: Nr:Datum:Temp:Feuchte:
Aussen-T/F 176 26-04-2020 05:13:18 3 C 44 %
177 26-04-2020 05:23:17 2.7 C 45 %
178 26-04-2020 05:33:17 2.6 C 45 %
179 26-04-2020 05:43:17 2.7 C 46 %
180 26-04-2020 05:53:17 2.5 C 46 %
181 26-04-2020 06:03:17 2.3 C 46 %
182 26-04-2020 06:13:17 2.4 C 46 %
183 26-04-2020 06:23:17 2.4 C 46 %
184 26-04-2020 06:33:17 2.4 C 46 %
185 26-04-2020 06:43:18 2.3 C 46 %
186 26-04-2020 06:53:17 2.3 C 46 %
187 26-04-2020 07:03:17 2.3 C 46 %
188 26-04-2020 07:13:17 2.6 C 47 %
189 26-04-2020 07:23:17 2.7 C 47 %
190 26-04-2020 07:33:17 2.8 C 46 %
191 26-04-2020 07:43:17 2.8 C 46 %
192 26-04-2020 07:53:17 2.9 C 47 %
193 26-04-2020 08:03:17 3.2 C 46 %
194 26-04-2020 08:13:17 3.4 C 46 %
195 26-04-2020 08:23:17 3.6 C 46 %
196 26-04-2020 08:33:17 4 C 45 %
197 26-04-2020 08:43:17 4.3 C 45 %
198 26-04-2020 08:53:17 4.5 C 45 %
199 26-04-2020 09:03:17 4.9 C 45 %
200 26-04-2020 09:13:17 5.2 C 43 %
Sensor: Nr:Datum:Temp:Feuchte:
Aussen-T/F 201 26-04-2020 09:23:17 5.8 C 44 %
202 26-04-2020 09:33:17 6.4 C 42 %
203 26-04-2020 09:43:17 6.8 C 41 %
204 26-04-2020 09:53:17 7.4 C 40 %
205 26-04-2020 10:03:18 7.8 C 39 %
206 26-04-2020 10:13:18 8.5 C 38 %
207 26-04-2020 10:23:17 9 C 37 %
208 26-04-2020 10:33:18 9.6 C 36 %
209 26-04-2020 10:43:18 10.4 C 35 %
210 26-04-2020 10:53:17 11.3 C 32 %
211 26-04-2020 11:03:17 12.2 C 31 %
212 26-04-2020 11:13:17 12.8 C 29 %
213 26-04-2020 11:23:17 13.6 C 27 %
214 26-04-2020 11:33:17 14.1 C 26 %
215 26-04-2020 11:43:17 14.7 C 25 %
216 26-04-2020 11:53:17 15.2 C 22 %
217 26-04-2020 12:03:17 15.2 C 21 %
218 26-04-2020 12:13:17 15.1 C 20 %
219 26-04-2020 12:23:18 15.4 C 20 %
220 26-04-2020 12:33:17 15.9 C 20 %
221 26-04-2020 12:43:18 15.9 C 20 %
222 26-04-2020 12:53:17 16.2 C 20 %
223 26-04-2020 13:03:17 16.5 C 20 %
224 26-04-2020 13:13:17 16.8 C 20 %
225 26-04-2020 13:23:18 16.6 C 20 %
Sensor: Nr:Datum:Temp:Feuchte:
Aussen-T/F 226 26-04-2020 13:33:17 16.8 C 20 %
227 26-04-2020 13:43:17 17.1 C 20 %
228 26-04-2020 13:53:17 17.1 C 20 %
229 26-04-2020 14:03:17 17.4 C 20 %
230 26-04-2020 14:13:17 18.1 C 20 %
231 26-04-2020 14:23:17 19.3 C 20 %
232 26-04-2020 14:33:18 25 C 20 %
233 26-04-2020 14:43:18 24.8 C 20 %
234 26-04-2020 14:53:17 26.7 C 20 %
235 26-04-2020 15:03:18 26.6 C 20 %
236 26-04-2020 15:13:18 28.3 C 20 %
237 26-04-2020 15:23:17 29.7 C 20 %
238 26-04-2020 15:33:17 29.5 C 20 %
239 26-04-2020 15:43:17 28 C 20 %
240 26-04-2020 15:53:18 29 C 20 %
241 26-04-2020 16:03:18 30.5 C 20 %
242 26-04-2020 16:13:18 27.6 C 20 %
243 26-04-2020 16:23:17 28.4 C 20 %
244 26-04-2020 16:33:17 26.5 C 20 %
245 26-04-2020 16:43:17 30.3 C 20 %
246 26-04-2020 16:53:17 28.1 C 20 %
247 26-04-2020 17:03:18 29 C 20 %
248 26-04-2020 17:13:18 28.3 C 20 %
249 26-04-2020 17:23:18 27.4 C 20 %
250 26-04-2020 17:33:18 27.2 C 20 %
Sensor: Nr:Datum:Temp:Feuchte:
Aussen-T/F 251 26-04-2020 17:43:18 28 C 20 %
252 26-04-2020 17:53:17 26.5 C 20 %
253 26-04-2020 18:03:17 25.8 C 20 %
254 26-04-2020 18:13:17 23.1 C 20 %
255 26-04-2020 18:23:17 22 C 20 %
256 26-04-2020 18:33:17 21.9 C 20 %
257 26-04-2020 18:43:17 21.1 C 20 %
258 26-04-2020 18:53:17 21.1 C 20 %
259 26-04-2020 19:03:17 20.9 C 20 %
260 26-04-2020 19:13:17 20.2 C 20 %
261 26-04-2020 19:23:17 19.7 C 20 %
262 26-04-2020 19:33:17 19.5 C 20 %
263 26-04-2020 19:43:18 19.1 C 20 %
264 26-04-2020 19:53:17 18.2 C 20 %
265 26-04-2020 20:03:18 17.3 C 20 %
266 26-04-2020 20:13:18 16.6 C 20 %
267 26-04-2020 20:23:17 15.8 C 20 %
268 26-04-2020 20:33:17 14.7 C 20 %
269 26-04-2020 20:43:17 14.3 C 20 %
270 26-04-2020 20:53:18 14 C 20 %
271 26-04-2020 21:03:18 13.7 C 20 %
272 26-04-2020 21:13:18 13.1 C 20 %
273 26-04-2020 21:23:17 12.6 C 20 %
274 26-04-2020 21:33:18 12.4 C 20 %
275 26-04-2020 21:43:18 12.1 C 20 %
Sensor: Nr:Datum:Temp:Feuchte:
Aussen-T/F 276 26-04-2020 21:53:17 11.6 C 23 %
277 26-04-2020 22:03:17 11.3 C 25 %
278 26-04-2020 22:13:17 10.9 C 26 %
279 26-04-2020 22:23:18 10.7 C 26 %
280 26-04-2020 22:33:17 10.5 C 26 %
281 26-04-2020 22:43:17 9.9 C 28 %
282 26-04-2020 22:53:17 9.6 C 29 %
283 26-04-2020 23:03:17 9.2 C 29 %
284 26-04-2020 23:13:17 9 C 30 %
285 26-04-2020 23:23:17 8.9 C 30 %
286 26-04-2020 23:33:18 8.8 C 30 %
287 26-04-2020 23:43:18 8.7 C 30 %
288 26-04-2020 23:53:17 8.5 C 30 %
289 27-04-2020 00:03:18 8.3 C 30 %
290 27-04-2020 00:13:18 8 C 31 %
291 27-04-2020 00:23:18 7.9 C 32 %
292 27-04-2020 00:33:17 7.6 C 32 %
293 27-04-2020 00:43:17 7.4 C 33 %
294 27-04-2020 00:53:17 7.2 C 33 %
295 27-04-2020 01:03:18 7.1 C 33 %
296 27-04-2020 01:13:18 6.8 C 35 %
297 27-04-2020 01:23:18 6.9 C 35 %
298 27-04-2020 01:33:17 6.9 C 35 %
299 27-04-2020 01:43:17 6.8 C 35 %
300 27-04-2020 01:53:17 6.4 C 35 %
Sensor: Nr:Datum:Temp:Feuchte:
Aussen-T/F 301 27-04-2020 02:03:17 6.2 C 36 %
302 27-04-2020 02:13:17 6 C 36 %
303 27-04-2020 02:23:17 5.9 C 37 %
304 27-04-2020 02:33:17 5.7 C 37 %
305 27-04-2020 02:43:17 6 C 37 %
306 27-04-2020 02:53:17 6 C 37 %
307 27-04-2020 03:03:18 5.7 C 38 %
308 27-04-2020 03:13:18 5.6 C 38 %
309 27-04-2020 03:23:18 5.6 C 38 %
310 27-04-2020 03:33:17 5.6 C 38 %
311 27-04-2020 03:43:17 5.6 C 39 %
312 27-04-2020 03:53:17 5.7 C 39 %
313 27-04-2020 04:03:18 5 C 38 %
314 27-04-2020 04:13:18 4.8 C 40 %
315 27-04-2020 04:23:17 4.4 C 40 %
316 27-04-2020 04:33:18 4.3 C 41 %
317 27-04-2020 04:43:18 4 C 41 %
318 27-04-2020 04:53:17 4.1 C 42 %
319 27-04-2020 05:03:17 4 C 42 %
320 27-04-2020 05:13:17 4.2 C 42 %
321 27-04-2020 05:23:17 3.7 C 43 %
322 27-04-2020 05:33:17 3.7 C 43 %
323 27-04-2020 05:43:17 3.4 C 43 %
324 27-04-2020 05:53:17 3.7 C 44 %
325 27-04-2020 06:03:18 3.5 C 44 %
Sensor: Nr:Datum:Temp:Feuchte:
Aussen-T/F 326 27-04-2020 06:13:18 3.4 C 44 %
327 27-04-2020 06:23:17 3.6 C 45 %
328 27-04-2020 06:33:17 3.8 C 45 %
329 27-04-2020 06:43:17 3.8 C 44 %
330 27-04-2020 06:53:17 3.8 C 44 %
331 27-04-2020 07:03:17 3.8 C 44 %
332 27-04-2020 07:13:17 3.9 C 45 %
333 27-04-2020 07:23:17 3.9 C 45 %
334 27-04-2020 07:33:17 4.2 C 44 %
335 27-04-2020 07:43:17 4.5 C 43 %
336 27-04-2020 07:53:17 4.6 C 43 %
337 27-04-2020 08:03:17 4.9 C 42 %
338 27-04-2020 08:13:17 4.8 C 42 %
339 27-04-2020 08:23:17 5.1 C 42 %
340 27-04-2020 08:33:17 5.5 C 41 %
341 27-04-2020 08:43:17 5.7 C 41 %
342 27-04-2020 08:53:17 6 C 41 %
343 27-04-2020 09:03:18 6.4 C 40 %
344 27-04-2020 09:13:18 6.6 C 40 %
345 27-04-2020 09:23:17 7 C 40 %
346 27-04-2020 09:33:17 7.6 C 39 %
347 27-04-2020 09:43:17 8.3 C 37 %
348 27-04-2020 09:53:17 8.5 C 38 %
349 27-04-2020 10:03:17 9.1 C 37 %
350 27-04-2020 10:13:17 9.9 C 37 %
Sensor: Nr:Datum:Temp:Feuchte:
Aussen-T/F 351 27-04-2020 10:23:17 10.7 C 35 %
352 27-04-2020 10:33:17 11.7 C 34 %
353 27-04-2020 10:43:17 12.3 C 32 %
354 27-04-2020 10:53:17 13.5 C 30 %
355 27-04-2020 11:03:17 15.5 C 25 %
356 27-04-2020 11:13:17 16.6 C 22 %
357 27-04-2020 11:23:17 16.8 C 20 %
358 27-04-2020 11:33:17 17.2 C 20 %
359 27-04-2020 11:43:17 17.5 C 20 %
360 27-04-2020 11:53:17 17.7 C 20 %
361 27-04-2020 12:03:17 18.1 C 20 %
362 27-04-2020 12:13:17 18.4 C 20 %
363 27-04-2020 12:23:17 18.3 C 20 %
364 27-04-2020 12:33:17 18.7 C 20 %
365 27-04-2020 12:43:17 19 C 20 %
366 27-04-2020 12:53:18 19.1 C 20 %
367 27-04-2020 13:03:17 19.7 C 20 %
368 27-04-2020 13:13:17 19.5 C 20 %
369 27-04-2020 13:23:17 19.6 C 20 %
370 27-04-2020 13:33:17 20.1 C 20 %
371 27-04-2020 13:43:17 20.2 C 20 %
372 27-04-2020 13:53:17 20.4 C 20 %
373 27-04-2020 14:03:18 21 C 20 %
374 27-04-2020 14:13:18 21.4 C 20 %
375 27-04-2020 14:23:17 25.1 C 20 %
Sensor: Nr:Datum:Temp:Feuchte:
Aussen-T/F 376 27-04-2020 14:33:18 25.5 C 20 %
377 27-04-2020 14:43:18 28.2 C 20 %
378 27-04-2020 14:53:17 28.9 C 20 %
379 27-04-2020 15:03:17 30.1 C 20 %
380 27-04-2020 15:13:17 27.6 C 20 %
381 27-04-2020 15:23:17 26.7 C 20 %
382 27-04-2020 15:33:17 27.5 C 20 %
383 27-04-2020 15:43:17 27.6 C 20 %
384 27-04-2020 15:53:17 27.9 C 20 %
385 27-04-2020 16:03:17 26.8 C 20 %
386 27-04-2020 16:13:17 23.7 C 20 %
387 27-04-2020 16:23:17 23.4 C 20 %
388 27-04-2020 16:33:17 24.1 C 20 %
389 27-04-2020 16:43:17 23.7 C 20 %
390 27-04-2020 16:53:17 22.7 C 20 %
391 27-04-2020 17:03:18 22.1 C 20 %
392 27-04-2020 17:13:18 22.1 C 20 %
393 27-04-2020 17:23:17 21.6 C 20 %
394 27-04-2020 17:33:17 21.7 C 20 %
395 27-04-2020 17:43:17 21.6 C 20 %
396 27-04-2020 17:53:17 22.2 C 20 %
397 27-04-2020 18:03:17 21.5 C 20 %
398 27-04-2020 18:13:17 21.8 C 20 %
399 27-04-2020 18:23:17 24 C 20 %
400 27-04-2020 18:33:18 23.1 C 20 %
Sensor: Nr:Datum:Temp:Feuchte:
Aussen-T/F 401 27-04-2020 18:43:18 22.4 C 20 %
402 27-04-2020 18:53:17 22.1 C 20 %
403 27-04-2020 19:03:17 20.9 C 20 %
404 27-04-2020 19:13:17 19.4 C 20 %
405 27-04-2020 19:23:18 19.2 C 20 %
406 27-04-2020 19:33:17 18.3 C 20 %
407 27-04-2020 19:43:18 18.2 C 20 %
408 27-04-2020 19:53:17 17.4 C 20 %
409 27-04-2020 20:03:17 17.1 C 20 %
410 27-04-2020 20:13:17 16.8 C 20 %
411 27-04-2020 20:23:17 16.2 C 20 %
412 27-04-2020 20:33:17 15.4 C 21 %
413 27-04-2020 20:43:17 15.1 C 21 %
414 27-04-2020 20:53:18 15.2 C 21 %
415 27-04-2020 21:03:17 15 C 21 %
416 27-04-2020 21:13:17 15 C 22 %
417 27-04-2020 21:23:17 14.6 C 25 %
418 27-04-2020 21:33:18 14.2 C 25 %
419 27-04-2020 21:43:18 13.6 C 26 %
420 27-04-2020 21:53:17 13.2 C 27 %
421 27-04-2020 22:03:18 13.3 C 27 %
422 27-04-2020 22:13:18 13.3 C 27 %
423 27-04-2020 22:23:17 13 C 28 %
424 27-04-2020 22:33:17 12.3 C 30 %
425 27-04-2020 22:43:17 12.1 C 30 %
Sensor: Nr:Datum:Temp:Feuchte:
Aussen-T/F 426 27-04-2020 22:53:18 12 C 30 %
427 27-04-2020 23:03:17 12 C 30 %
428 27-04-2020 23:13:17 12 C 30 %
429 27-04-2020 23:23:17 11.8 C 31 %
430 27-04-2020 23:33:17 11.4 C 32 %
431 27-04-2020 23:43:17 11 C 32 %
432 27-04-2020 23:53:18 10.6 C 34 %
433 28-04-2020 00:03:17 10.5 C 35 %
434 28-04-2020 00:13:17 10 C 35 %
435 28-04-2020 00:23:17 10 C 35 %
436 28-04-2020 00:33:18 9.8 C 36 %
437 28-04-2020 00:43:18 9.8 C 36 %
438 28-04-2020 00:53:17 9.7 C 36 %
439 28-04-2020 01:03:18 9.5 C 36 %
440 28-04-2020 01:13:18 9.3 C 37 %
441 28-04-2020 01:23:17 9.1 C 37 %
442 28-04-2020 01:33:17 9.1 C 37 %
443 28-04-2020 01:43:18 9.2 C 37 %
444 28-04-2020 01:53:17 8.8 C 38 %
445 28-04-2020 02:03:18 8.7 C 39 %
446 28-04-2020 02:13:18 8.8 C 39 %
447 28-04-2020 02:23:17 8.4 C 39 %
448 28-04-2020 02:33:18 8.2 C 39 %
449 28-04-2020 02:43:18 8.3 C 40 %
450 28-04-2020 02:53:18 8.6 C 40 %
Sensor: Nr:Datum:Temp:Feuchte:
Aussen-T/F 451 28-04-2020 03:03:17 8.7 C 40 %
452 28-04-2020 03:13:17 8.4 C 40 %
453 28-04-2020 03:23:17 8.3 C 40 %
454 28-04-2020 03:33:18 8.3 C 40 %
455 28-04-2020 03:43:18 7.8 C 40 %
456 28-04-2020 03:53:18 7.7 C 41 %
457 28-04-2020 04:03:18 7.9 C 41 %
458 28-04-2020 04:13:18 7.4 C 41 %
459 28-04-2020 04:23:18 7.3 C 41 %
460 28-04-2020 04:33:18 7.3 C 42 %
461 28-04-2020 04:43:18 7.6 C 43 %
462 28-04-2020 04:53:17 7.7 C 42 %
463 28-04-2020 05:03:17 7.8 C 41 %
464 28-04-2020 05:13:17 7.8 C 42 %
465 28-04-2020 05:23:17 7.8 C 41 %
466 28-04-2020 05:33:18 7.9 C 41 %
467 28-04-2020 05:43:18 7.7 C 41 %
468 28-04-2020 05:53:17 7.5 C 41 %
469 28-04-2020 06:03:17 7.2 C 41 %
470 28-04-2020 06:13:17 7 C 42 %
471 28-04-2020 06:23:17 7.3 C 43 %
472 28-04-2020 06:33:18 7.6 C 43 %
473 28-04-2020 06:43:18 8 C 42 %
474 28-04-2020 06:53:17 8.3 C 41 %
475 28-04-2020 07:03:18 8.7 C 41 %
Sensor: Nr:Datum:Temp:Feuchte:
Aussen-T/F 476 28-04-2020 07:13:18 9.1 C 40 %
477 28-04-2020 07:23:18 9.3 C 39 %
478 28-04-2020 07:33:17 9.5 C 39 %
479 28-04-2020 07:43:17 9.6 C 39 %
480 28-04-2020 07:53:17 9.4 C 39 %
481 28-04-2020 08:03:17 9.2 C 40 %
482 28-04-2020 08:13:17 9.5 C 41 %
483 28-04-2020 08:23:17 9.8 C 41 %
484 28-04-2020 08:33:17 10 C 41 %
485 28-04-2020 08:43:17 10.1 C 41 %
486 28-04-2020 08:53:17 10.6 C 40 %
487 28-04-2020 09:03:17 10.7 C 40 %
488 28-04-2020 09:13:17 11.2 C 39 %
489 28-04-2020 09:23:17 11.7 C 39 %
490 28-04-2020 09:33:18 11.8 C 39 %
491 28-04-2020 09:43:18 11.8 C 38 %
492 28-04-2020 09:53:17 12.2 C 38 %
493 28-04-2020 10:03:17 12.8 C 38 %
494 28-04-2020 10:13:17 12.9 C 37 %
495 28-04-2020 10:23:18 13.3 C 36 %
496 28-04-2020 10:33:17 13.7 C 36 %
497 28-04-2020 10:43:17 14 C 35 %
498 28-04-2020 10:53:17 14.1 C 35 %
499 28-04-2020 11:03:17 13.4 C 37 %
500 28-04-2020 11:13:17 13.8 C 38 %
Sensor: Nr:Datum:Temp:Feuchte:
Aussen-T/F 501 28-04-2020 11:23:17 13.5 C 38 %
502 28-04-2020 11:33:17 14.2 C 38 %
503 28-04-2020 11:43:17 14.3 C 37 %
504 28-04-2020 11:53:17 14.6 C 38 %
505 28-04-2020 12:03:17 14.9 C 37 %
506 28-04-2020 12:13:17 15 C 37 %
507 28-04-2020 12:23:17 14.9 C 38 %
508 28-04-2020 12:33:17 15.2 C 37 %
509 28-04-2020 12:43:17 15 C 38 %
510 28-04-2020 12:53:17 14.9 C 39 %
511 28-04-2020 13:03:18 14.7 C 39 %
512 28-04-2020 13:13:18 14.5 C 41 %
513 28-04-2020 13:23:17 14.2 C 41 %
514 28-04-2020 13:33:17 14.9 C 40 %
515 28-04-2020 13:43:17 14.9 C 38 %
516 28-04-2020 13:53:17 15.2 C 36 %
517 28-04-2020 14:03:17 16.2 C 36 %
518 28-04-2020 14:13:17 16.9 C 35 %
519 28-04-2020 14:23:18 20.2 C 30 %
520 28-04-2020 14:33:18 17.5 C 32 %
521 28-04-2020 14:43:18 16.5 C 34 %
522 28-04-2020 14:53:17 17.2 C 33 %
523 28-04-2020 15:03:17 16.4 C 34 %
524 28-04-2020 15:13:17 15.6 C 36 %
525 28-04-2020 15:23:17 15.6 C 36 %
Sensor: Nr:Datum:Temp:Feuchte:
Aussen-T/F 526 28-04-2020 15:33:17 18.1 C 32 %
527 28-04-2020 15:43:17 16.5 C 33 %
528 28-04-2020 15:53:17 17 C 32 %
529 28-04-2020 16:03:18 17.1 C 32 %
530 28-04-2020 16:13:18 16.7 C 32 %
531 28-04-2020 16:23:17 16.9 C 32 %
532 28-04-2020 16:33:17 18.5 C 30 %
533 28-04-2020 16:43:17 20.1 C 26 %
534 28-04-2020 16:53:17 19.4 C 27 %
535 28-04-2020 17:03:17 17.6 C 30 %
536 28-04-2020 17:13:17 17.4 C 30 %
537 28-04-2020 17:23:17 17.2 C 29 %
538 28-04-2020 17:33:17 17 C 30 %
539 28-04-2020 17:43:17 16.8 C 30 %
540 28-04-2020 17:53:17 17.6 C 28 %
541 28-04-2020 18:03:17 18.2 C 27 %
542 28-04-2020 18:13:17 17.4 C 29 %
543 28-04-2020 18:23:17 18 C 28 %
544 28-04-2020 18:33:18 17.6 C 28 %
545 28-04-2020 18:43:18 17.7 C 28 %
546 28-04-2020 18:53:17 16.6 C 30 %
547 28-04-2020 19:03:17 16.3 C 30 %
548 28-04-2020 19:13:17 16.3 C 30 %
549 28-04-2020 19:23:17 16.3 C 30 %
550 28-04-2020 19:33:18 16.4 C 30 %
Sensor: Nr:Datum:Temp:Feuchte:
Aussen-T/F 551 28-04-2020 19:43:18 16.5 C 30 %
552 28-04-2020 19:53:17 16.1 C 30 %
553 28-04-2020 20:03:18 15 C 32 %
554 28-04-2020 20:13:18 14.2 C 35 %
555 28-04-2020 20:23:17 13.6 C 37 %
556 28-04-2020 20:33:17 13.4 C 37 %
557 28-04-2020 20:43:18 13.1 C 37 %
558 28-04-2020 20:53:17 13 C 38 %
559 28-04-2020 21:03:17 12.5 C 39 %
560 28-04-2020 21:13:17 13.5 C 36 %
561 28-04-2020 21:23:17 13.9 C 35 %
562 28-04-2020 21:33:17 14.6 C 34 %
563 28-04-2020 21:43:17 14.4 C 34 %
564 28-04-2020 21:53:17 14.2 C 34 %
565 28-04-2020 22:03:17 13.4 C 35 %
566 28-04-2020 22:13:17 12.8 C 37 %
567 28-04-2020 22:23:17 12.8 C 37 %
568 28-04-2020 22:33:17 13 C 36 %
569 28-04-2020 22:43:17 13.1 C 36 %
570 28-04-2020 22:53:18 12.9 C 37 %
571 28-04-2020 23:03:17 12.7 C 38 %
572 28-04-2020 23:13:18 12.7 C 38 %
573 28-04-2020 23:23:18 12.7 C 38 %
574 28-04-2020 23:33:18 12.7 C 38 %
575 28-04-2020 23:43:18 12.5 C 39 %
Sensor: Nr:Datum:Temp:Feuchte:
Aussen-T/F 576 28-04-2020 23:53:18 12.2 C 39 %
577 29-04-2020 00:03:17 12.2 C 39 %
578 29-04-2020 00:13:17 12.2 C 39 %
579 29-04-2020 00:23:17 12.1 C 39 %
580 29-04-2020 00:33:18 11.8 C 40 %
581 29-04-2020 00:43:18 11.5 C 40 %
582 29-04-2020 00:53:18 11.5 C 40 %
583 29-04-2020 01:03:18 11.5 C 40 %
584 29-04-2020 01:13:18 11.6 C 40 %
585 29-04-2020 01:23:17 11.7 C 40 %
586 29-04-2020 01:33:17 11.6 C 42 %
587 29-04-2020 01:43:17 11.4 C 43 %
588 29-04-2020 01:53:17 11.4 C 44 %
589 29-04-2020 02:03:17 11.4 C 44 %
590 29-04-2020 02:13:17 11.4 C 41 %
591 29-04-2020 02:23:17 12.3 C 37 %
592 29-04-2020 02:33:18 12.6 C 37 %
593 29-04-2020 02:43:18 12.5 C 36 %
594 29-04-2020 02:53:17 12.1 C 36 %
595 29-04-2020 03:03:17 12 C 36 %
596 29-04-2020 03:13:17 11.4 C 39 %
597 29-04-2020 03:23:17 11.5 C 39 %
598 29-04-2020 03:33:17 11.7 C 39 %
599 29-04-2020 03:43:17 12 C 37 %
600 29-04-2020 03:53:17 12.1 C 37 %
Sensor: Nr:Datum:Temp:Feuchte:
Aussen-T/F 601 29-04-2020 04:03:17 11.9 C 39 %
602 29-04-2020 04:13:17 11.9 C 39 %
603 29-04-2020 04:23:17 11.7 C 39 %
604 29-04-2020 04:33:17 11.9 C 38 %
605 29-04-2020 04:43:18 11.6 C 39 %
606 29-04-2020 04:53:17 11.4 C 39 %
607 29-04-2020 05:03:18 11.7 C 39 %
608 29-04-2020 05:13:18 11.5 C 39 %
609 29-04-2020 05:23:18 11.7 C 39 %
610 29-04-2020 05:33:17 11.5 C 39 %
611 29-04-2020 05:43:17 11.4 C 39 %
612 29-04-2020 05:53:17 11.3 C 40 %
613 29-04-2020 06:03:18 11.3 C 40 %
614 29-04-2020 06:13:18 11.5 C 39 %
615 29-04-2020 06:23:17 11.6 C 38 %
616 29-04-2020 06:33:17 11.2 C 39 %
617 29-04-2020 06:43:17 11 C 40 %
618 29-04-2020 06:53:17 11.2 C 40 %
619 29-04-2020 07:03:17 11.5 C 39 %
620 29-04-2020 07:13:17 11.9 C 39 %
621 29-04-2020 07:23:17 12.1 C 37 %
622 29-04-2020 07:33:17 12.3 C 37 %
623 29-04-2020 07:43:17 12.4 C 36 %
624 29-04-2020 07:53:17 12.7 C 36 %
625 29-04-2020 08:03:17 12.9 C 36 %
Sensor: Nr:Datum:Temp:Feuchte:
Aussen-T/F 626 29-04-2020 08:13:17 12.9 C 36 %
627 29-04-2020 08:23:17 12.7 C 36 %
628 29-04-2020 08:33:17 12.6 C 36 %
629 29-04-2020 08:43:17 12.5 C 36 %
630 29-04-2020 08:53:17 13 C 35 %
631 29-04-2020 09:03:17 13.1 C 35 %
632 29-04-2020 09:13:17 13.2 C 35 %
633 29-04-2020 09:23:17 13.5 C 34 %
634 29-04-2020 09:33:17 13.6 C 33 %
635 29-04-2020 09:43:17 13.9 C 32 %
636 29-04-2020 09:53:17 14.1 C 32 %
637 29-04-2020 10:03:17 14.5 C 31 %
638 29-04-2020 10:13:17 14.8 C 30 %
639 29-04-2020 10:23:17 15.1 C 29 %
640 29-04-2020 10:33:17 14.8 C 30 %
641 29-04-2020 10:43:17 15 C 29 %
642 29-04-2020 10:53:17 15.5 C 28 %
643 29-04-2020 11:03:17 16 C 28 %
644 29-04-2020 11:13:17 16 C 28 %
645 29-04-2020 11:23:17 16.3 C 27 %
646 29-04-2020 11:33:18 16.8 C 27 %
647 29-04-2020 11:43:18 16.9 C 25 %
648 29-04-2020 11:53:17 17.1 C 25 %
649 29-04-2020 12:03:18 17.5 C 25 %
650 29-04-2020 12:13:18 16.4 C 25 %
Sensor: Nr:Datum:Temp:Feuchte:
Aussen-T/F 651 29-04-2020 12:23:17 15.5 C 26 %
652 29-04-2020 12:33:17 15.9 C 26 %
653 29-04-2020 12:43:17 16.3 C 25 %
654 29-04-2020 12:53:17 16.2 C 25 %
655 29-04-2020 13:03:17 17.5 C 25 %
656 29-04-2020 13:13:17 16.4 C 25 %
657 29-04-2020 13:23:18 16.1 C 25 %
658 29-04-2020 13:33:18 17.5 C 25 %
659 29-04-2020 13:43:18 17.3 C 25 %
660 29-04-2020 13:53:18 16.6 C 25 %
661 29-04-2020 14:03:18 16.7 C 26 %
662 29-04-2020 14:13:18 15.7 C 26 %
663 29-04-2020 14:23:18 15.9 C 26 %
664 29-04-2020 14:33:17 16.1 C 26 %
665 29-04-2020 14:43:17 19.2 C 22 %
666 29-04-2020 14:53:17 21.1 C 20 %
667 29-04-2020 15:03:17 20.9 C 20 %
668 29-04-2020 15:13:17 22.7 C 20 %
669 29-04-2020 15:23:17 22.3 C 20 %
670 29-04-2020 15:33:17 19.6 C 20 %
671 29-04-2020 15:43:17 18.7 C 20 %
672 29-04-2020 15:53:17 19.2 C 20 %
673 29-04-2020 16:03:17 17.4 C 22 %
674 29-04-2020 16:13:17 17.9 C 22 %
675 29-04-2020 16:23:17 18.4 C 20 %
Sensor: Nr:Datum:Temp:Feuchte:
Aussen-T/F 676 29-04-2020 16:33:17 17.7 C 21 %
677 29-04-2020 16:43:17 20.2 C 20 %
678 29-04-2020 16:53:17 18.2 C 20 %
679 29-04-2020 17:03:17 17.4 C 22 %
680 29-04-2020 17:13:17 16 C 25 %
681 29-04-2020 17:23:17 19.4 C 23 %
682 29-04-2020 17:33:17 21.1 C 20 %
683 29-04-2020 17:43:17 21.2 C 20 %
684 29-04-2020 17:53:17 20.2 C 20 %
685 29-04-2020 18:03:17 21 C 20 %
686 29-04-2020 18:13:18 17.5 C 21 %
687 29-04-2020 18:23:17 17.4 C 21 %
688 29-04-2020 18:33:17 17.7 C 22 %
689 29-04-2020 18:43:17 17.9 C 22 %
690 29-04-2020 18:53:17 17.2 C 23 %
691 29-04-2020 19:03:18 17 C 25 %
692 29-04-2020 19:13:18 17.5 C 24 %
693 29-04-2020 19:23:17 17.5 C 23 %
694 29-04-2020 19:33:17 17.1 C 23 %
695 29-04-2020 19:43:18 16.7 C 24 %
696 29-04-2020 19:53:17 16.1 C 25 %
697 29-04-2020 20:03:18 15.4 C 26 %
698 29-04-2020 20:13:18 15 C 26 %
699 29-04-2020 20:23:18 14.7 C 29 %
700 29-04-2020 20:33:17 14.5 C 29 %
Sensor: Nr:Datum:Temp:Feuchte:
Aussen-T/F 701 29-04-2020 20:43:17 14.5 C 28 %
702 29-04-2020 20:53:18 14.4 C 28 %
703 29-04-2020 21:03:18 13.8 C 30 %
704 29-04-2020 21:13:18 13.2 C 31 %
705 29-04-2020 21:23:17 12.9 C 33 %
706 29-04-2020 21:33:17 13 C 32 %
707 29-04-2020 21:43:17 13.5 C 32 %
708 29-04-2020 21:53:17 13.2 C 32 %
709 29-04-2020 22:03:18 13 C 32 %
710 29-04-2020 22:13:18 13.2 C 33 %
711 29-04-2020 22:23:17 13.5 C 32 %
712 29-04-2020 22:33:17 13.3 C 32 %
713 29-04-2020 22:43:17 13.1 C 32 %
714 29-04-2020 22:53:18 13.3 C 33 %
715 29-04-2020 23:03:18 12.8 C 35 %
716 29-04-2020 23:13:18 12.8 C 35 %
717 29-04-2020 23:23:17 13 C 34 %
718 29-04-2020 23:33:17 13.2 C 33 %
719 29-04-2020 23:43:17 13.2 C 34 %
720 29-04-2020 23:53:18 12.9 C 35 %
721 30-04-2020 00:03:17 13 C 34 %
722 30-04-2020 00:13:17 13.2 C 34 %
723 30-04-2020 00:23:17 13.3 C 33 %
724 30-04-2020 00:33:17 13.2 C 33 %
725 30-04-2020 00:43:17 13.3 C 33 %
Sensor: Nr:Datum:Temp:Feuchte:
Aussen-T/F 726 30-04-2020 00:53:17 13.1 C 33 %
727 30-04-2020 01:03:17 13.1 C 33 %
728 30-04-2020 01:13:17 13.2 C 33 %
729 30-04-2020 01:23:17 13.2 C 33 %
730 30-04-2020 01:33:17 13.4 C 33 %
731 30-04-2020 01:43:17 13.4 C 32 %
732 30-04-2020 01:53:17 13 C 34 %
733 30-04-2020 02:03:17 12 C 37 %
734 30-04-2020 02:13:17 11.8 C 39 %
735 30-04-2020 02:23:17 11.5 C 39 %
736 30-04-2020 02:33:17 11.8 C 38 %
737 30-04-2020 02:43:17 11.7 C 38 %
738 30-04-2020 02:53:17 11.8 C 37 %
739 30-04-2020 03:03:17 11.7 C 37 %
740 30-04-2020 03:13:17 11.2 C 38 %
741 30-04-2020 03:23:17 10.9 C 40 %
742 30-04-2020 03:33:17 10.9 C 40 %
743 30-04-2020 03:43:18 11 C 40 %
744 30-04-2020 03:53:17 11 C 40 %
745 30-04-2020 04:03:17 10.8 C 41 %
746 30-04-2020 04:13:17 10.7 C 41 %
747 30-04-2020 04:23:17 10.6 C 43 %
748 30-04-2020 04:33:18 10.7 C 44 %
749 30-04-2020 04:43:18 10.6 C 44 %
750 30-04-2020 04:53:17 10.7 C 45 %
Sensor: Nr:Datum:Temp:Feuchte:
Aussen-T/F 751 30-04-2020 05:03:17 10.7 C 45 %
752 30-04-2020 05:13:17 10.8 C 45 %
753 30-04-2020 05:23:17 10.8 C 45 %
754 30-04-2020 05:33:17 10.8 C 45 %
755 30-04-2020 05:43:17 10.7 C 45 %
756 30-04-2020 05:53:18 10.8 C 45 %
757 30-04-2020 06:03:17 10.7 C 45 %
758 30-04-2020 06:13:18 10.7 C 45 %
759 30-04-2020 06:23:17 10.7 C 45 %
760 30-04-2020 06:33:17 10.8 C 45 %
761 30-04-2020 06:43:17 10.7 C 45 %
762 30-04-2020 06:53:17 10.8 C 45 %
763 30-04-2020 07:03:17 10.6 C 44 %
764 30-04-2020 07:13:17 10.3 C 42 %
765 30-04-2020 07:23:17 10.2 C 42 %
766 30-04-2020 07:33:17 10.2 C 42 %
767 30-04-2020 07:43:17 10.1 C 42 %
768 30-04-2020 07:53:17 10 C 43 %
769 30-04-2020 08:03:17 9.9 C 42 %
770 30-04-2020 08:13:17 9.8 C 43 %
771 30-04-2020 08:23:17 10 C 43 %
772 30-04-2020 08:33:17 11 C 39 %
773 30-04-2020 08:43:17 10.7 C 40 %
774 30-04-2020 08:53:17 10.9 C 40 %
775 30-04-2020 09:03:17 11.2 C 39 %
Sensor: Nr:Datum:Temp:Feuchte:
Aussen-T/F 776 30-04-2020 09:13:17 11.8 C 37 %
777 30-04-2020 09:23:18 12.1 C 36 %
778 30-04-2020 09:33:17 12.5 C 36 %
779 30-04-2020 09:43:17 12.5 C 36 %
780 30-04-2020 09:53:17 12.7 C 36 %
781 30-04-2020 10:03:17 13.2 C 35 %
782 30-04-2020 10:13:17 13.9 C 35 %
783 30-04-2020 10:23:17 14 C 33 %
784 30-04-2020 10:33:17 13.7 C 32 %
785 30-04-2020 10:43:17 14.4 C 31 %
786 30-04-2020 10:53:18 14 C 31 %
787 30-04-2020 11:03:18 14 C 30 %
788 30-04-2020 11:13:18 14 C 30 %
789 30-04-2020 11:23:17 14 C 31 %
790 30-04-2020 11:33:17 14.5 C 31 %
791 30-04-2020 11:43:17 14.2 C 30 %
792 30-04-2020 11:53:17 14.3 C 30 %
793 30-04-2020 12:03:18 14.5 C 30 %
794 30-04-2020 12:13:18 14.2 C 29 %
795 30-04-2020 12:23:17 14.6 C 29 %
796 30-04-2020 12:33:17 14.4 C 29 %
797 30-04-2020 12:43:17 14.5 C 29 %
798 30-04-2020 12:53:18 15 C 27 %
799 30-04-2020 13:03:17 14.7 C 27 %
800 30-04-2020 13:13:17 14.6 C 27 %
Sensor: Nr:Datum:Temp:Feuchte:
Aussen-T/F 801 30-04-2020 13:23:17 14.6 C 27 %
802 30-04-2020 13:33:17 14.5 C 27 %
803 30-04-2020 13:43:17 15.2 C 26 %
804 30-04-2020 13:53:17 15.9 C 25 %
805 30-04-2020 14:03:18 16.8 C 23 %
806 30-04-2020 14:13:18 16.2 C 21 %
807 30-04-2020 14:23:17 16.6 C 21 %
808 30-04-2020 14:33:18 19.7 C 20 %
809 30-04-2020 14:43:18 18.3 C 20 %
810 30-04-2020 14:53:17 18.1 C 20 %
811 30-04-2020 15:03:18 19.2 C 20 %
812 30-04-2020 15:13:18 19.5 C 20 %
813 30-04-2020 15:23:17 17.4 C 20 %
814 30-04-2020 15:33:17 16.5 C 20 %
815 30-04-2020 15:43:17 15.8 C 20 %
816 30-04-2020 15:53:18 15.9 C 21 %
817 30-04-2020 16:03:17 16.2 C 20 %
818 30-04-2020 16:13:17 16.3 C 20 %
819 30-04-2020 16:23:17 16.7 C 21 %
820 30-04-2020 16:33:17 16.4 C 20 %
821 30-04-2020 16:43:18 16.3 C 21 %
822 30-04-2020 16:53:17 15.9 C 21 %
823 30-04-2020 17:03:17 14.8 C 25 %
824 30-04-2020 17:13:17 12.5 C 33 %
825 30-04-2020 17:23:18 11.8 C 37 %
Sensor: Nr:Datum:Temp:Feuchte:
Aussen-T/F 826 30-04-2020 17:33:17 11.5 C 37 %
827 30-04-2020 17:43:17 10.7 C 40 %
828 30-04-2020 17:53:17 10.8 C 42 %
829 30-04-2020 18:03:17 10.6 C 41 %
830 30-04-2020 18:13:18 10.3 C 42 %
831 30-04-2020 18:23:17 10.2 C 42 %
832 30-04-2020 18:33:17 10.2 C 43 %
833 30-04-2020 18:43:17 10 C 41 %
834 30-04-2020 18:53:17 9.9 C 41 %
835 30-04-2020 19:03:18 9.6 C 41 %
836 30-04-2020 19:13:18 9.5 C 41 %
837 30-04-2020 19:23:17 10 C 40 %
838 30-04-2020 19:33:18 10.1 C 41 %
839 30-04-2020 19:43:18 10 C 41 %
840 30-04-2020 19:53:17 9.9 C 44 %
841 30-04-2020 20:03:17 9.7 C 45 %
842 30-04-2020 20:13:17 9.6 C 45 %
843 30-04-2020 20:23:17 9.4 C 44 %
844 30-04-2020 20:33:18 9 C 44 %
845 30-04-2020 20:43:18 8.6 C 45 %
846 30-04-2020 20:53:17 8.6 C 46 %
847 30-04-2020 21:03:17 8.7 C 46 %
848 30-04-2020 21:13:17 8.8 C 45 %
849 30-04-2020 21:23:17 8.9 C 45 %
850 30-04-2020 21:33:17 9 C 45 %
Sensor: Nr:Datum:Temp:Feuchte:
Aussen-T/F 851 30-04-2020 21:43:18 9 C 45 %
852 30-04-2020 21:53:17 9 C 45 %
853 30-04-2020 22:03:18 8.6 C 45 %
854 30-04-2020 22:13:18 8.4 C 45 %
855 30-04-2020 22:23:18 8.7 C 45 %
856 30-04-2020 22:33:17 8.7 C 45 %
857 30-04-2020 22:43:17 8.6 C 45 %
858 30-04-2020 22:53:18 8.5 C 45 %
859 30-04-2020 23:03:17 8.4 C 45 %
860 30-04-2020 23:13:17 8.3 C 45 %
861 30-04-2020 23:23:17 8.3 C 45 %
862 30-04-2020 23:33:17 8.6 C 45 %
863 30-04-2020 23:43:17 9 C 44 %
864 30-04-2020 23:53:17 9.2 C 43 %
865 01-05-2020 00:03:17 8.9 C 43 %
866 01-05-2020 00:13:17 8.6 C 44 %
867 01-05-2020 00:23:17 8.2 C 44 %
868 01-05-2020 00:33:18 8.4 C 44 %
869 01-05-2020 00:43:18 8.2 C 44 %
870 01-05-2020 00:53:17 7.8 C 45 %
871 01-05-2020 01:03:17 8.1 C 45 %
872 01-05-2020 01:13:18 8.2 C 44 %
873 01-05-2020 01:23:18 8.1 C 43 %
874 01-05-2020 01:33:18 8.1 C 43 %
875 01-05-2020 01:43:18 8.5 C 42 %
Sensor: Nr:Datum:Temp:Feuchte:
Aussen-T/F 876 01-05-2020 01:53:17 8.5 C 41 %
877 01-05-2020 02:03:17 8.1 C 42 %
878 01-05-2020 02:13:18 8 C 42 %
879 01-05-2020 02:23:17 7.7 C 43 %
880 01-05-2020 02:33:17 7.6 C 43 %
881 01-05-2020 02:43:17 7.8 C 43 %
882 01-05-2020 02:53:17 7.7 C 44 %
883 01-05-2020 03:03:17 7.4 C 44 %
884 01-05-2020 03:13:18 7.4 C 46 %
885 01-05-2020 03:23:17 7.9 C 44 %
886 01-05-2020 03:33:17 8.2 C 41 %
887 01-05-2020 03:43:17 8 C 42 %
888 01-05-2020 03:53:18 7.4 C 44 %
889 01-05-2020 04:03:17 7.3 C 45 %
890 01-05-2020 04:13:17 7 C 45 %
891 01-05-2020 04:23:17 7.1 C 46 %
892 01-05-2020 04:33:17 7.3 C 46 %
893 01-05-2020 04:43:17 7.4 C 46 %
894 01-05-2020 04:53:17 7.6 C 46 %
895 01-05-2020 05:03:18 7.8 C 46 %
896 01-05-2020 05:13:18 7.9 C 46 %
897 01-05-2020 05:23:17 8 C 45 %
898 01-05-2020 05:33:18 8 C 45 %
899 01-05-2020 05:43:18 8.6 C 41 %
900 01-05-2020 05:53:17 8.4 C 40 %
Sensor: Nr:Datum:Temp:Feuchte:
Aussen-T/F 901 01-05-2020 06:03:17 8.1 C 41 %
902 01-05-2020 06:13:17 7.8 C 43 %
903 01-05-2020 06:23:17 7.6 C 44 %
904 01-05-2020 06:33:17 7.6 C 45 %
905 01-05-2020 06:43:17 7.4 C 45 %
906 01-05-2020 06:53:17 7 C 45 %
907 01-05-2020 07:03:17 6.8 C 46 %
908 01-05-2020 07:13:17 6.9 C 46 %
909 01-05-2020 07:23:17 7.8 C 46 %
910 01-05-2020 07:33:18 7.9 C 46 %
911 01-05-2020 07:43:18 8.3 C 45 %
912 01-05-2020 07:53:17 8.1 C 41 %
913 01-05-2020 08:03:18 8.1 C 41 %
914 01-05-2020 08:13:18 8.4 C 41 %
915 01-05-2020 08:23:18 8.3 C 42 %
916 01-05-2020 08:33:18 8.3 C 44 %
917 01-05-2020 08:43:18 9 C 44 %
918 01-05-2020 08:53:17 9.2 C 42 %
919 01-05-2020 09:03:17 9.6 C 42 %
920 01-05-2020 09:13:17 9.7 C 42 %
921 01-05-2020 09:23:17 10.1 C 40 %
922 01-05-2020 09:33:17 10.4 C 38 %
923 01-05-2020 09:43:18 10.6 C 39 %
924 01-05-2020 09:53:18 10.5 C 38 %
925 01-05-2020 10:03:18 10.5 C 38 %
Sensor: Nr:Datum:Temp:Feuchte:
Aussen-T/F 926 01-05-2020 10:13:18 10.6 C 37 %
927 01-05-2020 10:23:17 10.5 C 37 %
928 01-05-2020 10:33:17 11 C 37 %
929 01-05-2020 10:43:17 11.5 C 36 %
930 01-05-2020 10:53:17 12.6 C 34 %
931 01-05-2020 11:03:17 12.5 C 33 %
932 01-05-2020 11:13:18 12.8 C 33 %
933 01-05-2020 11:23:17 12.7 C 32 %
934 01-05-2020 11:33:18 13.1 C 31 %
935 01-05-2020 11:43:18 13.1 C 31 %
936 01-05-2020 11:53:17 12.8 C 32 %
937 01-05-2020 12:03:17 12.1 C 32 %
938 01-05-2020 12:13:17 11.9 C 34 %
939 01-05-2020 12:23:17 12.1 C 33 %
940 01-05-2020 12:33:17 11.1 C 36 %
941 01-05-2020 12:43:17 10.7 C 38 %
942 01-05-2020 12:53:17 10.4 C 39 %
943 01-05-2020 13:03:18 10.3 C 38 %
944 01-05-2020 13:13:18 9.7 C 38 %
945 01-05-2020 13:23:17 10.5 C 38 %
946 01-05-2020 13:33:17 11.3 C 36 %
947 01-05-2020 13:43:17 12.4 C 34 %
948 01-05-2020 13:53:17 12.8 C 34 %
949 01-05-2020 14:03:17 12.3 C 33 %
950 01-05-2020 14:13:17 13.5 C 31 %
Sensor: Nr:Datum:Temp:Feuchte:
Aussen-T/F 951 01-05-2020 14:23:18 14.7 C 28 %
952 01-05-2020 14:33:18 14.2 C 27 %
953 01-05-2020 14:43:18 16.8 C 22 %
954 01-05-2020 14:53:17 19.6 C 20 %
955 01-05-2020 15:03:17 19.2 C 20 %
956 01-05-2020 15:13:17 20 C 20 %
957 01-05-2020 15:23:17 16.6 C 20 %
958 01-05-2020 15:33:17 14.9 C 25 %
959 01-05-2020 15:43:17 13.5 C 27 %
960 01-05-2020 15:53:17 11.7 C 34 %
961 01-05-2020 16:03:18 13.5 C 30 %
962 01-05-2020 16:13:18 18.5 C 24 %
963 01-05-2020 16:23:17 19 C 20 %
964 01-05-2020 16:33:18 18 C 20 %
965 01-05-2020 16:43:18 18.4 C 20 %
966 01-05-2020 16:53:17 17.1 C 22 %
967 01-05-2020 17:03:18 19.1 C 20 %
968 01-05-2020 17:13:18 18.3 C 20 %
969 01-05-2020 17:23:17 15.5 C 25 %
970 01-05-2020 17:33:17 14 C 28 %
971 01-05-2020 17:43:17 12.2 C 34 %
972 01-05-2020 17:53:17 12.3 C 35 %
973 01-05-2020 18:03:18 12.5 C 35 %
974 01-05-2020 18:13:18 12.1 C 35 %
975 01-05-2020 18:23:17 12.2 C 35 %
Sensor: Nr:Datum:Temp:Feuchte:
Aussen-T/F 976 01-05-2020 18:33:18 12.8 C 35 %
977 01-05-2020 18:43:18 13.8 C 34 %
978 01-05-2020 18:53:17 13.2 C 31 %
979 01-05-2020 19:03:18 12.7 C 34 %
980 01-05-2020 19:13:18 12.1 C 35 %
981 01-05-2020 19:23:18 11.7 C 36 %
982 01-05-2020 19:33:17 11.8 C 35 %
983 01-05-2020 19:43:17 11.8 C 35 %
984 01-05-2020 19:53:17 11.4 C 35 %
985 01-05-2020 20:03:17 11.3 C 35 %
986 01-05-2020 20:13:17 11.3 C 35 %
987 01-05-2020 20:23:17 11.5 C 34 %
988 01-05-2020 20:33:17 11.1 C 34 %
989 01-05-2020 20:43:17 10.5 C 36 %
990 01-05-2020 20:53:17 10.3 C 37 %
991 01-05-2020 21:03:18 10.3 C 37 %
992 01-05-2020 21:13:18 10.4 C 37 %
993 01-05-2020 21:23:17 10.2 C 37 %
994 01-05-2020 21:33:17 9.8 C 38 %
995 01-05-2020 21:43:17 9.3 C 39 %
996 01-05-2020 21:53:17 8.8 C 40 %
997 01-05-2020 22:03:18 9 C 40 %
998 01-05-2020 22:13:18 9 C 40 %
999 01-05-2020 22:23:17 9.2 C 39 %
1000 01-05-2020 22:33:17 9.3 C 39 %
Sensor: Nr:Datum:Temp:Feuchte:
Aussen-T/F 1001 01-05-2020 22:43:17 9.3 C 40 %
1002 01-05-2020 22:53:18 9.5 C 39 %
1003 01-05-2020 23:03:17 9.4 C 40 %
1004 01-05-2020 23:13:17 9.3 C 40 %
1005 01-05-2020 23:23:17 9.3 C 40 %
1006 01-05-2020 23:33:17 9.4 C 40 %
1007 01-05-2020 23:43:17 9.5 C 39 %
1008 01-05-2020 23:53:17 9.4 C 40 %
1009 02-05-2020 00:03:17 9.3 C 40 %
1010 02-05-2020 00:13:17 9.2 C 40 %
1011 02-05-2020 00:23:17 9 C 40 %
1012 02-05-2020 00:33:18 8.9 C 40 %
1013 02-05-2020 00:43:18 8.9 C 40 %
1014 02-05-2020 00:53:17 8.9 C 40 %
1015 02-05-2020 01:03:18 9.1 C 40 %
1016 02-05-2020 01:13:18 9.3 C 39 %
1017 02-05-2020 01:23:17 9.3 C 39 %
1018 02-05-2020 01:33:17 9.1 C 40 %
1019 02-05-2020 01:43:18 8.8 C 40 %
1020 02-05-2020 01:53:17 8.5 C 40 %
1021 02-05-2020 02:03:18 8.3 C 41 %
1022 02-05-2020 02:13:18 8.3 C 42 %
1023 02-05-2020 02:23:17 8.4 C 42 %
1024 02-05-2020 02:33:18 8.7 C 41 %
1025 02-05-2020 02:43:18 9.1 C 40 %
Sensor: Nr:Datum:Temp:Feuchte:
Aussen-T/F 1026 02-05-2020 02:53:17 9.3 C 39 %
1027 02-05-2020 03:03:18 9.3 C 39 %
1028 02-05-2020 03:13:18 9.1 C 39 %
1029 02-05-2020 03:23:17 9.3 C 39 %
1030 02-05-2020 03:33:17 9.2 C 39 %
1031 02-05-2020 03:43:17 8.9 C 40 %
1032 02-05-2020 03:53:17 8.9 C 40 %
1033 02-05-2020 04:03:18 8.6 C 40 %
1034 02-05-2020 04:13:18 8.4 C 41 %
1035 02-05-2020 04:23:17 8.4 C 41 %
1036 02-05-2020 04:33:18 8.8 C 40 %
1037 02-05-2020 04:43:18 9 C 39 %
1038 02-05-2020 04:53:18 8.8 C 40 %
1039 02-05-2020 05:03:17 8.8 C 39 %
1040 02-05-2020 05:13:17 8.8 C 39 %
1041 02-05-2020 05:23:17 8.7 C 39 %
1042 02-05-2020 05:33:17 8.8 C 39 %
1043 02-05-2020 05:43:17 8.4 C 40 %
1044 02-05-2020 05:53:17 8.2 C 39 %
1045 02-05-2020 06:03:17 8.2 C 39 %
1046 02-05-2020 06:13:17 7.7 C 40 %
1047 02-05-2020 06:23:17 7.9 C 40 %
1048 02-05-2020 06:33:17 7.9 C 40 %
1049 02-05-2020 06:43:17 8 C 39 %
1050 02-05-2020 06:53:17 8.2 C 39 %
Sensor: Nr:Datum:Temp:Feuchte:
Aussen-T/F 1051 02-05-2020 07:03:17 8 C 39 %
1052 02-05-2020 07:13:17 8.3 C 39 %
1053 02-05-2020 07:23:17 8.4 C 38 %
1054 02-05-2020 07:33:17 8.2 C 38 %
1055 02-05-2020 07:43:17 8 C 39 %
1056 02-05-2020 07:53:17 8.4 C 39 %
1057 02-05-2020 08:03:17 8.5 C 39 %
1058 02-05-2020 08:13:17 8.9 C 38 %
1059 02-05-2020 08:23:17 9 C 37 %
1060 02-05-2020 08:33:17 9.8 C 37 %
1061 02-05-2020 08:43:17 9.8 C 37 %
1062 02-05-2020 08:53:17 9.5 C 37 %
1063 02-05-2020 09:03:17 9.6 C 36 %
1064 02-05-2020 09:13:17 9.7 C 36 %
1065 02-05-2020 09:23:17 9.9 C 36 %
1066 02-05-2020 09:33:17 10.8 C 35 %
1067 02-05-2020 09:43:17 10.8 C 35 %
1068 02-05-2020 09:53:17 10.2 C 35 %
1069 02-05-2020 10:03:18 9.7 C 36 %
1070 02-05-2020 10:13:18 8.6 C 40 %
1071 02-05-2020 10:23:17 6.8 C 41 %
1072 02-05-2020 10:33:17 6.7 C 44 %
1073 02-05-2020 10:43:17 6.7 C 43 %
1074 02-05-2020 10:53:17 6.9 C 43 %
1075 02-05-2020 11:03:17 7.4 C 42 %
Sensor: Nr:Datum:Temp:Feuchte:
Aussen-T/F 1076 02-05-2020 11:13:17 8.4 C 40 %
1077 02-05-2020 11:23:17 8.7 C 40 %
1078 02-05-2020 11:33:17 8.8 C 40 %
1079 02-05-2020 11:43:17 9.3 C 39 %
1080 02-05-2020 11:53:17 9.2 C 39 %
1081 02-05-2020 12:03:17 9.6 C 38 %
1082 02-05-2020 12:13:17 10 C 36 %
1083 02-05-2020 12:23:17 10.3 C 36 %
1084 02-05-2020 12:33:18 10.8 C 36 %
1085 02-05-2020 12:43:18 11.8 C 35 %
1086 02-05-2020 12:53:17 10.4 C 37 %
1087 02-05-2020 13:03:17 11.7 C 32 %
1088 02-05-2020 13:13:17 12.1 C 31 %
1089 02-05-2020 13:23:17 11.4 C 32 %
1090 02-05-2020 13:33:17 11.3 C 32 %
1091 02-05-2020 13:43:17 11.5 C 33 %
1092 02-05-2020 13:53:17 12.2 C 32 %
1093 02-05-2020 14:03:17 12.7 C 31 %
1094 02-05-2020 14:13:17 14.3 C 28 %
1095 02-05-2020 14:23:18 15.6 C 25 %
1096 02-05-2020 14:33:17 12.8 C 27 %
1097 02-05-2020 14:43:18 8.8 C 37 %
1098 02-05-2020 14:53:17 8.4 C 40 %
1099 02-05-2020 15:03:17 7.7 C 42 %
1100 02-05-2020 15:13:17 8.1 C 45 %
Sensor: Nr:Datum:Temp:Feuchte:
Aussen-T/F 1101 02-05-2020 15:23:17 8.9 C 41 %
1102 02-05-2020 15:33:18 13.2 C 32 %
1103 02-05-2020 15:43:18 17.2 C 29 %
1104 02-05-2020 15:53:17 16.8 C 25 %
1105 02-05-2020 16:03:17 18.1 C 23 %
1106 02-05-2020 16:13:17 19.2 C 20 %
1107 02-05-2020 16:23:17 19.8 C 20 %
1108 02-05-2020 16:33:17 16.9 C 20 %
1109 02-05-2020 16:43:17 14.2 C 28 %
1110 02-05-2020 16:53:17 13.5 C 29 %
1111 02-05-2020 17:03:17 18.1 C 23 %
1112 02-05-2020 17:13:17 16.2 C 22 %
1113 02-05-2020 17:23:18 14.5 C 25 %
1114 02-05-2020 17:33:18 14 C 28 %
1115 02-05-2020 17:43:18 14.2 C 27 %
1116 02-05-2020 17:53:17 16.8 C 22 %
1117 02-05-2020 18:03:17 14.7 C 20 %
1118 02-05-2020 18:13:17 14.1 C 22 %
1119 02-05-2020 18:23:17 13.3 C 26 %
1120 02-05-2020 18:33:17 13.2 C 27 %
1121 02-05-2020 18:43:17 12.6 C 29 %
1122 02-05-2020 18:53:17 12.3 C 29 %
1123 02-05-2020 19:03:17 11.9 C 31 %
1124 02-05-2020 19:13:17 11.2 C 31 %
1125 02-05-2020 19:23:17 11.7 C 29 %
Sensor: Nr:Datum:Temp:Feuchte:
Aussen-T/F 1126 02-05-2020 19:33:17 11.5 C 29 %
1127 02-05-2020 19:43:18 11.5 C 30 %
1128 02-05-2020 19:53:17 11.9 C 30 %
1129 02-05-2020 20:03:17 12.1 C 30 %
1130 02-05-2020 20:13:17 11.5 C 30 %
1131 02-05-2020 20:23:17 11.3 C 30 %
1132 02-05-2020 20:33:17 10 C 35 %
1133 02-05-2020 20:43:17 9.2 C 38 %
1134 02-05-2020 20:53:17 8.8 C 39 %
1135 02-05-2020 21:03:17 8.5 C 40 %
1136 02-05-2020 21:13:17 8.3 C 40 %
1137 02-05-2020 21:23:17 8.2 C 39 %
1138 02-05-2020 21:33:17 7.9 C 40 %
1139 02-05-2020 21:43:17 7.8 C 41 %
1140 02-05-2020 21:53:18 7.4 C 41 %
1141 02-05-2020 22:03:17 6.9 C 43 %
1142 02-05-2020 22:13:17 6.8 C 44 %
1143 02-05-2020 22:23:17 6.5 C 45 %
1144 02-05-2020 22:33:17 6.3 C 45 %
1145 02-05-2020 22:43:17 6.3 C 45 %
1146 02-05-2020 22:53:18 6.6 C 45 %
1147 02-05-2020 23:03:17 6.6 C 44 %
1148 02-05-2020 23:13:17 6.4 C 44 %
1149 02-05-2020 23:23:17 6.4 C 44 %
1150 02-05-2020 23:33:17 6.4 C 44 %
Sensor: Nr:Datum:Temp:Feuchte:
Aussen-T/F 1151 02-05-2020 23:43:17 6.2 C 44 %
1152 02-05-2020 23:53:17 6 C 45 %
1153 03-05-2020 00:03:17 6 C 45 %
1154 03-05-2020 00:13:17 5.8 C 46 %
1155 03-05-2020 00:23:17 5.9 C 46 %
1156 03-05-2020 00:33:17 5.6 C 46 %
1157 03-05-2020 00:43:17 5.5 C 46 %
1158 03-05-2020 00:53:17 5.3 C 46 %
1159 03-05-2020 01:03:18 5.2 C 46 %
1160 03-05-2020 01:13:18 5.1 C 46 %
1161 03-05-2020 01:23:17 4.8 C 47 %
1162 03-05-2020 01:33:18 4.6 C 47 %
1163 03-05-2020 01:43:18 4.7 C 47 %
1164 03-05-2020 01:53:18 4.7 C 47 %
1165 03-05-2020 02:03:18 4.7 C 47 %
1166 03-05-2020 02:13:18 5 C 46 %
1167 03-05-2020 02:23:17 4.7 C 47 %
1168 03-05-2020 02:33:18 4.5 C 47 %
1169 03-05-2020 02:43:18 4.5 C 47 %
1170 03-05-2020 02:53:17 4.3 C 47 %
1171 03-05-2020 03:03:17 4.2 C 47 %
1172 03-05-2020 03:13:17 4 C 47 %
1173 03-05-2020 03:23:17 4.2 C 47 %
1174 03-05-2020 03:33:18 4.3 C 47 %
1175 03-05-2020 03:43:18 4.1 C 46 %
Sensor: Nr:Datum:Temp:Feuchte:
Aussen-T/F 1176 03-05-2020 03:53:17 3.8 C 47 %
1177 03-05-2020 04:03:18 3.8 C 47 %
1178 03-05-2020 04:13:18 3.6 C 47 %
1179 03-05-2020 04:23:18 3.5 C 47 %
1180 03-05-2020 04:33:17 3.3 C 47 %
1181 03-05-2020 04:43:17 3 C 47 %
1182 03-05-2020 04:53:17 3.1 C 47 %
1183 03-05-2020 05:03:17 2.9 C 48 %
1184 03-05-2020 05:13:17 2.8 C 48 %
1185 03-05-2020 05:23:17 2.8 C 48 %
1186 03-05-2020 05:33:17 2.8 C 48 %
1187 03-05-2020 05:43:17 2.8 C 48 %
1188 03-05-2020 05:53:17 3.1 C 47 %
1189 03-05-2020 06:03:17 3.3 C 47 %
1190 03-05-2020 06:13:17 3.6 C 47 %
1191 03-05-2020 06:23:17 3.9 C 47 %
1192 03-05-2020 06:33:18 4 C 46 %
1193 03-05-2020 06:43:18 4 C 46 %
1194 03-05-2020 06:53:17 4 C 46 %
1195 03-05-2020 07:03:17 4 C 46 %
1196 03-05-2020 07:13:17 4.1 C 46 %
1197 03-05-2020 07:23:18 4.2 C 46 %
1198 03-05-2020 07:33:18 4.2 C 46 %
1199 03-05-2020 07:43:18 4.4 C 46 %
1200 03-05-2020 07:53:18 4.7 C 46 %
Sensor: Nr:Datum:Temp:Feuchte:
Aussen-T/F 1201 03-05-2020 08:03:18 4.6 C 46 %
1202 03-05-2020 08:13:18 5 C 46 %
1203 03-05-2020 08:23:18 5.5 C 46 %
1204 03-05-2020 08:33:17 5.4 C 46 %
1205 03-05-2020 08:43:17 6.1 C 45 %
1206 03-05-2020 08:53:17 6.2 C 43 %
1207 03-05-2020 09:03:17 6.5 C 43 %
1208 03-05-2020 09:13:17 6.4 C 42 %
1209 03-05-2020 09:23:17 7.2 C 41 %
1210 03-05-2020 09:33:18 7.6 C 42 %
1211 03-05-2020 09:43:18 7.6 C 40 %
1212 03-05-2020 09:53:17 8.6 C 40 %
1213 03-05-2020 10:03:17 8.9 C 40 %
1214 03-05-2020 10:13:17 9.7 C 40 %
1215 03-05-2020 10:23:18 10.1 C 37 %
1216 03-05-2020 10:33:17 10.7 C 39 %
1217 03-05-2020 10:43:17 11.6 C 36 %
1218 03-05-2020 10:53:17 12.5 C 34 %
1219 03-05-2020 11:03:17 12.7 C 33 %
1220 03-05-2020 11:13:17 13.5 C 32 %
1221 03-05-2020 11:23:17 14.4 C 31 %
1222 03-05-2020 11:33:17 14.5 C 30 %
1223 03-05-2020 11:43:18 14.8 C 28 %
1224 03-05-2020 11:53:18 14.5 C 25 %
1225 03-05-2020 12:03:18 14.5 C 25 %
Sensor: Nr:Datum:Temp:Feuchte:
Aussen-T/F 1226 03-05-2020 12:13:18 14.7 C 25 %
1227 03-05-2020 12:23:17 14.7 C 22 %
1228 03-05-2020 12:33:18 14.7 C 23 %
1229 03-05-2020 12:43:18 14.9 C 23 %
1230 03-05-2020 12:53:17 15.1 C 20 %
1231 03-05-2020 13:03:18 16.2 C 20 %
1232 03-05-2020 13:13:18 16.1 C 20 %
1233 03-05-2020 13:23:17 16.3 C 20 %
1234 03-05-2020 13:33:18 16.3 C 20 %
1235 03-05-2020 13:43:18 16.6 C 20 %
1236 03-05-2020 13:53:18 17 C 20 %
1237 03-05-2020 14:03:18 17.4 C 20 %
1238 03-05-2020 14:13:18 18.4 C 20 %
1239 03-05-2020 14:23:17 19.4 C 20 %
1240 03-05-2020 14:33:18 23.3 C 20 %
1241 03-05-2020 14:43:18 22.4 C 20 %
1242 03-05-2020 14:53:17 20.3 C 20 %
1243 03-05-2020 15:03:17 20.3 C 20 %
1244 03-05-2020 15:13:17 20.6 C 20 %
1245 03-05-2020 15:23:17 19.6 C 20 %
1246 03-05-2020 15:33:18 19 C 20 %
1247 03-05-2020 15:43:18 21.2 C 20 %
1248 03-05-2020 15:53:17 19.3 C 20 %
1249 03-05-2020 16:03:17 19 C 20 %
1250 03-05-2020 16:13:17 18.5 C 20 %
Sensor: Nr:Datum:Temp:Feuchte:
Aussen-T/F 1251 03-05-2020 16:23:17 17.9 C 20 %
1252 03-05-2020 16:33:18 17.9 C 20 %
1253 03-05-2020 16:43:18 18.9 C 20 %
1254 03-05-2020 16:53:17 18.2 C 20 %
1255 03-05-2020 17:03:17 17.8 C 20 %
1256 03-05-2020 17:13:17 18.1 C 20 %
1257 03-05-2020 17:23:18 17.2 C 20 %
1258 03-05-2020 17:33:17 17.6 C 20 %
1259 03-05-2020 17:43:17 17.6 C 20 %
1260 03-05-2020 17:53:18 17.3 C 20 %
1261 03-05-2020 18:03:18 16.9 C 20 %
1262 03-05-2020 18:13:18 16.9 C 20 %
1263 03-05-2020 18:23:17 17.2 C 20 %
1264 03-05-2020 18:33:17 16.7 C 20 %
1265 03-05-2020 18:43:17 17 C 20 %
1266 03-05-2020 18:53:17 16.7 C 20 %
1267 03-05-2020 19:03:17 16.2 C 20 %
1268 03-05-2020 19:13:17 15.7 C 21 %
1269 03-05-2020 19:23:17 15.6 C 22 %
1270 03-05-2020 19:33:18 15.2 C 27 %
1271 03-05-2020 19:43:18 14.1 C 29 %
1272 03-05-2020 19:53:17 13.8 C 30 %
1273 03-05-2020 20:03:17 13.3 C 30 %
1274 03-05-2020 20:13:17 13 C 30 %
1275 03-05-2020 20:23:17 12.8 C 31 %
Sensor: Nr:Datum:Temp:Feuchte:
Aussen-T/F 1276 03-05-2020 20:33:18 12.5 C 31 %
1277 03-05-2020 20:43:18 12.4 C 31 %
1278 03-05-2020 20:53:17 12.3 C 32 %
1279 03-05-2020 21:03:17 12.1 C 32 %
1280 03-05-2020 21:13:17 12.1 C 32 %
1281 03-05-2020 21:23:17 12 C 32 %
1282 03-05-2020 21:33:17 12.1 C 32 %
1283 03-05-2020 21:43:18 12 C 32 %
1284 03-05-2020 21:53:17 12 C 33 %
1285 03-05-2020 22:03:18 12 C 33 %
1286 03-05-2020 22:13:18 11.8 C 34 %
1287 03-05-2020 22:23:17 11.8 C 34 %
1288 03-05-2020 22:33:17 11.7 C 34 %
1289 03-05-2020 22:43:17 11.6 C 34 %
1290 03-05-2020 22:53:18 11.4 C 35 %
1291 03-05-2020 23:03:17 11.3 C 35 %
1292 03-05-2020 23:13:17 11.2 C 34 %
1293 03-05-2020 23:23:17 11.4 C 35 %
1294 03-05-2020 23:33:17 11.4 C 34 %
1295 03-05-2020 23:43:17 11.3 C 35 %
1296 03-05-2020 23:53:17 11.4 C 35 %
1297 04-05-2020 00:03:17 11.4 C 35 %
1298 04-05-2020 00:13:17 11.2 C 35 %
1299 04-05-2020 00:23:17 11 C 36 %
1300 04-05-2020 00:33:18 11 C 36 %
Sensor: Nr:Datum:Temp:Feuchte:
Aussen-T/F 1301 04-05-2020 00:43:18 11.1 C 36 %
1302 04-05-2020 00:53:17 11 C 36 %
1303 04-05-2020 01:03:17 10.9 C 36 %
1304 04-05-2020 01:13:17 10.8 C 36 %
1305 04-05-2020 01:23:17 11.1 C 35 %
1306 04-05-2020 01:33:17 11 C 35 %
1307 04-05-2020 01:43:17 11.1 C 35 %
1308 04-05-2020 01:53:17 11 C 35 %
1309 04-05-2020 02:03:17 10.8 C 37 %
1310 04-05-2020 02:13:17 10.8 C 36 %
1311 04-05-2020 02:23:17 10.6 C 37 %
1312 04-05-2020 02:33:18 10.7 C 36 %
1313 04-05-2020 02:43:18 10.7 C 37 %
1314 04-05-2020 02:53:17 10.1 C 37 %
1315 04-05-2020 03:03:17 9.9 C 37 %
1316 04-05-2020 03:13:17 9.7 C 37 %
1317 04-05-2020 03:23:17 9.4 C 38 %
1318 04-05-2020 03:33:17 9.1 C 39 %
1319 04-05-2020 03:43:17 9.1 C 38 %
1320 04-05-2020 03:53:18 8.8 C 39 %
1321 04-05-2020 04:03:17 8.5 C 40 %
1322 04-05-2020 04:13:17 8.6 C 40 %
1323 04-05-2020 04:23:17 8.8 C 40 %
1324 04-05-2020 04:33:17 9 C 40 %
1325 04-05-2020 04:43:17 9.2 C 40 %
Sensor: Nr:Datum:Temp:Feuchte:
Aussen-T/F 1326 04-05-2020 04:53:18 9.3 C 40 %
1327 04-05-2020 05:03:17 9.5 C 39 %
1328 04-05-2020 05:13:17 9.6 C 40 %
1329 04-05-2020 05:23:17 9.6 C 39 %
1330 04-05-2020 05:33:18 9.8 C 39 %
1331 04-05-2020 05:43:18 9.7 C 39 %
1332 04-05-2020 05:53:17 9.7 C 39 %
1333 04-05-2020 06:03:18 9.6 C 40 %
1334 04-05-2020 06:13:18 9.6 C 40 %
1335 04-05-2020 06:23:18 9.6 C 40 %
1336 04-05-2020 06:33:17 9.6 C 40 %
1337 04-05-2020 06:43:17 9.5 C 40 %
1338 04-05-2020 06:53:17 9.6 C 40 %
1339 04-05-2020 07:03:17 9.8 C 40 %
1340 04-05-2020 07:13:17 10.1 C 40 %
1341 04-05-2020 07:23:17 10.6 C 39 %
1342 04-05-2020 07:33:17 11.2 C 37 %
1343 04-05-2020 07:43:18 11.4 C 36 %
1344 04-05-2020 07:53:17 11.3 C 37 %
1345 04-05-2020 08:03:17 10.8 C 40 %
1346 04-05-2020 08:13:17 10.6 C 41 %
1347 04-05-2020 08:23:17 10.7 C 43 %
1348 04-05-2020 08:33:17 11 C 42 %
1349 04-05-2020 08:43:18 11.3 C 42 %
1350 04-05-2020 08:53:17 11.2 C 41 %
Sensor: Nr:Datum:Temp:Feuchte:
Aussen-T/F 1351 04-05-2020 09:03:18 11.2 C 41 %
1352 04-05-2020 09:13:18 11.3 C 41 %
1353 04-05-2020 09:23:18 11.3 C 42 %
1354 04-05-2020 09:33:17 11.3 C 43 %
1355 04-05-2020 09:43:17 11.5 C 41 %
1356 04-05-2020 09:53:17 12.3 C 39 %
1357 04-05-2020 10:03:18 13 C 37 %
1358 04-05-2020 10:13:18 14 C 36 %
1359 04-05-2020 10:23:17 13.6 C 36 %
1360 04-05-2020 10:33:18 14.8 C 35 %
1361 04-05-2020 10:43:18 14.3 C 35 %
1362 04-05-2020 10:53:17 14.2 C 36 %
1363 04-05-2020 11:03:17 13.4 C 37 %
1364 04-05-2020 11:13:17 13.2 C 38 %
1365 04-05-2020 11:23:17 13 C 39 %
1366 04-05-2020 11:33:18 12.4 C 40 %
1367 04-05-2020 11:43:18 12.2 C 40 %
1368 04-05-2020 11:53:17 12 C 41 %
1369 04-05-2020 12:03:17 11.9 C 41 %
1370 04-05-2020 12:13:17 12.3 C 40 %
1371 04-05-2020 12:23:17 13.1 C 38 %
1372 04-05-2020 12:33:17 13.8 C 36 %
1373 04-05-2020 12:43:17 13.5 C 37 %
1374 04-05-2020 12:53:17 14.4 C 36 %
1375 04-05-2020 13:03:18 14.5 C 35 %
Sensor: Nr:Datum:Temp:Feuchte:
Aussen-T/F 1376 04-05-2020 13:13:18 15.6 C 34 %
1377 04-05-2020 13:23:17 16 C 32 %
1378 04-05-2020 13:33:17 16.4 C 32 %
1379 04-05-2020 13:43:17 16.3 C 31 %
1380 04-05-2020 13:53:17 15.3 C 32 %
1381 04-05-2020 14:03:17 15 C 32 %
1382 04-05-2020 14:13:17 15.6 C 33 %
1383 04-05-2020 14:23:17 16.2 C 31 %
1384 04-05-2020 14:33:17 15.9 C 31 %
1385 04-05-2020 14:43:17 15.3 C 31 %
1386 04-05-2020 14:53:17 15.2 C 32 %
1387 04-05-2020 15:03:17 14.4 C 34 %
1388 04-05-2020 15:13:17 14.4 C 34 %
1389 04-05-2020 15:23:17 14.8 C 33 %
1390 04-05-2020 15:33:17 14.5 C 33 %
1391 04-05-2020 15:43:17 15.4 C 31 %
1392 04-05-2020 15:53:17 15.8 C 31 %
1393 04-05-2020 16:03:18 16 C 30 %
1394 04-05-2020 16:13:18 15.9 C 30 %
1395 04-05-2020 16:23:17 15.2 C 30 %
1396 04-05-2020 16:33:17 14.4 C 30 %
1397 04-05-2020 16:43:17 15 C 30 %
1398 04-05-2020 16:53:18 14.9 C 30 %
1399 04-05-2020 17:03:18 14.8 C 31 %
1400 04-05-2020 17:13:18 14.4 C 31 %
Sensor: Nr:Datum:Temp:Feuchte:
Aussen-T/F 1401 04-05-2020 17:23:17 14.7 C 30 %
1402 04-05-2020 17:33:18 14.4 C 31 %
1403 04-05-2020 17:43:18 14.2 C 30 %
1404 04-05-2020 17:53:17 14.4 C 30 %
1405 04-05-2020 18:03:17 14.7 C 30 %
1406 04-05-2020 18:13:17 14.4 C 30 %
1407 04-05-2020 18:23:17 14 C 30 %
1408 04-05-2020 18:33:17 13.8 C 31 %
1409 04-05-2020 18:43:17 13.7 C 31 %
1410 04-05-2020 18:53:17 13.7 C 30 %
1411 04-05-2020 19:03:17 13.7 C 31 %
1412 04-05-2020 19:13:17 13.4 C 32 %
1413 04-05-2020 19:23:17 13.1 C 33 %
1414 04-05-2020 19:33:17 13 C 33 %
1415 04-05-2020 19:43:17 12.8 C 34 %
1416 04-05-2020 19:53:17 12.7 C 35 %
1417 04-05-2020 20:03:18 12.7 C 35 %
1418 04-05-2020 20:13:18 12.6 C 36 %
1419 04-05-2020 20:23:17 12.2 C 36 %
1420 04-05-2020 20:33:17 11.7 C 37 %
1421 04-05-2020 20:43:18 11.8 C 35 %
1422 04-05-2020 20:53:17 11.4 C 36 %
1423 04-05-2020 21:03:17 10.8 C 36 %
1424 04-05-2020 21:13:17 10.4 C 36 %
1425 04-05-2020 21:23:18 9.9 C 36 %
Sensor: Nr:Datum:Temp:Feuchte:
Aussen-T/F 1426 04-05-2020 21:33:17 9.6 C 36 %
1427 04-05-2020 21:43:17 9.1 C 37 %
1428 04-05-2020 21:53:17 8.6 C 37 %
1429 04-05-2020 22:03:17 8.5 C 37 %
1430 04-05-2020 22:13:17 8.3 C 37 %
1431 04-05-2020 22:23:17 7.7 C 40 %
1432 04-05-2020 22:33:17 7.3 C 40 %
1433 04-05-2020 22:43:17 7 C 41 %
1434 04-05-2020 22:53:17 6.9 C 42 %
1435 04-05-2020 23:03:17 6.5 C 42 %
1436 04-05-2020 23:13:17 6.3 C 42 %
1437 04-05-2020 23:23:17 6.4 C 42 %
1438 04-05-2020 23:33:17 6.5 C 41 %
1439 04-05-2020 23:43:17 6.3 C 41 %
1440 04-05-2020 23:53:17 6.1 C 42 %
1441 05-05-2020 00:03:17 6.1 C 41 %
1442 05-05-2020 00:13:17 5.9 C 42 %
1443 05-05-2020 00:23:17 5.8 C 43 %
1444 05-05-2020 00:33:18 5.5 C 43 %
1445 05-05-2020 00:43:18 5.4 C 45 %
1446 05-05-2020 00:53:17 5.4 C 44 %
1447 05-05-2020 01:03:18 5.1 C 44 %
1448 05-05-2020 01:13:18 5 C 45 %
1449 05-05-2020 01:23:18 4.8 C 45 %
1450 05-05-2020 01:33:17 4.7 C 46 %
Sensor: Nr:Datum:Temp:Feuchte:
Aussen-T/F 1451 05-05-2020 01:43:17 4.6 C 45 %
1452 05-05-2020 01:53:18 4.3 C 46 %
1453 05-05-2020 02:03:18 4.2 C 46 %
1454 05-05-2020 02:13:18 4.2 C 46 %
1455 05-05-2020 02:23:17 4.2 C 47 %
1456 05-05-2020 02:33:17 4.1 C 46 %
1457 05-05-2020 02:43:17 4 C 47 %
1458 05-05-2020 02:53:17 4 C 47 %
1459 05-05-2020 03:03:17 3.9 C 48 %
1460 05-05-2020 03:13:18 4.4 C 47 %
1461 05-05-2020 03:23:17 4.4 C 47 %
1462 05-05-2020 03:33:18 4.2 C 46 %
1463 05-05-2020 03:43:18 4.2 C 47 %
1464 05-05-2020 03:53:18 4.1 C 47 %
1465 05-05-2020 04:03:17 4 C 47 %
1466 05-05-2020 04:13:17 3.8 C 47 %
1467 05-05-2020 04:23:17 3.7 C 47 %
1468 05-05-2020 04:33:17 3.7 C 47 %
1469 05-05-2020 04:43:18 3.6 C 47 %
1470 05-05-2020 04:53:17 3.5 C 47 %
1471 05-05-2020 05:03:18 3.4 C 47 %
1472 05-05-2020 05:13:18 3.6 C 47 %
1473 05-05-2020 05:23:17 3.7 C 47 %
1474 05-05-2020 05:33:17 3.6 C 47 %
1475 05-05-2020 05:43:17 3.5 C 47 %
Sensor: Nr:Datum:Temp:Feuchte:
Aussen-T/F 1476 05-05-2020 05:53:17 3.5 C 47 %
1477 05-05-2020 06:03:17 3.6 C 47 %
1478 05-05-2020 06:13:17 3.6 C 47 %
1479 05-05-2020 06:23:17 3.8 C 47 %
1480 05-05-2020 06:33:17 4.1 C 46 %
1481 05-05-2020 06:43:17 4.2 C 46 %
1482 05-05-2020 06:53:17 4.3 C 46 %
1483 05-05-2020 07:03:17 4.6 C 46 %
1484 05-05-2020 07:13:17 4.9 C 46 %
1485 05-05-2020 07:23:18 4.9 C 46 %
1486 05-05-2020 07:33:17 5.3 C 46 %
1487 05-05-2020 07:43:17 5.7 C 46 %
1488 05-05-2020 07:53:17 6 C 45 %
1489 05-05-2020 08:03:17 6.3 C 45 %
1490 05-05-2020 08:13:17 6.4 C 44 %
1491 05-05-2020 08:23:17 6.9 C 43 %
1492 05-05-2020 08:33:17 6.9 C 42 %
1493 05-05-2020 08:43:17 6.9 C 42 %
1494 05-05-2020 08:53:17 7.1 C 41 %
1495 05-05-2020 09:03:17 7.4 C 40 %
1496 05-05-2020 09:13:17 7.9 C 39 %
1497 05-05-2020 09:23:17 8.1 C 39 %
1498 05-05-2020 09:33:17 8.6 C 38 %
1499 05-05-2020 09:43:18 9.1 C 37 %
1500 05-05-2020 09:53:17 9.3 C 36 %
Sensor: Nr:Datum:Temp:Feuchte:
Aussen-T/F 1501 05-05-2020 10:03:17 9.5 C 36 %
1502 05-05-2020 10:13:17 10 C 34 %
1503 05-05-2020 10:23:18 10.1 C 33 %
1504 05-05-2020 10:33:17 10.5 C 32 %
1505 05-05-2020 10:43:17 11 C 31 %
1506 05-05-2020 10:53:17 11.3 C 31 %
1507 05-05-2020 11:03:17 12.1 C 29 %
1508 05-05-2020 11:13:17 12.2 C 28 %
1509 05-05-2020 11:23:18 13.1 C 27 %
1510 05-05-2020 11:33:18 13.1 C 26 %
1511 05-05-2020 11:43:18 13.4 C 26 %
1512 05-05-2020 11:53:17 13.7 C 26 %
1513 05-05-2020 12:03:18 13.7 C 25 %
1514 05-05-2020 12:13:18 14.5 C 25 %
1515 05-05-2020 12:23:17 13.9 C 25 %
1516 05-05-2020 12:33:18 13.5 C 25 %
1517 05-05-2020 12:43:18 13.7 C 25 %
1518 05-05-2020 12:53:17 13.7 C 25 %
1519 05-05-2020 13:03:18 13.9 C 25 %
1520 05-05-2020 13:13:18 14.2 C 25 %
1521 05-05-2020 13:23:18 14.5 C 24 %
1522 05-05-2020 13:33:17 15.8 C 22 %
1523 05-05-2020 13:43:17 15.9 C 21 %
1524 05-05-2020 13:53:17 16.4 C 20 %
1525 05-05-2020 14:03:17 15.3 C 20 %
Sensor: Nr:Datum:Temp:Feuchte:
Aussen-T/F 1526 05-05-2020 14:13:17 16 C 20 %
1527 05-05-2020 14:23:17 21.9 C 20 %
1528 05-05-2020 14:33:17 23.5 C 20 %
1529 05-05-2020 14:43:17 24.9 C 20 %
1530 05-05-2020 14:53:17 23.7 C 20 %
1531 05-05-2020 15:03:17 21.4 C 20 %
1532 05-05-2020 15:13:17 23.8 C 20 %
1533 05-05-2020 15:23:17 24.3 C 20 %
1534 05-05-2020 15:33:17 25.4 C 20 %
1535 05-05-2020 15:43:17 21.3 C 20 %
1536 05-05-2020 15:53:17 22.1 C 20 %
1537 05-05-2020 16:03:18 25 C 20 %
1538 05-05-2020 16:13:18 21.3 C 20 %
1539 05-05-2020 16:23:17 24.8 C 20 %
1540 05-05-2020 16:33:17 25.9 C 20 %
1541 05-05-2020 16:43:18 24.4 C 20 %
1542 05-05-2020 16:53:17 24.7 C 20 %
1543 05-05-2020 17:03:17 22.1 C 20 %
1544 05-05-2020 17:13:17 25.1 C 20 %
1545 05-05-2020 17:23:17 24.2 C 20 %
1546 05-05-2020 17:33:18 23.7 C 20 %
1547 05-05-2020 17:43:18 23.3 C 20 %
1548 05-05-2020 17:53:17 21.2 C 20 %
1549 05-05-2020 18:03:17 20 C 20 %
1550 05-05-2020 18:13:17 18.4 C 20 %
Sensor: Nr:Datum:Temp:Feuchte:
Aussen-T/F 1551 05-05-2020 18:23:17 17.4 C 20 %
1552 05-05-2020 18:33:18 17.6 C 20 %
1553 05-05-2020 18:43:18 16.8 C 20 %
1554 05-05-2020 18:53:17 16.9 C 20 %
1555 05-05-2020 19:03:17 17.1 C 20 %
1556 05-05-2020 19:13:17 16.5 C 20 %
1557 05-05-2020 19:23:17 16.2 C 20 %
1558 05-05-2020 19:33:17 16 C 20 %
1559 05-05-2020 19:43:18 15.7 C 20 %
1560 05-05-2020 19:53:17 15.5 C 20 %
1561 05-05-2020 20:03:18 15.2 C 20 %
1562 05-05-2020 20:13:18 15.1 C 20 %
1563 05-05-2020 20:23:17 14.6 C 20 %
1564 05-05-2020 20:33:17 14.2 C 20 %
1565 05-05-2020 20:43:17 13.8 C 20 %
1566 05-05-2020 20:53:17 12.8 C 20 %
1567 05-05-2020 21:03:17 11.3 C 21 %
1568 05-05-2020 21:13:17 11 C 23 %
1569 05-05-2020 21:23:17 10.7 C 21 %
1570 05-05-2020 21:33:17 10.3 C 25 %
1571 05-05-2020 21:43:17 10.1 C 22 %
1572 05-05-2020 21:53:17 9.8 C 25 %
1573 05-05-2020 22:03:17 9.7 C 25 %
1574 05-05-2020 22:13:17 9.3 C 26 %
1575 05-05-2020 22:23:17 9.4 C 26 %
Sensor: Nr:Datum:Temp:Feuchte:
Aussen-T/F 1576 05-05-2020 22:33:17 9.2 C 26 %
1577 05-05-2020 22:43:17 9.1 C 26 %
1578 05-05-2020 22:53:18 9.1 C 26 %
1579 05-05-2020 23:03:17 8.7 C 27 %
1580 05-05-2020 23:13:17 8.6 C 27 %
1581 05-05-2020 23:23:18 8.2 C 27 %
1582 05-05-2020 23:33:18 8 C 27 %
1583 05-05-2020 23:43:18 7.5 C 29 %
1584 05-05-2020 23:53:18 7.6 C 29 %
1585 06-05-2020 00:03:18 7.5 C 29 %
1586 06-05-2020 00:13:18 7.4 C 30 %
1587 06-05-2020 00:23:18 7 C 30 %
1588 06-05-2020 00:33:17 6.8 C 31 %
1589 06-05-2020 00:43:17 6.4 C 33 %
1590 06-05-2020 00:53:17 6 C 33 %
1591 06-05-2020 01:03:17 5.9 C 34 %
1592 06-05-2020 01:13:17 5.7 C 35 %
1593 06-05-2020 01:23:17 5 C 36 %
1594 06-05-2020 01:33:17 4.7 C 37 %
1595 06-05-2020 01:43:17 4.3 C 38 %
1596 06-05-2020 01:53:18 4.2 C 38 %
1597 06-05-2020 02:03:17 4 C 39 %
1598 06-05-2020 02:13:17 3.7 C 40 %
1599 06-05-2020 02:23:17 3.7 C 40 %
1600 06-05-2020 02:33:18 3.6 C 40 %
Sensor: Nr:Datum:Temp:Feuchte:
Aussen-T/F 1601 06-05-2020 02:43:18 3.4 C 40 %
1602 06-05-2020 02:53:17 3.1 C 41 %
1603 06-05-2020 03:03:17 3.1 C 41 %
1604 06-05-2020 03:13:17 2.8 C 42 %
1605 06-05-2020 03:23:17 2.8 C 42 %
1606 06-05-2020 03:33:17 2.5 C 42 %
1607 06-05-2020 03:43:17 2.3 C 43 %
1608 06-05-2020 03:53:18 2.3 C 43 %
1609 06-05-2020 04:03:17 2.4 C 43 %
1610 06-05-2020 04:13:17 2.2 C 43 %
1611 06-05-2020 04:23:17 2.4 C 44 %
1612 06-05-2020 04:33:18 2.3 C 43 %
1613 06-05-2020 04:43:18 2 C 44 %
1614 06-05-2020 04:53:17 2 C 44 %
1615 06-05-2020 05:03:17 2.1 C 45 %
1616 06-05-2020 05:13:17 1.8 C 45 %
1617 06-05-2020 05:23:17 1.8 C 46 %
1618 06-05-2020 05:33:17 1.8 C 47 %
1619 06-05-2020 05:43:17 1.7 C 46 %
1620 06-05-2020 05:53:18 1.5 C 46 %
1621 06-05-2020 06:03:18 1.5 C 46 %
1622 06-05-2020 06:13:18 1.4 C 46 %
1623 06-05-2020 06:23:17 1.4 C 47 %
1624 06-05-2020 06:33:17 1.4 C 47 %
1625 06-05-2020 06:43:17 1.5 C 47 %
Sensor: Nr:Datum:Temp:Feuchte:
Aussen-T/F 1626 06-05-2020 06:53:17 1.6 C 47 %
1627 06-05-2020 07:03:17 1.7 C 47 %
1628 06-05-2020 07:13:17 1.8 C 47 %
1629 06-05-2020 07:23:17 2 C 47 %
1630 06-05-2020 07:33:17 2.2 C 45 %
1631 06-05-2020 07:43:17 2.4 C 46 %
1632 06-05-2020 07:53:17 2.6 C 46 %
1633 06-05-2020 08:03:18 2.8 C 45 %
1634 06-05-2020 08:13:18 3 C 44 %
1635 06-05-2020 08:23:17 3.6 C 44 %
1636 06-05-2020 08:33:17 3.7 C 44 %
1637 06-05-2020 08:43:17 4.1 C 43 %
1638 06-05-2020 08:53:18 4.7 C 42 %
1639 06-05-2020 09:03:17 5.1 C 41 %
1640 06-05-2020 09:13:18 5.7 C 41 %
1641 06-05-2020 09:23:17 6.5 C 40 %
1642 06-05-2020 09:33:17 6.8 C 39 %
1643 06-05-2020 09:43:17 7.5 C 38 %
1644 06-05-2020 09:53:17 7.8 C 37 %
1645 06-05-2020 10:03:18 8.3 C 37 %
1646 06-05-2020 10:13:18 9 C 35 %
1647 06-05-2020 10:23:17 9.9 C 31 %
1648 06-05-2020 10:33:18 11.7 C 25 %
1649 06-05-2020 10:43:18 12.3 C 20 %
1650 06-05-2020 10:53:17 12.4 C 20 %
Sensor: Nr:Datum:Temp:Feuchte:
Aussen-T/F 1651 06-05-2020 11:03:17 12.9 C 20 %
1652 06-05-2020 11:13:17 13.1 C 20 %
1653 06-05-2020 11:23:17 13.6 C 20 %
1654 06-05-2020 11:33:17 13.7 C 20 %
1655 06-05-2020 11:43:18 13.6 C 20 %
1656 06-05-2020 11:53:17 13.9 C 20 %
1657 06-05-2020 12:03:17 13.8 C 20 %
1658 06-05-2020 12:13:17 13.8 C 20 %
1659 06-05-2020 12:23:18 14 C 20 %
1660 06-05-2020 12:33:18 14.1 C 20 %
1661 06-05-2020 12:43:18 13.8 C 20 %
1662 06-05-2020 12:53:17 14.2 C 20 %
1663 06-05-2020 13:03:18 14.3 C 20 %
1664 06-05-2020 13:13:18 14.2 C 20 %
1665 06-05-2020 13:23:18 14.6 C 20 %
1666 06-05-2020 13:33:17 14.8 C 20 %
1667 06-05-2020 13:43:18 14.8 C 20 %
1668 06-05-2020 13:53:17 15.6 C 20 %
1669 06-05-2020 14:03:18 18.6 C 20 %
1670 06-05-2020 14:13:18 20.6 C 20 %
1671 06-05-2020 14:23:17 23.8 C 20 %
1672 06-05-2020 14:33:17 23.1 C 20 %
1673 06-05-2020 14:43:17 23.1 C 20 %
1674 06-05-2020 14:53:17 24.2 C 20 %
1675 06-05-2020 15:03:17 24.4 C 20 %
Sensor: Nr:Datum:Temp:Feuchte:
Aussen-T/F 1676 06-05-2020 15:13:17 26.3 C 20 %
1677 06-05-2020 15:23:17 22.6 C 20 %
1678 06-05-2020 15:33:17 26.1 C 20 %
1679 06-05-2020 15:43:17 23.6 C 20 %
1680 06-05-2020 15:53:17 24.9 C 20 %
1681 06-05-2020 16:03:18 24.5 C 20 %
1682 06-05-2020 16:13:18 25.9 C 20 %
1683 06-05-2020 16:23:17 25.5 C 20 %
1684 06-05-2020 16:33:17 26.9 C 20 %
1685 06-05-2020 16:43:17 24.7 C 20 %
1686 06-05-2020 16:53:17 24.5 C 20 %
1687 06-05-2020 17:03:17 26.3 C 20 %
1688 06-05-2020 17:13:17 23.5 C 20 %
1689 06-05-2020 17:23:17 24.9 C 20 %
1690 06-05-2020 17:33:17 24.1 C 20 %
1691 06-05-2020 17:43:17 24.5 C 20 %
1692 06-05-2020 17:53:18 25.2 C 20 %
1693 06-05-2020 18:03:18 24.7 C 20 %
1694 06-05-2020 18:13:18 20.4 C 20 %
1695 06-05-2020 18:23:18 20.3 C 20 %
1696 06-05-2020 18:33:17 19.6 C 20 %
1697 06-05-2020 18:43:17 19.1 C 20 %
1698 06-05-2020 18:53:17 18.7 C 20 %
1699 06-05-2020 19:03:18 18.4 C 20 %
1700 06-05-2020 19:13:18 18.1 C 20 %
Sensor: Nr:Datum:Temp:Feuchte:
Aussen-T/F 1701 06-05-2020 19:23:18 18.2 C 20 %
1702 06-05-2020 19:33:17 17.7 C 20 %
1703 06-05-2020 19:43:18 17.4 C 20 %
1704 06-05-2020 19:53:17 17.2 C 20 %
1705 06-05-2020 20:03:17 16.6 C 20 %
1706 06-05-2020 20:13:17 16 C 20 %
1707 06-05-2020 20:23:17 14.8 C 20 %
1708 06-05-2020 20:33:18 14 C 20 %
1709 06-05-2020 20:43:18 13.5 C 20 %
1710 06-05-2020 20:53:17 13 C 20 %
1711 06-05-2020 21:03:17 12.8 C 20 %
1712 06-05-2020 21:13:17 12.4 C 20 %
1713 06-05-2020 21:23:18 11.9 C 25 %
1714 06-05-2020 21:33:17 10.9 C 27 %
1715 06-05-2020 21:43:17 10.5 C 29 %
1716 06-05-2020 21:53:17 9.7 C 31 %
1717 06-05-2020 22:03:18 9.4 C 31 %
1718 06-05-2020 22:13:18 9.4 C 30 %
1719 06-05-2020 22:23:17 9.1 C 32 %
1720 06-05-2020 22:33:18 9 C 31 %
1721 06-05-2020 22:43:18 8.6 C 32 %
1722 06-05-2020 22:53:17 8.2 C 33 %
1723 06-05-2020 23:03:17 8.1 C 33 %
1724 06-05-2020 23:13:18 7.7 C 35 %
1725 06-05-2020 23:23:17 7.2 C 35 %
Sensor: Nr:Datum:Temp:Feuchte:
Aussen-T/F 1726 06-05-2020 23:33:17 6.9 C 36 %
1727 06-05-2020 23:43:17 6.8 C 36 %
1728 06-05-2020 23:53:17 6.6 C 36 %
1729 07-05-2020 00:03:17 6.4 C 36 %
1730 07-05-2020 00:13:17 6.4 C 37 %
1731 07-05-2020 00:23:17 6.1 C 37 %
1732 07-05-2020 00:33:18 6.1 C 37 %
1733 07-05-2020 00:43:18 6.1 C 37 %
1734 07-05-2020 00:53:17 6.3 C 37 %
1735 07-05-2020 01:03:18 6.2 C 37 %
1736 07-05-2020 01:13:18 6.2 C 37 %
1737 07-05-2020 01:23:17 6 C 37 %
1738 07-05-2020 01:33:18 5.9 C 38 %
1739 07-05-2020 01:43:18 5.9 C 38 %
1740 07-05-2020 01:53:17 5.2 C 39 %
1741 07-05-2020 02:03:17 5.2 C 39 %
1742 07-05-2020 02:13:17 5.2 C 39 %
1743 07-05-2020 02:23:18 5.1 C 40 %
1744 07-05-2020 02:33:17 4.8 C 40 %
1745 07-05-2020 02:43:17 4.7 C 40 %
1746 07-05-2020 02:53:17 4.6 C 41 %
1747 07-05-2020 03:03:17 4.6 C 41 %
1748 07-05-2020 03:13:18 4.5 C 41 %
1749 07-05-2020 03:23:17 4.3 C 41 %
1750 07-05-2020 03:33:17 4.4 C 41 %
Sensor: Nr:Datum:Temp:Feuchte:
Aussen-T/F 1751 07-05-2020 03:43:17 4.1 C 41 %
1752 07-05-2020 03:53:17 4.2 C 42 %
1753 07-05-2020 04:03:17 4.2 C 42 %
1754 07-05-2020 04:13:17 4 C 42 %
1755 07-05-2020 04:23:18 3.7 C 43 %
1756 07-05-2020 04:33:17 3.6 C 43 %
1757 07-05-2020 04:43:17 3.3 C 43 %
1758 07-05-2020 04:53:17 3.2 C 44 %
1759 07-05-2020 05:03:17 3.2 C 45 %
1760 07-05-2020 05:13:17 3.3 C 45 %
1761 07-05-2020 05:23:17 3 C 44 %
1762 07-05-2020 05:33:17 3.1 C 45 %
1763 07-05-2020 05:43:17 3 C 45 %
1764 07-05-2020 05:53:17 3.1 C 45 %
1765 07-05-2020 06:03:17 3 C 45 %
1766 07-05-2020 06:13:17 2.9 C 45 %
1767 07-05-2020 06:23:17 2.9 C 46 %
1768 07-05-2020 06:33:17 2.9 C 46 %
1769 07-05-2020 06:43:17 2.7 C 46 %
1770 07-05-2020 06:53:18 3 C 46 %
1771 07-05-2020 07:03:17 3 C 45 %
1772 07-05-2020 07:13:17 3 C 45 %
1773 07-05-2020 07:23:17 3.2 C 46 %
1774 07-05-2020 07:33:17 3.4 C 46 %
1775 07-05-2020 07:43:17 3.6 C 45 %
Sensor: Nr:Datum:Temp:Feuchte:
Aussen-T/F 1776 07-05-2020 07:53:17 3.8 C 44 %
1777 07-05-2020 08:03:17 3.9 C 44 %
1778 07-05-2020 08:13:17 4.2 C 43 %
1779 07-05-2020 08:23:17 4.5 C 43 %
1780 07-05-2020 08:33:18 4.6 C 43 %
1781 07-05-2020 08:43:18 5.1 C 41 %
1782 07-05-2020 08:53:17 5.2 C 41 %
1783 07-05-2020 09:03:17 5.8 C 41 %
1784 07-05-2020 09:13:17 6.2 C 41 %
1785 07-05-2020 09:23:17 6.7 C 41 %
1786 07-05-2020 09:33:18 7.5 C 40 %
1787 07-05-2020 09:43:18 8.6 C 38 %
1788 07-05-2020 09:53:17 8.8 C 38 %
1789 07-05-2020 10:03:17 9.3 C 37 %
1790 07-05-2020 10:13:17 9.8 C 36 %
1791 07-05-2020 10:23:17 10.3 C 35 %
1792 07-05-2020 10:33:17 11.3 C 35 %
1793 07-05-2020 10:43:17 11.9 C 34 %
1794 07-05-2020 10:53:17 13.4 C 30 %
1795 07-05-2020 11:03:17 14.2 C 26 %
1796 07-05-2020 11:13:17 14.7 C 28 %
1797 07-05-2020 11:23:17 15.3 C 25 %
1798 07-05-2020 11:33:17 15.4 C 25 %
1799 07-05-2020 11:43:17 15.9 C 25 %
1800 07-05-2020 11:53:17 16.2 C 22 %
Sensor: Nr:Datum:Temp:Feuchte:
Aussen-T/F 1801 07-05-2020 12:03:17 16.6 C 20 %
1802 07-05-2020 12:13:17 16.8 C 20 %
1803 07-05-2020 12:23:17 16.9 C 20 %
1804 07-05-2020 12:33:17 17 C 20 %
1805 07-05-2020 12:43:18 17 C 20 %
1806 07-05-2020 12:53:17 17.3 C 20 %
1807 07-05-2020 13:03:17 17.5 C 20 %
1808 07-05-2020 13:13:17 17.6 C 20 %
1809 07-05-2020 13:23:17 17.6 C 20 %
1810 07-05-2020 13:33:17 18.2 C 20 %
1811 07-05-2020 13:43:17 18.5 C 20 %
1812 07-05-2020 13:54:17 20.1 C 20 %
1813 07-05-2020 14:03:17 23.3 C 20 %
1814 07-05-2020 14:13:17 25.2 C 20 %
1815 07-05-2020 14:23:17 27.5 C 20 %
1816 07-05-2020 14:33:17 28.2 C 20 %
1817 07-05-2020 14:43:17 28.7 C 20 %
1818 07-05-2020 14:54:17 28.4 C 20 %
1819 07-05-2020 15:03:18 28.7 C 20 %
1820 07-05-2020 15:13:18 27.9 C 20 %
1821 07-05-2020 15:23:17 28.5 C 20 %
1822 07-05-2020 15:33:18 30.2 C 20 %
1823 07-05-2020 15:43:18 29.3 C 20 %
1824 07-05-2020 15:53:17 30 C 20 %
1825 07-05-2020 16:03:17 30.1 C 20 %
Sensor: Nr:Datum:Temp:Feuchte:
Aussen-T/F 1826 07-05-2020 16:13:17 31.3 C 20 %
1827 07-05-2020 16:24:17 28.8 C 20 %
1828 07-05-2020 16:33:17 29.5 C 20 %
1829 07-05-2020 16:43:17 31.1 C 20 %
1830 07-05-2020 16:54:17 31.3 C 20 %
1831 07-05-2020 17:03:17 29 C 20 %
1832 07-05-2020 17:13:17 29.3 C 20 %
1833 07-05-2020 17:23:17 28.6 C 20 %
1834 07-05-2020 17:33:17 30.2 C 20 %
1835 07-05-2020 17:43:17 27.4 C 20 %
1836 07-05-2020 17:53:17 27.9 C 20 %
1837 07-05-2020 18:04:17 27.4 C 20 %
1838 07-05-2020 18:13:17 24.5 C 20 %
1839 07-05-2020 18:23:17 23.3 C 20 %
1840 07-05-2020 18:33:17 23.5 C 20 %
1841 07-05-2020 18:43:18 22.8 C 20 %
1842 07-05-2020 18:54:17 22.1 C 20 %
1843 07-05-2020 19:03:17 22.2 C 20 %
1844 07-05-2020 19:13:18 22.1 C 20 %
1845 07-05-2020 19:24:17 22 C 20 %
1846 07-05-2020 19:33:17 21.4 C 20 %
1847 07-05-2020 19:43:17 20.2 C 20 %
1848 07-05-2020 19:54:17 19.3 C 20 %
1849 07-05-2020 20:03:18 18.7 C 20 %
1850 07-05-2020 20:13:18 18.1 C 20 %
Sensor: Nr:Datum:Temp:Feuchte:
Aussen-T/F 1851 07-05-2020 20:24:17 17.5 C 20 %
1852 07-05-2020 20:34:17 17.1 C 20 %
1853 07-05-2020 20:44:17 16.5 C 20 %
1854 07-05-2020 20:54:17 16.2 C 20 %
1855 07-05-2020 21:04:17 16 C 20 %
1856 07-05-2020 21:14:17 15.4 C 21 %
1857 07-05-2020 21:24:17 15 C 22 %
1858 07-05-2020 21:34:17 14.6 C 25 %
1859 07-05-2020 21:43:17 14.2 C 25 %
1860 07-05-2020 21:54:17 13.7 C 26 %
1861 07-05-2020 22:04:17 13.2 C 27 %
1862 07-05-2020 22:14:17 13.2 C 27 %
1863 07-05-2020 22:24:17 12.8 C 30 %
1864 07-05-2020 22:34:17 12.3 C 30 %
1865 07-05-2020 22:44:17 12.3 C 30 %
1866 07-05-2020 22:53:18 12.2 C 30 %
1867 07-05-2020 23:04:17 11.7 C 31 %
1868 07-05-2020 23:14:17 11.4 C 31 %
1869 07-05-2020 23:24:17 11.4 C 30 %
1870 07-05-2020 23:34:17 11.6 C 31 %
1871 07-05-2020 23:44:17 11.2 C 32 %
1872 07-05-2020 23:54:17 11.1 C 32 %
1873 08-05-2020 00:04:17 10.7 C 33 %
1874 08-05-2020 00:14:17 10.4 C 33 %
1875 08-05-2020 00:24:17 10.2 C 33 %
Sensor: Nr:Datum:Temp:Feuchte:
Aussen-T/F 1876 08-05-2020 00:34:17 9.7 C 35 %
1877 08-05-2020 00:44:17 9.6 C 35 %
1878 08-05-2020 00:54:17 9.4 C 35 %
1879 08-05-2020 01:04:17 9.4 C 35 %
1880 08-05-2020 01:14:17 9.6 C 35 %
1881 08-05-2020 01:24:17 9.6 C 35 %
1882 08-05-2020 01:34:17 9.3 C 36 %
1883 08-05-2020 01:44:17 9.8 C 36 %
1884 08-05-2020 01:54:18 9.5 C 36 %
1885 08-05-2020 02:04:18 9.2 C 36 %
1886 08-05-2020 02:13:18 8.9 C 37 %
1887 08-05-2020 02:24:17 8.6 C 38 %
1888 08-05-2020 02:34:17 8.4 C 38 %
1889 08-05-2020 02:44:17 8.2 C 38 %
1890 08-05-2020 02:54:17 7.9 C 39 %
1891 08-05-2020 03:04:17 7.9 C 39 %
1892 08-05-2020 03:14:17 7.9 C 39 %
1893 08-05-2020 03:24:17 7.8 C 40 %
1894 08-05-2020 03:34:18 7.7 C 40 %
1895 08-05-2020 03:44:18 7.5 C 40 %
1896 08-05-2020 03:54:17 7.4 C 40 %
1897 08-05-2020 04:04:18 7.5 C 40 %
1898 08-05-2020 04:14:18 7 C 40 %
1899 08-05-2020 04:24:18 6.9 C 41 %
1900 08-05-2020 04:34:18 6.8 C 42 %
Sensor: Nr:Datum:Temp:Feuchte:
Aussen-T/F 1901 08-05-2020 04:44:18 7 C 41 %
1902 08-05-2020 04:54:18 7.3 C 41 %
1903 08-05-2020 05:04:18 7.3 C 41 %
1904 08-05-2020 05:14:18 7.4 C 41 %
1905 08-05-2020 05:24:17 7.5 C 41 %
1906 08-05-2020 05:34:17 7.2 C 41 %
1907 08-05-2020 05:44:17 7 C 41 %
1908 08-05-2020 05:54:18 7.1 C 41 %
1909 08-05-2020 06:04:17 6.9 C 42 %
1910 08-05-2020 06:14:17 6.9 C 42 %
1911 08-05-2020 06:24:17 6.8 C 42 %
1912 08-05-2020 06:34:17 6.7 C 43 %
1913 08-05-2020 06:44:17 6.4 C 42 %
1914 08-05-2020 06:54:17 6.3 C 43 %
1915 08-05-2020 07:04:17 6.5 C 43 %
1916 08-05-2020 07:14:17 6.9 C 44 %
1917 08-05-2020 07:24:17 7.3 C 42 %
1918 08-05-2020 07:34:18 7.3 C 41 %
1919 08-05-2020 07:44:18 7.4 C 42 %
1920 08-05-2020 07:54:17 7.9 C 41 %
1921 08-05-2020 08:04:17 8.2 C 40 %
1922 08-05-2020 08:14:17 8.4 C 40 %
1923 08-05-2020 08:24:17 8.4 C 40 %
1924 08-05-2020 08:34:17 8.5 C 40 %
1925 08-05-2020 08:44:17 8.7 C 40 %
Sensor: Nr:Datum:Temp:Feuchte:
Aussen-T/F 1926 08-05-2020 08:54:17 9 C 40 %
1927 08-05-2020 09:04:17 9.5 C 39 %
1928 08-05-2020 09:14:17 10.2 C 37 %
1929 08-05-2020 09:24:17 10.7 C 37 %
1930 08-05-2020 09:34:17 11.1 C 36 %
1931 08-05-2020 09:44:17 11.8 C 36 %
1932 08-05-2020 09:54:17 12.2 C 35 %
1933 08-05-2020 10:04:17 12.5 C 35 %
1934 08-05-2020 10:14:17 13.1 C 34 %
1935 08-05-2020 10:24:17 14 C 33 %
1936 08-05-2020 10:34:17 14.6 C 32 %
1937 08-05-2020 10:44:18 15.8 C 28 %
1938 08-05-2020 10:54:17 16.7 C 27 %
1939 08-05-2020 11:04:17 17.1 C 26 %
1940 08-05-2020 11:14:17 17.5 C 27 %
1941 08-05-2020 11:24:17 17.7 C 27 %
1942 08-05-2020 11:34:17 18.2 C 25 %
1943 08-05-2020 11:44:18 18.9 C 22 %
1944 08-05-2020 11:54:17 19 C 21 %
1945 08-05-2020 12:04:17 19.3 C 20 %
1946 08-05-2020 12:14:18 19.4 C 20 %
1947 08-05-2020 12:24:17 19.5 C 20 %
1948 08-05-2020 12:34:17 19.8 C 20 %
1949 08-05-2020 12:44:17 20 C 20 %
1950 08-05-2020 12:54:17 20.3 C 20 %
Sensor: Nr:Datum:Temp:Feuchte:
Aussen-T/F 1951 08-05-2020 13:04:16 20.7 C 20 %
1952 08-05-2020 13:14:16 21.4 C 20 %
1953 08-05-2020 13:24:17 21.9 C 20 %
1954 08-05-2020 13:34:17 22.3 C 20 %
1955 08-05-2020 13:44:17 22.5 C 20 %
1956 08-05-2020 13:54:16 24 C 20 %
1957 08-05-2020 14:04:17 26.1 C 20 %
1958 08-05-2020 14:14:17 27.5 C 20 %
1959 08-05-2020 14:24:17 28.2 C 20 %
1960 08-05-2020 14:34:16 30 C 20 %
1961 08-05-2020 14:44:16 27.5 C 20 %
1962 08-05-2020 14:54:17 27.3 C 20 %
1963 08-05-2020 15:04:17 26 C 20 %
1964 08-05-2020 15:14:18 25.2 C 20 %
1965 08-05-2020 15:24:17 25.8 C 20 %
1966 08-05-2020 15:34:16 27.1 C 20 %
1967 08-05-2020 15:44:16 28.3 C 20 %
1968 08-05-2020 15:54:17 30.6 C 20 %
1969 08-05-2020 16:04:17 31.3 C 20 %
1970 08-05-2020 16:14:17 29.3 C 20 %
1971 08-05-2020 16:24:17 32 C 20 %
1972 08-05-2020 16:34:16 30.5 C 20 %
1973 08-05-2020 16:44:16 27.4 C 20 %
1974 08-05-2020 16:54:16 26.3 C 20 %
1975 08-05-2020 17:04:17 26.8 C 20 %
Sensor: Nr:Datum:Temp:Feuchte:
Aussen-T/F 1976 08-05-2020 17:14:17 26.3 C 20 %
1977 08-05-2020 17:24:16 28.5 C 20 %
1978 08-05-2020 17:34:16 26.8 C 20 %
1979 08-05-2020 17:44:16 28.8 C 20 %
1980 08-05-2020 17:54:16 27.5 C 20 %
1981 08-05-2020 18:04:17 26.5 C 20 %
1982 08-05-2020 18:14:17 25.5 C 20 %
1983 08-05-2020 18:24:16 25.1 C 20 %
1984 08-05-2020 18:34:17 25.1 C 20 %
1985 08-05-2020 18:44:18 24.4 C 20 %
1986 08-05-2020 18:54:16 24 C 20 %
1987 08-05-2020 19:04:16 23.5 C 20 %
1988 08-05-2020 19:14:16 23.7 C 20 %
1989 08-05-2020 19:24:16 23.6 C 20 %
1990 08-05-2020 19:34:16 22.9 C 20 %
1991 08-05-2020 19:44:16 22.4 C 20 %
1992 08-05-2020 19:54:16 21.6 C 20 %
1993 08-05-2020 20:04:17 19.7 C 20 %
1994 08-05-2020 20:14:17 18.8 C 20 %
1995 08-05-2020 20:24:16 18.5 C 20 %
1996 08-05-2020 20:34:17 18.2 C 20 %
1997 08-05-2020 20:44:17 17.7 C 20 %
1998 08-05-2020 20:54:17 17.3 C 20 %
1999 08-05-2020 21:04:17 17.1 C 20 %
2000 08-05-2020 21:14:17 16.9 C 20 %
Sensor: Nr:Datum:Temp:Feuchte:
Aussen-T/F 2001 08-05-2020 21:24:16 16.4 C 21 %
2002 08-05-2020 21:34:16 16 C 22 %
2003 08-05-2020 21:44:16 15.7 C 24 %
2004 08-05-2020 21:54:16 15.2 C 25 %
2005 08-05-2020 22:04:17 14.9 C 26 %
2006 08-05-2020 22:14:17 15 C 26 %
2007 08-05-2020 22:24:16 14.9 C 27 %
2008 08-05-2020 22:34:16 14.7 C 27 %
2009 08-05-2020 22:44:16 14.3 C 28 %
2010 08-05-2020 22:54:16 14.1 C 27 %
2011 08-05-2020 23:04:17 14 C 27 %
2012 08-05-2020 23:14:17 13.7 C 28 %
2013 08-05-2020 23:24:16 13.6 C 29 %
2014 08-05-2020 23:34:16 13.3 C 29 %
2015 08-05-2020 23:44:16 13.2 C 29 %
2016 08-05-2020 23:54:16 13.3 C 29 %
Sensor: Nr:Datum:Temp:Feuchte:
G-T/H 1 25-04-2020 00:02:18 15.7 C 53 %
2 25-04-2020 00:12:18 15.6 C 53 %
3 25-04-2020 00:23:17 15.6 C 53 %
4 25-04-2020 00:32:18 15.6 C 53 %
5 25-04-2020 00:42:18 15.6 C 54 %
6 25-04-2020 00:52:18 15.5 C 54 %
7 25-04-2020 01:03:17 15.5 C 54 %
8 25-04-2020 01:12:17 15.5 C 54 %
9 25-04-2020 01:23:17 15.4 C 54 %
10 25-04-2020 01:33:17 15.4 C 54 %
11 25-04-2020 01:43:17 15.4 C 54 %
12 25-04-2020 01:52:17 15.4 C 54 %
13 25-04-2020 02:02:18 15.4 C 54 %
14 25-04-2020 02:12:18 15.3 C 54 %
15 25-04-2020 02:23:17 15.3 C 54 %
16 25-04-2020 02:33:17 15.3 C 53 %
17 25-04-2020 02:43:17 15.3 C 53 %
18 25-04-2020 02:53:17 15.2 C 53 %
19 25-04-2020 03:03:17 15.2 C 53 %
20 25-04-2020 03:13:17 15.2 C 52 %
21 25-04-2020 03:22:18 15.2 C 52 %
22 25-04-2020 03:33:17 15.2 C 52 %
23 25-04-2020 03:43:17 15.1 C 52 %
24 25-04-2020 03:53:17 15.1 C 52 %
25 25-04-2020 04:02:18 15.1 C 52 %
Sensor: Nr:Datum:Temp:Feuchte:
G-T/H 26 25-04-2020 04:12:18 15.1 C 52 %
27 25-04-2020 04:23:17 15 C 52 %
28 25-04-2020 04:33:18 15 C 52 %
29 25-04-2020 04:42:18 15 C 51 %
30 25-04-2020 04:53:17 15 C 51 %
31 25-04-2020 05:03:17 15 C 51 %
32 25-04-2020 05:13:18 14.9 C 52 %
33 25-04-2020 05:23:18 14.9 C 52 %
34 25-04-2020 05:32:18 14.9 C 52 %
35 25-04-2020 05:42:18 14.8 C 53 %
36 25-04-2020 05:53:18 14.8 C 53 %
37 25-04-2020 06:02:18 14.8 C 53 %
38 25-04-2020 06:12:18 14.8 C 53 %
39 25-04-2020 06:23:17 14.7 C 53 %
40 25-04-2020 06:33:17 14.7 C 53 %
41 25-04-2020 06:43:18 14.7 C 53 %
42 25-04-2020 06:53:17 14.7 C 53 %
43 25-04-2020 07:03:18 14.7 C 53 %
44 25-04-2020 07:12:18 14.6 C 53 %
45 25-04-2020 07:23:17 14.6 C 53 %
46 25-04-2020 07:32:18 14.6 C 53 %
47 25-04-2020 07:42:18 14.6 C 53 %
48 25-04-2020 07:52:18 14.5 C 53 %
49 25-04-2020 08:03:17 14.5 C 53 %
50 25-04-2020 08:13:17 14.5 C 53 %
Sensor: Nr:Datum:Temp:Feuchte:
G-T/H 51 25-04-2020 08:23:17 14.5 C 53 %
52 25-04-2020 08:33:17 14.5 C 53 %
53 25-04-2020 08:43:17 14.5 C 53 %
54 25-04-2020 08:53:17 14.4 C 53 %
55 25-04-2020 09:03:17 14.4 C 53 %
56 25-04-2020 09:13:17 14.4 C 53 %
57 25-04-2020 09:23:17 14.4 C 53 %
58 25-04-2020 09:33:17 14.4 C 53 %
59 25-04-2020 09:43:17 14.4 C 53 %
60 25-04-2020 09:53:17 14.4 C 53 %
61 25-04-2020 10:03:17 14.3 C 53 %
62 25-04-2020 10:13:17 14.3 C 53 %
63 25-04-2020 10:23:17 14.3 C 53 %
64 25-04-2020 10:32:18 14.3 C 53 %
65 25-04-2020 10:42:18 14.3 C 53 %
66 25-04-2020 10:53:17 14.3 C 53 %
67 25-04-2020 11:03:17 14.3 C 53 %
68 25-04-2020 11:13:18 14.3 C 53 %
69 25-04-2020 11:23:17 14.2 C 53 %
70 25-04-2020 11:32:18 14.2 C 53 %
71 25-04-2020 11:42:18 14.2 C 53 %
72 25-04-2020 11:53:17 14.2 C 53 %
73 25-04-2020 12:03:18 14.2 C 53 %
74 25-04-2020 12:13:18 14.2 C 53 %
75 25-04-2020 12:23:18 14.2 C 53 %
Sensor: Nr:Datum:Temp:Feuchte:
G-T/H 76 25-04-2020 12:33:17 14.2 C 53 %
77 25-04-2020 12:43:18 14.2 C 53 %
78 25-04-2020 12:53:17 14.2 C 53 %
79 25-04-2020 13:03:17 14.2 C 53 %
80 25-04-2020 13:13:17 14.2 C 53 %
81 25-04-2020 13:23:17 14.2 C 50 %
82 25-04-2020 13:33:17 14.1 C 48 %
83 25-04-2020 13:43:17 14.1 C 47 %
84 25-04-2020 13:53:17 14.1 C 47 %
85 25-04-2020 14:03:17 14.2 C 46 %
86 25-04-2020 14:13:17 14.2 C 47 %
87 25-04-2020 14:23:17 14.3 C 47 %
88 25-04-2020 14:33:17 14.3 C 47 %
89 25-04-2020 14:43:17 14.4 C 47 %
90 25-04-2020 14:53:17 14.4 C 47 %
91 25-04-2020 15:03:17 14.4 C 47 %
92 25-04-2020 15:13:17 14.5 C 47 %
93 25-04-2020 15:23:17 14.5 C 47 %
94 25-04-2020 15:33:18 14.6 C 47 %
95 25-04-2020 15:43:18 14.6 C 47 %
96 25-04-2020 15:53:18 14.6 C 46 %
97 25-04-2020 16:03:17 14.7 C 46 %
98 25-04-2020 16:13:17 14.7 C 46 %
99 25-04-2020 16:23:17 14.8 C 45 %
100 25-04-2020 16:33:17 14.8 C 45 %
Sensor: Nr:Datum:Temp:Feuchte:
G-T/H 101 25-04-2020 16:43:17 14.8 C 45 %
102 25-04-2020 16:53:17 14.8 C 44 %
103 25-04-2020 17:03:17 14.9 C 44 %
104 25-04-2020 17:13:17 15 C 42 %
105 25-04-2020 17:23:17 15.1 C 42 %
106 25-04-2020 17:33:18 15.1 C 42 %
107 25-04-2020 17:43:18 15.2 C 42 %
108 25-04-2020 17:53:17 15.2 C 41 %
109 25-04-2020 18:03:17 15.2 C 41 %
110 25-04-2020 18:13:17 15.4 C 41 %
111 25-04-2020 18:23:17 15.4 C 41 %
112 25-04-2020 18:33:17 15.4 C 41 %
113 25-04-2020 18:43:17 15.5 C 41 %
114 25-04-2020 18:53:17 15.4 C 40 %
115 25-04-2020 19:03:17 15.4 C 40 %
116 25-04-2020 19:13:17 15.5 C 40 %
117 25-04-2020 19:23:17 15.6 C 40 %
118 25-04-2020 19:33:17 15.5 C 40 %
119 25-04-2020 19:43:18 15.5 C 40 %
120 25-04-2020 19:53:17 15.5 C 40 %
121 25-04-2020 20:03:18 15.5 C 40 %
122 25-04-2020 20:13:18 15.3 C 41 %
123 25-04-2020 20:23:17 15.2 C 41 %
124 25-04-2020 20:33:17 15 C 42 %
125 25-04-2020 20:43:17 14.8 C 43 %
Sensor: Nr:Datum:Temp:Feuchte:
G-T/H 126 25-04-2020 20:53:17 14.7 C 43 %
127 25-04-2020 21:03:18 14.5 C 42 %
128 25-04-2020 21:13:18 14.5 C 43 %
129 25-04-2020 21:23:17 14.2 C 43 %
130 25-04-2020 21:33:17 14.2 C 43 %
131 25-04-2020 21:43:18 14 C 42 %
132 25-04-2020 21:53:17 14 C 42 %
133 25-04-2020 22:03:17 13.8 C 43 %
134 25-04-2020 22:13:17 13.8 C 43 %
135 25-04-2020 22:23:17 13.7 C 43 %
136 25-04-2020 22:33:17 13.4 C 44 %
137 25-04-2020 22:43:17 13.3 C 44 %
138 25-04-2020 22:53:18 13.2 C 44 %
139 25-04-2020 23:03:17 13.1 C 45 %
140 25-04-2020 23:13:17 13 C 45 %
141 25-04-2020 23:23:17 12.9 C 46 %
142 25-04-2020 23:33:18 12.8 C 46 %
143 25-04-2020 23:43:18 12.7 C 46 %
144 25-04-2020 23:53:17 12.5 C 47 %
145 26-04-2020 00:03:18 12.4 C 47 %
146 26-04-2020 00:13:18 12.2 C 47 %
147 26-04-2020 00:23:17 12.1 C 47 %
148 26-04-2020 00:33:18 11.9 C 49 %
149 26-04-2020 00:43:18 11.7 C 49 %
150 26-04-2020 00:53:17 11.6 C 50 %
Sensor: Nr:Datum:Temp:Feuchte:
G-T/H 151 26-04-2020 01:03:17 11.5 C 50 %
152 26-04-2020 01:13:18 11.3 C 50 %
153 26-04-2020 01:23:17 11.1 C 50 %
154 26-04-2020 01:33:17 11 C 50 %
155 26-04-2020 01:43:17 10.9 C 51 %
156 26-04-2020 01:53:17 10.8 C 51 %
157 26-04-2020 02:03:17 10.7 C 52 %
158 26-04-2020 02:13:17 10.6 C 52 %
159 26-04-2020 02:23:17 10.5 C 52 %
160 26-04-2020 02:33:17 10.4 C 52 %
161 26-04-2020 02:43:17 10.2 C 53 %
162 26-04-2020 02:53:18 10.2 C 53 %
163 26-04-2020 03:03:17 10.1 C 53 %
164 26-04-2020 03:13:18 9.9 C 54 %
165 26-04-2020 03:23:17 9.8 C 54 %
166 26-04-2020 03:33:18 9.7 C 54 %
167 26-04-2020 03:43:18 9.6 C 54 %
168 26-04-2020 03:53:17 9.5 C 55 %
169 26-04-2020 04:03:18 9.4 C 55 %
170 26-04-2020 04:13:18 9.4 C 55 %
171 26-04-2020 04:23:17 9.2 C 55 %
172 26-04-2020 04:33:17 9.1 C 55 %
173 26-04-2020 04:43:17 9 C 55 %
174 26-04-2020 04:53:17 8.9 C 56 %
175 26-04-2020 05:03:18 8.7 C 56 %
Sensor: Nr:Datum:Temp:Feuchte:
G-T/H 176 26-04-2020 05:13:18 8.7 C 56 %
177 26-04-2020 05:23:17 8.5 C 56 %
178 26-04-2020 05:33:17 8.5 C 56 %
179 26-04-2020 05:43:17 8.4 C 57 %
180 26-04-2020 05:53:17 8.4 C 57 %
181 26-04-2020 06:03:17 8.2 C 57 %
182 26-04-2020 06:13:17 8.1 C 57 %
183 26-04-2020 06:23:17 8.1 C 57 %
184 26-04-2020 06:33:17 8 C 57 %
185 26-04-2020 06:43:18 7.9 C 58 %
186 26-04-2020 06:53:17 7.9 C 58 %
187 26-04-2020 07:03:17 7.8 C 58 %
188 26-04-2020 07:13:17 7.8 C 59 %
189 26-04-2020 07:23:17 7.8 C 59 %
190 26-04-2020 07:33:17 7.8 C 59 %
191 26-04-2020 07:43:17 7.8 C 59 %
192 26-04-2020 07:53:17 7.8 C 60 %
193 26-04-2020 08:03:17 7.9 C 60 %
194 26-04-2020 08:13:17 7.8 C 60 %
195 26-04-2020 08:23:17 7.8 C 61 %
196 26-04-2020 08:33:17 7.9 C 61 %
197 26-04-2020 08:43:17 8 C 61 %
198 26-04-2020 08:53:17 8.1 C 61 %
199 26-04-2020 09:03:17 8.2 C 62 %
200 26-04-2020 09:13:17 8.3 C 62 %
Sensor: Nr:Datum:Temp:Feuchte:
G-T/H 201 26-04-2020 09:23:17 8.4 C 63 %
202 26-04-2020 09:33:17 8.6 C 63 %
203 26-04-2020 09:43:17 8.8 C 64 %
204 26-04-2020 09:53:17 8.9 C 64 %
205 26-04-2020 10:03:18 9.1 C 64 %
206 26-04-2020 10:13:18 9.3 C 64 %
207 26-04-2020 10:23:17 9.5 C 64 %
208 26-04-2020 10:33:18 9.7 C 64 %
209 26-04-2020 10:43:18 9.8 C 63 %
210 26-04-2020 10:53:17 10 C 62 %
211 26-04-2020 11:03:17 10.2 C 62 %
212 26-04-2020 11:13:17 10.4 C 62 %
213 26-04-2020 11:23:17 10.6 C 61 %
214 26-04-2020 11:33:17 10.8 C 61 %
215 26-04-2020 11:43:17 10.9 C 60 %
216 26-04-2020 11:53:17 11.1 C 59 %
217 26-04-2020 12:03:17 11.4 C 58 %
218 26-04-2020 12:13:17 11.5 C 57 %
219 26-04-2020 12:23:18 11.7 C 55 %
220 26-04-2020 12:33:17 11.8 C 54 %
221 26-04-2020 12:43:18 12.1 C 52 %
222 26-04-2020 12:53:17 12.2 C 51 %
223 26-04-2020 13:03:17 12.3 C 50 %
224 26-04-2020 13:13:17 12.4 C 49 %
225 26-04-2020 13:23:18 12.5 C 49 %
Sensor: Nr:Datum:Temp:Feuchte:
G-T/H 226 26-04-2020 13:33:17 12.7 C 49 %
227 26-04-2020 13:43:17 12.9 C 48 %
228 26-04-2020 13:53:17 13 C 46 %
229 26-04-2020 14:03:17 13.2 C 45 %
230 26-04-2020 14:13:17 13.3 C 45 %
231 26-04-2020 14:23:17 13.4 C 45 %
232 26-04-2020 14:33:18 13.5 C 45 %
233 26-04-2020 14:43:18 13.5 C 45 %
234 26-04-2020 14:53:17 13.7 C 45 %
235 26-04-2020 15:03:18 13.6 C 45 %
236 26-04-2020 15:13:18 13.3 C 46 %
237 26-04-2020 15:23:17 13.1 C 47 %
238 26-04-2020 15:33:17 13 C 47 %
239 26-04-2020 15:43:17 13 C 48 %
240 26-04-2020 15:53:18 13 C 48 %
241 26-04-2020 16:03:18 12.9 C 50 %
242 26-04-2020 16:13:18 12.9 C 51 %
243 26-04-2020 16:23:17 12.9 C 51 %
244 26-04-2020 16:33:17 12.9 C 52 %
245 26-04-2020 16:43:17 12.9 C 52 %
246 26-04-2020 16:53:17 12.9 C 53 %
247 26-04-2020 17:03:18 12.9 C 53 %
248 26-04-2020 17:13:18 13 C 52 %
249 26-04-2020 17:23:18 13 C 53 %
250 26-04-2020 17:33:18 12.9 C 54 %
Sensor: Nr:Datum:Temp:Feuchte:
G-T/H 251 26-04-2020 17:43:18 13 C 53 %
252 26-04-2020 17:53:17 13 C 53 %
253 26-04-2020 18:03:17 13 C 54 %
254 26-04-2020 18:13:17 13 C 54 %
255 26-04-2020 18:23:17 13 C 54 %
256 26-04-2020 18:33:17 13.1 C 55 %
257 26-04-2020 18:43:17 13.1 C 55 %
258 26-04-2020 18:53:17 13.1 C 55 %
259 26-04-2020 19:03:17 13.1 C 55 %
260 26-04-2020 19:13:17 13.1 C 55 %
261 26-04-2020 19:23:17 13.1 C 55 %
262 26-04-2020 19:33:17 13.2 C 56 %
263 26-04-2020 19:43:18 13.2 C 56 %
264 26-04-2020 19:53:17 13.2 C 56 %
265 26-04-2020 20:03:18 13.2 C 56 %
266 26-04-2020 20:13:18 13.2 C 56 %
267 26-04-2020 20:23:17 13.2 C 56 %
268 26-04-2020 20:33:17 13.2 C 56 %
269 26-04-2020 20:43:17 13.2 C 56 %
270 26-04-2020 20:53:18 13.2 C 56 %
271 26-04-2020 21:03:18 13.2 C 56 %
272 26-04-2020 21:13:18 13.2 C 56 %
273 26-04-2020 21:23:17 13.2 C 56 %
274 26-04-2020 21:33:18 13.2 C 56 %
275 26-04-2020 21:43:18 13.2 C 56 %
Sensor: Nr:Datum:Temp:Feuchte:
G-T/H 276 26-04-2020 21:53:17 13.2 C 56 %
277 26-04-2020 22:03:17 13.2 C 55 %
278 26-04-2020 22:13:17 13.2 C 55 %
279 26-04-2020 22:23:18 13.2 C 55 %
280 26-04-2020 22:33:17 13.2 C 55 %
281 26-04-2020 22:43:17 13.2 C 55 %
282 26-04-2020 22:53:17 13.2 C 55 %
283 26-04-2020 23:03:17 13.3 C 56 %
284 26-04-2020 23:13:17 13.2 C 56 %
285 26-04-2020 23:23:17 13.2 C 56 %
286 26-04-2020 23:33:18 13.2 C 56 %
287 26-04-2020 23:43:18 13.2 C 56 %
288 26-04-2020 23:53:17 13.3 C 55 %
289 27-04-2020 00:03:18 13.3 C 55 %
290 27-04-2020 00:13:18 13.2 C 55 %
291 27-04-2020 00:23:18 13.2 C 55 %
292 27-04-2020 00:33:17 13.2 C 55 %
293 27-04-2020 00:43:17 13.2 C 55 %
294 27-04-2020 00:53:17 13.2 C 55 %
295 27-04-2020 01:03:18 13.2 C 55 %
296 27-04-2020 01:13:18 13.2 C 55 %
297 27-04-2020 01:23:18 13.2 C 55 %
298 27-04-2020 01:33:17 13.2 C 55 %
299 27-04-2020 01:43:17 13.2 C 55 %
300 27-04-2020 01:53:17 13.2 C 55 %
Sensor: Nr:Datum:Temp:Feuchte:
G-T/H 301 27-04-2020 02:03:17 13.2 C 55 %
302 27-04-2020 02:13:17 13.2 C 55 %
303 27-04-2020 02:23:17 13.2 C 55 %
304 27-04-2020 02:33:17 13.2 C 55 %
305 27-04-2020 02:43:17 13.2 C 55 %
306 27-04-2020 02:53:17 13.2 C 55 %
307 27-04-2020 03:03:18 13.1 C 55 %
308 27-04-2020 03:13:18 13.1 C 55 %
309 27-04-2020 03:23:18 13.1 C 55 %
310 27-04-2020 03:33:17 13.1 C 55 %
311 27-04-2020 03:43:17 13.1 C 55 %
312 27-04-2020 03:53:17 13.1 C 55 %
313 27-04-2020 04:03:18 13.1 C 55 %
314 27-04-2020 04:13:18 13.1 C 55 %
315 27-04-2020 04:23:17 13.1 C 55 %
316 27-04-2020 04:33:18 13.1 C 55 %
317 27-04-2020 04:43:18 13.1 C 55 %
318 27-04-2020 04:53:17 13.1 C 55 %
319 27-04-2020 05:03:17 13 C 55 %
320 27-04-2020 05:13:17 13 C 55 %
321 27-04-2020 05:23:17 13 C 55 %
322 27-04-2020 05:33:17 13 C 55 %
323 27-04-2020 05:43:17 13 C 55 %
324 27-04-2020 05:53:17 13 C 55 %
325 27-04-2020 06:03:18 13 C 55 %
Sensor: Nr:Datum:Temp:Feuchte:
G-T/H 326 27-04-2020 06:13:18 12.9 C 56 %
327 27-04-2020 06:23:17 12.9 C 56 %
328 27-04-2020 06:33:17 12.9 C 56 %
329 27-04-2020 06:43:17 12.9 C 56 %
330 27-04-2020 06:53:17 12.9 C 56 %
331 27-04-2020 07:03:17 12.8 C 56 %
332 27-04-2020 07:13:17 12.8 C 56 %
333 27-04-2020 07:23:17 12.8 C 56 %
334 27-04-2020 07:33:17 12.8 C 56 %
335 27-04-2020 07:43:17 12.8 C 56 %
336 27-04-2020 07:53:17 12.8 C 56 %
337 27-04-2020 08:03:17 12.8 C 56 %
338 27-04-2020 08:13:17 12.8 C 56 %
339 27-04-2020 08:23:17 12.8 C 56 %
340 27-04-2020 08:33:17 12.8 C 56 %
341 27-04-2020 08:43:17 12.7 C 56 %
342 27-04-2020 08:53:17 12.7 C 56 %
343 27-04-2020 09:03:18 12.7 C 56 %
344 27-04-2020 09:13:18 12.7 C 56 %
345 27-04-2020 09:23:17 12.7 C 56 %
346 27-04-2020 09:33:17 12.7 C 56 %
347 27-04-2020 09:43:17 12.6 C 56 %
348 27-04-2020 09:53:17 12.7 C 57 %
349 27-04-2020 10:03:17 12.6 C 57 %
350 27-04-2020 10:13:17 12.6 C 57 %
Sensor: Nr:Datum:Temp:Feuchte:
G-T/H 351 27-04-2020 10:23:17 12.6 C 57 %
352 27-04-2020 10:33:17 12.6 C 57 %
353 27-04-2020 10:43:17 12.6 C 57 %
354 27-04-2020 10:53:17 12.6 C 57 %
355 27-04-2020 11:03:17 12.6 C 57 %
356 27-04-2020 11:13:17 12.6 C 57 %
357 27-04-2020 11:23:17 12.6 C 57 %
358 27-04-2020 11:33:17 12.6 C 57 %
359 27-04-2020 11:43:17 12.6 C 57 %
360 27-04-2020 11:53:17 12.6 C 58 %
361 27-04-2020 12:03:17 12.6 C 58 %
362 27-04-2020 12:13:17 12.6 C 58 %
363 27-04-2020 12:23:17 12.7 C 58 %
364 27-04-2020 12:33:17 12.7 C 58 %
365 27-04-2020 12:43:17 12.7 C 58 %
366 27-04-2020 12:53:18 12.7 C 58 %
367 27-04-2020 13:03:17 12.7 C 58 %
368 27-04-2020 13:13:17 12.8 C 58 %
369 27-04-2020 13:23:17 12.7 C 58 %
370 27-04-2020 13:33:17 12.8 C 58 %
371 27-04-2020 13:43:17 12.8 C 58 %
372 27-04-2020 13:53:17 12.8 C 58 %
373 27-04-2020 14:03:18 12.8 C 58 %
374 27-04-2020 14:13:18 12.9 C 58 %
375 27-04-2020 14:23:17 12.9 C 58 %
Sensor: Nr:Datum:Temp:Feuchte:
G-T/H 376 27-04-2020 14:33:18 13 C 57 %
377 27-04-2020 14:43:18 12.9 C 58 %
378 27-04-2020 14:53:17 13 C 58 %
379 27-04-2020 15:03:17 13 C 58 %
380 27-04-2020 15:13:17 13 C 58 %
381 27-04-2020 15:23:17 13.1 C 58 %
382 27-04-2020 15:33:17 13.1 C 58 %
383 27-04-2020 15:43:17 13.1 C 58 %
384 27-04-2020 15:53:17 13.1 C 59 %
385 27-04-2020 16:03:17 13.2 C 59 %
386 27-04-2020 16:13:17 13.2 C 59 %
387 27-04-2020 16:23:17 13.2 C 59 %
388 27-04-2020 16:33:17 13.2 C 59 %
389 27-04-2020 16:43:17 13.3 C 59 %
390 27-04-2020 16:53:17 13.3 C 59 %
391 27-04-2020 17:03:18 13.3 C 59 %
392 27-04-2020 17:13:18 13.3 C 59 %
393 27-04-2020 17:23:17 13.4 C 59 %
394 27-04-2020 17:33:17 13.4 C 59 %
395 27-04-2020 17:43:17 13.4 C 60 %
396 27-04-2020 17:53:17 13.4 C 60 %
397 27-04-2020 18:03:17 13.4 C 60 %
398 27-04-2020 18:13:17 13.4 C 60 %
399 27-04-2020 18:23:17 13.5 C 60 %
400 27-04-2020 18:33:18 13.5 C 60 %
Sensor: Nr:Datum:Temp:Feuchte:
G-T/H 401 27-04-2020 18:43:18 13.5 C 60 %
402 27-04-2020 18:53:17 13.6 C 60 %
403 27-04-2020 19:03:17 13.6 C 60 %
404 27-04-2020 19:13:17 13.6 C 60 %
405 27-04-2020 19:23:18 13.6 C 60 %
406 27-04-2020 19:33:17 13.6 C 60 %
407 27-04-2020 19:43:18 13.7 C 60 %
408 27-04-2020 19:53:17 13.7 C 60 %
409 27-04-2020 20:03:17 13.7 C 60 %
410 27-04-2020 20:13:17 13.7 C 60 %
411 27-04-2020 20:23:17 13.7 C 60 %
412 27-04-2020 20:33:17 13.7 C 60 %
413 27-04-2020 20:43:17 13.7 C 60 %
414 27-04-2020 20:53:18 13.7 C 60 %
415 27-04-2020 21:03:17 13.7 C 60 %
416 27-04-2020 21:13:17 13.8 C 60 %
417 27-04-2020 21:23:17 13.8 C 60 %
418 27-04-2020 21:33:18 13.8 C 60 %
419 27-04-2020 21:43:18 13.7 C 60 %
420 27-04-2020 21:53:17 13.7 C 60 %
421 27-04-2020 22:03:18 13.8 C 60 %
422 27-04-2020 22:13:18 13.8 C 60 %
423 27-04-2020 22:23:17 13.8 C 60 %
424 27-04-2020 22:33:17 13.8 C 60 %
425 27-04-2020 22:43:17 13.8 C 60 %
Sensor: Nr:Datum:Temp:Feuchte:
G-T/H 426 27-04-2020 22:53:18 13.8 C 60 %
427 27-04-2020 23:03:17 13.8 C 60 %
428 27-04-2020 23:13:17 13.8 C 60 %
429 27-04-2020 23:23:17 13.8 C 60 %
430 27-04-2020 23:33:17 13.8 C 60 %
431 27-04-2020 23:43:17 13.8 C 60 %
432 27-04-2020 23:53:18 13.8 C 60 %
433 28-04-2020 00:03:17 13.8 C 60 %
434 28-04-2020 00:13:17 13.8 C 60 %
435 28-04-2020 00:23:17 13.8 C 60 %
436 28-04-2020 00:33:18 13.8 C 60 %
437 28-04-2020 00:43:18 13.8 C 60 %
438 28-04-2020 00:53:17 13.8 C 60 %
439 28-04-2020 01:03:18 13.8 C 60 %
440 28-04-2020 01:13:18 13.8 C 60 %
441 28-04-2020 01:23:17 13.8 C 60 %
442 28-04-2020 01:33:17 13.8 C 60 %
443 28-04-2020 01:43:18 13.8 C 60 %
444 28-04-2020 01:53:17 13.8 C 60 %
445 28-04-2020 02:03:18 13.8 C 60 %
446 28-04-2020 02:13:18 13.8 C 60 %
447 28-04-2020 02:23:17 13.8 C 60 %
448 28-04-2020 02:33:18 13.8 C 60 %
449 28-04-2020 02:43:18 13.7 C 60 %
450 28-04-2020 02:53:18 13.8 C 60 %
Sensor: Nr:Datum:Temp:Feuchte:
G-T/H 451 28-04-2020 03:03:17 13.7 C 60 %
452 28-04-2020 03:13:17 13.8 C 60 %
453 28-04-2020 03:23:17 13.8 C 60 %
454 28-04-2020 03:33:18 13.8 C 60 %
455 28-04-2020 03:43:18 13.8 C 60 %
456 28-04-2020 03:53:18 13.7 C 60 %
457 28-04-2020 04:03:18 13.7 C 60 %
458 28-04-2020 04:13:18 13.7 C 60 %
459 28-04-2020 04:23:18 13.7 C 60 %
460 28-04-2020 04:33:18 13.7 C 60 %
461 28-04-2020 04:43:18 13.7 C 60 %
462 28-04-2020 04:53:17 13.7 C 60 %
463 28-04-2020 05:03:17 13.7 C 60 %
464 28-04-2020 05:13:17 13.7 C 60 %
465 28-04-2020 05:23:17 13.7 C 60 %
466 28-04-2020 05:33:18 13.6 C 60 %
467 28-04-2020 05:43:18 13.6 C 60 %
468 28-04-2020 05:53:17 13.6 C 60 %
469 28-04-2020 06:03:17 13.6 C 60 %
470 28-04-2020 06:13:17 13.6 C 60 %
471 28-04-2020 06:23:17 13.6 C 60 %
472 28-04-2020 06:33:18 13.6 C 60 %
473 28-04-2020 06:43:18 13.6 C 60 %
474 28-04-2020 06:53:17 13.6 C 60 %
475 28-04-2020 07:03:18 13.6 C 60 %
Sensor: Nr:Datum:Temp:Feuchte:
G-T/H 476 28-04-2020 07:13:18 13.5 C 60 %
477 28-04-2020 07:23:18 13.5 C 60 %
478 28-04-2020 07:33:17 13.5 C 60 %
479 28-04-2020 07:43:17 13.5 C 60 %
480 28-04-2020 07:53:17 13.5 C 60 %
481 28-04-2020 08:03:17 13.5 C 60 %
482 28-04-2020 08:13:17 13.5 C 60 %
483 28-04-2020 08:23:17 13.5 C 60 %
484 28-04-2020 08:33:17 13.5 C 60 %
485 28-04-2020 08:43:17 13.5 C 60 %
486 28-04-2020 08:53:17 13.5 C 60 %
487 28-04-2020 09:03:17 13.5 C 60 %
488 28-04-2020 09:13:17 13.5 C 61 %
489 28-04-2020 09:23:17 13.5 C 61 %
490 28-04-2020 09:33:18 13.5 C 61 %
491 28-04-2020 09:43:18 13.5 C 61 %
492 28-04-2020 09:53:17 13.5 C 61 %
493 28-04-2020 10:03:17 13.5 C 61 %
494 28-04-2020 10:13:17 13.5 C 61 %
495 28-04-2020 10:23:18 13.5 C 61 %
496 28-04-2020 10:33:17 13.5 C 61 %
497 28-04-2020 10:43:17 13.5 C 61 %
498 28-04-2020 10:53:17 13.4 C 61 %
499 28-04-2020 11:03:17 13.5 C 61 %
500 28-04-2020 11:13:17 13.5 C 61 %
Sensor: Nr:Datum:Temp:Feuchte:
G-T/H 501 28-04-2020 11:23:17 13.5 C 61 %
502 28-04-2020 11:33:17 13.5 C 61 %
503 28-04-2020 11:43:17 13.5 C 61 %
504 28-04-2020 11:53:17 13.5 C 61 %
505 28-04-2020 12:03:17 13.5 C 62 %
506 28-04-2020 12:13:17 13.5 C 62 %
507 28-04-2020 12:23:17 13.5 C 62 %
508 28-04-2020 12:33:17 13.5 C 62 %
509 28-04-2020 12:43:17 13.5 C 62 %
510 28-04-2020 12:53:17 13.5 C 62 %
511 28-04-2020 13:03:18 13.5 C 62 %
512 28-04-2020 13:13:18 13.5 C 62 %
513 28-04-2020 13:23:17 13.4 C 62 %
514 28-04-2020 13:33:17 13.5 C 62 %
515 28-04-2020 13:43:17 13.5 C 62 %
516 28-04-2020 13:53:17 13.5 C 62 %
517 28-04-2020 14:03:17 13.5 C 62 %
518 28-04-2020 14:13:17 13.5 C 63 %
519 28-04-2020 14:23:18 13.5 C 63 %
520 28-04-2020 14:33:18 13.5 C 63 %
521 28-04-2020 14:43:18 13.6 C 63 %
522 28-04-2020 14:53:17 13.6 C 63 %
523 28-04-2020 15:03:17 13.6 C 63 %
524 28-04-2020 15:13:17 13.6 C 63 %
525 28-04-2020 15:23:17 13.6 C 63 %
Sensor: Nr:Datum:Temp:Feuchte:
G-T/H 526 28-04-2020 15:33:17 13.6 C 64 %
527 28-04-2020 15:43:17 13.6 C 64 %
528 28-04-2020 15:53:17 13.6 C 64 %
529 28-04-2020 16:03:18 13.6 C 64 %
530 28-04-2020 16:13:18 13.6 C 64 %
531 28-04-2020 16:23:17 13.6 C 64 %
532 28-04-2020 16:33:17 13.7 C 64 %
533 28-04-2020 16:43:17 13.7 C 64 %
534 28-04-2020 16:53:17 13.7 C 64 %
535 28-04-2020 17:03:17 13.7 C 64 %
536 28-04-2020 17:13:17 13.7 C 64 %
537 28-04-2020 17:23:17 13.7 C 64 %
538 28-04-2020 17:33:17 13.7 C 64 %
539 28-04-2020 17:43:17 13.7 C 64 %
540 28-04-2020 17:53:17 13.7 C 64 %
541 28-04-2020 18:03:17 13.7 C 64 %
542 28-04-2020 18:13:17 13.8 C 64 %
543 28-04-2020 18:23:17 13.8 C 65 %
544 28-04-2020 18:33:18 13.8 C 65 %
545 28-04-2020 18:43:18 13.8 C 65 %
546 28-04-2020 18:53:17 13.8 C 65 %
547 28-04-2020 19:03:17 13.8 C 65 %
548 28-04-2020 19:13:17 13.8 C 65 %
549 28-04-2020 19:23:17 13.8 C 65 %
550 28-04-2020 19:33:18 13.8 C 65 %
Sensor: Nr:Datum:Temp:Feuchte:
G-T/H 551 28-04-2020 19:43:18 13.8 C 65 %
552 28-04-2020 19:53:17 13.9 C 65 %
553 28-04-2020 20:03:18 13.9 C 65 %
554 28-04-2020 20:13:18 13.9 C 65 %
555 28-04-2020 20:23:17 13.8 C 65 %
556 28-04-2020 20:33:17 13.8 C 65 %
557 28-04-2020 20:43:18 13.8 C 65 %
558 28-04-2020 20:53:17 13.8 C 65 %
559 28-04-2020 21:03:17 13.8 C 65 %
560 28-04-2020 21:13:17 13.8 C 65 %
561 28-04-2020 21:23:17 13.8 C 65 %
562 28-04-2020 21:33:17 13.9 C 64 %
563 28-04-2020 21:43:17 13.9 C 64 %
564 28-04-2020 21:53:17 13.8 C 64 %
565 28-04-2020 22:03:17 13.8 C 64 %
566 28-04-2020 22:13:17 13.8 C 64 %
567 28-04-2020 22:23:17 13.8 C 64 %
568 28-04-2020 22:33:17 13.8 C 64 %
569 28-04-2020 22:43:17 13.9 C 64 %
570 28-04-2020 22:53:18 13.8 C 64 %
571 28-04-2020 23:03:17 13.9 C 64 %
572 28-04-2020 23:13:18 13.8 C 64 %
573 28-04-2020 23:23:18 13.8 C 64 %
574 28-04-2020 23:33:18 13.8 C 64 %
575 28-04-2020 23:43:18 13.8 C 64 %
Sensor: Nr:Datum:Temp:Feuchte:
G-T/H 576 28-04-2020 23:53:18 13.8 C 64 %
577 29-04-2020 00:03:17 13.8 C 64 %
578 29-04-2020 00:13:17 13.8 C 64 %
579 29-04-2020 00:23:17 13.8 C 64 %
580 29-04-2020 00:33:18 13.8 C 64 %
581 29-04-2020 00:43:18 13.8 C 64 %
582 29-04-2020 00:53:18 13.8 C 64 %
583 29-04-2020 01:03:18 13.8 C 64 %
584 29-04-2020 01:13:18 13.8 C 64 %
585 29-04-2020 01:23:17 13.8 C 64 %
586 29-04-2020 01:33:17 13.8 C 64 %
587 29-04-2020 01:43:17 13.8 C 64 %
588 29-04-2020 01:53:17 13.8 C 64 %
589 29-04-2020 02:03:17 13.8 C 64 %
590 29-04-2020 02:13:17 13.8 C 64 %
591 29-04-2020 02:23:17 13.8 C 64 %
592 29-04-2020 02:33:18 13.8 C 64 %
593 29-04-2020 02:43:18 13.8 C 64 %
594 29-04-2020 02:53:17 13.8 C 64 %
595 29-04-2020 03:03:17 13.8 C 64 %
596 29-04-2020 03:13:17 13.8 C 64 %
597 29-04-2020 03:23:17 13.7 C 64 %
598 29-04-2020 03:33:17 13.8 C 64 %
599 29-04-2020 03:43:17 13.7 C 64 %
600 29-04-2020 03:53:17 13.7 C 64 %
Sensor: Nr:Datum:Temp:Feuchte:
G-T/H 601 29-04-2020 04:03:17 13.7 C 64 %
602 29-04-2020 04:13:17 13.7 C 64 %
603 29-04-2020 04:23:17 13.7 C 64 %
604 29-04-2020 04:33:17 13.7 C 64 %
605 29-04-2020 04:43:18 13.7 C 64 %
606 29-04-2020 04:53:17 13.7 C 64 %
607 29-04-2020 05:03:18 13.7 C 64 %
608 29-04-2020 05:13:18 13.7 C 64 %
609 29-04-2020 05:23:18 13.7 C 64 %
610 29-04-2020 05:33:17 13.7 C 64 %
611 29-04-2020 05:43:17 13.7 C 64 %
612 29-04-2020 05:53:17 13.7 C 64 %
613 29-04-2020 06:03:18 13.7 C 64 %
614 29-04-2020 06:13:18 13.7 C 64 %
615 29-04-2020 06:23:17 13.7 C 64 %
616 29-04-2020 06:33:17 13.7 C 64 %
617 29-04-2020 06:43:17 13.7 C 64 %
618 29-04-2020 06:53:17 13.6 C 64 %
619 29-04-2020 07:03:17 13.6 C 64 %
620 29-04-2020 07:13:17 13.6 C 64 %
621 29-04-2020 07:23:17 13.6 C 64 %
622 29-04-2020 07:33:17 13.6 C 64 %
623 29-04-2020 07:43:17 13.6 C 64 %
624 29-04-2020 07:53:17 13.6 C 64 %
625 29-04-2020 08:03:17 13.6 C 64 %
Sensor: Nr:Datum:Temp:Feuchte:
G-T/H 626 29-04-2020 08:13:17 13.6 C 64 %
627 29-04-2020 08:23:17 13.6 C 64 %
628 29-04-2020 08:33:17 13.6 C 64 %
629 29-04-2020 08:43:17 13.6 C 64 %
630 29-04-2020 08:53:17 13.6 C 64 %
631 29-04-2020 09:03:17 13.6 C 64 %
632 29-04-2020 09:13:17 13.6 C 64 %
633 29-04-2020 09:23:17 13.6 C 64 %
634 29-04-2020 09:33:17 13.6 C 64 %
635 29-04-2020 09:43:17 13.6 C 64 %
636 29-04-2020 09:53:17 13.6 C 64 %
637 29-04-2020 10:03:17 13.6 C 64 %
638 29-04-2020 10:13:17 13.6 C 64 %
639 29-04-2020 10:23:17 13.6 C 64 %
640 29-04-2020 10:33:17 13.6 C 64 %
641 29-04-2020 10:43:17 13.6 C 65 %
642 29-04-2020 10:53:17 13.6 C 65 %
643 29-04-2020 11:03:17 13.6 C 65 %
644 29-04-2020 11:13:17 13.6 C 65 %
645 29-04-2020 11:23:17 13.6 C 65 %
646 29-04-2020 11:33:18 13.6 C 65 %
647 29-04-2020 11:43:18 13.6 C 65 %
648 29-04-2020 11:53:17 13.6 C 65 %
649 29-04-2020 12:03:18 13.7 C 65 %
650 29-04-2020 12:13:18 13.7 C 65 %
Sensor: Nr:Datum:Temp:Feuchte:
G-T/H 651 29-04-2020 12:23:17 13.7 C 65 %
652 29-04-2020 12:33:17 13.7 C 65 %
653 29-04-2020 12:43:17 13.7 C 65 %
654 29-04-2020 12:53:17 13.7 C 65 %
655 29-04-2020 13:03:17 13.7 C 65 %
656 29-04-2020 13:13:17 13.7 C 65 %
657 29-04-2020 13:23:18 13.7 C 65 %
658 29-04-2020 13:33:18 13.7 C 65 %
659 29-04-2020 13:43:18 13.7 C 65 %
660 29-04-2020 13:53:18 13.8 C 65 %
661 29-04-2020 14:03:18 13.8 C 65 %
662 29-04-2020 14:13:18 13.8 C 65 %
663 29-04-2020 14:23:18 13.8 C 65 %
664 29-04-2020 14:33:17 13.8 C 65 %
665 29-04-2020 14:43:17 13.8 C 65 %
666 29-04-2020 14:53:17 13.8 C 65 %
667 29-04-2020 15:03:17 13.8 C 65 %
668 29-04-2020 15:13:17 13.9 C 65 %
669 29-04-2020 15:23:17 13.9 C 65 %
670 29-04-2020 15:33:17 13.9 C 65 %
671 29-04-2020 15:43:17 13.9 C 65 %
672 29-04-2020 15:53:17 13.9 C 65 %
673 29-04-2020 16:03:17 13.9 C 65 %
674 29-04-2020 16:13:17 14 C 64 %
675 29-04-2020 16:23:17 14 C 65 %
Sensor: Nr:Datum:Temp:Feuchte:
G-T/H 676 29-04-2020 16:33:17 14 C 65 %
677 29-04-2020 16:43:17 14 C 65 %
678 29-04-2020 16:53:17 14 C 65 %
679 29-04-2020 17:03:17 14 C 65 %
680 29-04-2020 17:13:17 14 C 65 %
681 29-04-2020 17:23:17 14.1 C 65 %
682 29-04-2020 17:33:17 14.1 C 65 %
683 29-04-2020 17:43:17 14.1 C 65 %
684 29-04-2020 17:53:17 14.1 C 65 %
685 29-04-2020 18:03:17 14.1 C 65 %
686 29-04-2020 18:13:18 14.1 C 65 %
687 29-04-2020 18:23:17 14.1 C 65 %
688 29-04-2020 18:33:17 14.1 C 65 %
689 29-04-2020 18:43:17 14.2 C 65 %
690 29-04-2020 18:53:17 14.1 C 65 %
691 29-04-2020 19:03:18 14.2 C 65 %
692 29-04-2020 19:13:18 14.2 C 65 %
693 29-04-2020 19:23:17 14.2 C 65 %
694 29-04-2020 19:33:17 14.2 C 65 %
695 29-04-2020 19:43:18 14.2 C 65 %
696 29-04-2020 19:53:17 14.3 C 65 %
697 29-04-2020 20:03:18 14.3 C 65 %
698 29-04-2020 20:13:18 14.2 C 65 %
699 29-04-2020 20:23:18 14.2 C 65 %
700 29-04-2020 20:33:17 14.2 C 65 %
Sensor: Nr:Datum:Temp:Feuchte:
G-T/H 701 29-04-2020 20:43:17 14.2 C 65 %
702 29-04-2020 20:53:18 14.2 C 65 %
703 29-04-2020 21:03:18 14.2 C 65 %
704 29-04-2020 21:13:18 14.2 C 65 %
705 29-04-2020 21:23:17 14.2 C 65 %
706 29-04-2020 21:33:17 14.2 C 65 %
707 29-04-2020 21:43:17 14.2 C 65 %
708 29-04-2020 21:53:17 14.2 C 65 %
709 29-04-2020 22:03:18 14.2 C 65 %
710 29-04-2020 22:13:18 14.2 C 65 %
711 29-04-2020 22:23:17 14.2 C 65 %
712 29-04-2020 22:33:17 14.2 C 65 %
713 29-04-2020 22:43:17 14.2 C 65 %
714 29-04-2020 22:53:18 14.2 C 65 %
715 29-04-2020 23:03:18 14.2 C 65 %
716 29-04-2020 23:13:18 14.2 C 65 %
717 29-04-2020 23:23:17 14.2 C 65 %
718 29-04-2020 23:33:17 14.2 C 65 %
719 29-04-2020 23:43:17 14.3 C 65 %
720 29-04-2020 23:53:18 14.2 C 65 %
721 30-04-2020 00:03:17 14.2 C 65 %
722 30-04-2020 00:13:17 14.2 C 65 %
723 30-04-2020 00:23:17 14.2 C 65 %
724 30-04-2020 00:33:17 14.2 C 65 %
725 30-04-2020 00:43:17 14.2 C 65 %
Sensor: Nr:Datum:Temp:Feuchte:
G-T/H 726 30-04-2020 00:53:17 14.2 C 65 %
727 30-04-2020 01:03:17 14.2 C 65 %
728 30-04-2020 01:13:17 14.3 C 65 %
729 30-04-2020 01:23:17 14.2 C 65 %
730 30-04-2020 01:33:17 14.2 C 65 %
731 30-04-2020 01:43:17 14.2 C 65 %
732 30-04-2020 01:53:17 14.2 C 65 %
733 30-04-2020 02:03:17 14.2 C 65 %
734 30-04-2020 02:13:17 14.2 C 65 %
735 30-04-2020 02:23:17 14.2 C 65 %
736 30-04-2020 02:33:17 14.2 C 65 %
737 30-04-2020 02:43:17 14.2 C 65 %
738 30-04-2020 02:53:17 14.2 C 65 %
739 30-04-2020 03:03:17 14.2 C 65 %
740 30-04-2020 03:13:17 14.2 C 65 %
741 30-04-2020 03:23:17 14.2 C 65 %
742 30-04-2020 03:33:17 14.2 C 65 %
743 30-04-2020 03:43:18 14.2 C 65 %
744 30-04-2020 03:53:17 14.1 C 65 %
745 30-04-2020 04:03:17 14.1 C 65 %
746 30-04-2020 04:13:17 14.2 C 65 %
747 30-04-2020 04:23:17 14.2 C 65 %
748 30-04-2020 04:33:18 14.1 C 65 %
749 30-04-2020 04:43:18 14.1 C 65 %
750 30-04-2020 04:53:17 14.1 C 65 %
Sensor: Nr:Datum:Temp:Feuchte:
G-T/H 751 30-04-2020 05:03:17 14.1 C 65 %
752 30-04-2020 05:13:17 14.1 C 65 %
753 30-04-2020 05:23:17 14.1 C 65 %
754 30-04-2020 05:33:17 14.1 C 65 %
755 30-04-2020 05:43:17 14.1 C 65 %
756 30-04-2020 05:53:18 14.1 C 65 %
757 30-04-2020 06:03:17 14.1 C 65 %
758 30-04-2020 06:13:18 14.1 C 65 %
759 30-04-2020 06:23:17 14 C 65 %
760 30-04-2020 06:33:17 14 C 65 %
761 30-04-2020 06:43:17 14.1 C 65 %
762 30-04-2020 06:53:17 14.1 C 65 %
763 30-04-2020 07:03:17 14 C 65 %
764 30-04-2020 07:13:17 14 C 65 %
765 30-04-2020 07:23:17 14 C 65 %
766 30-04-2020 07:33:17 14 C 65 %
767 30-04-2020 07:43:17 14 C 65 %
768 30-04-2020 07:53:17 14 C 65 %
769 30-04-2020 08:03:17 14 C 65 %
770 30-04-2020 08:13:17 14 C 65 %
771 30-04-2020 08:23:17 14 C 65 %
772 30-04-2020 08:33:17 14 C 65 %
773 30-04-2020 08:43:17 14 C 65 %
774 30-04-2020 08:53:17 14 C 65 %
775 30-04-2020 09:03:17 13.9 C 66 %
Sensor: Nr:Datum:Temp:Feuchte:
G-T/H 776 30-04-2020 09:13:17 14 C 65 %
777 30-04-2020 09:23:18 14 C 65 %
778 30-04-2020 09:33:17 14 C 65 %
779 30-04-2020 09:43:17 14 C 65 %
780 30-04-2020 09:53:17 14 C 65 %
781 30-04-2020 10:03:17 14 C 65 %
782 30-04-2020 10:13:17 13.9 C 66 %
783 30-04-2020 10:23:17 14 C 65 %
784 30-04-2020 10:33:17 14 C 65 %
785 30-04-2020 10:43:17 13.9 C 66 %
786 30-04-2020 10:53:18 14 C 65 %
787 30-04-2020 11:03:18 14 C 65 %
788 30-04-2020 11:13:18 13.9 C 66 %
789 30-04-2020 11:23:17 14 C 65 %
790 30-04-2020 11:33:17 13.9 C 66 %
791 30-04-2020 11:43:17 14 C 65 %
792 30-04-2020 11:53:17 14 C 65 %
793 30-04-2020 12:03:18 14 C 65 %
794 30-04-2020 12:13:18 13.9 C 66 %
795 30-04-2020 12:23:17 14 C 65 %
796 30-04-2020 12:33:17 14 C 65 %
797 30-04-2020 12:43:17 14 C 66 %
798 30-04-2020 12:53:18 14 C 65 %
799 30-04-2020 13:03:17 13.9 C 66 %
800 30-04-2020 13:13:17 14 C 65 %
Sensor: Nr:Datum:Temp:Feuchte:
G-T/H 801 30-04-2020 13:23:17 14 C 65 %
802 30-04-2020 13:33:17 14 C 65 %
803 30-04-2020 13:43:17 14 C 65 %
804 30-04-2020 13:53:17 14 C 65 %
805 30-04-2020 14:03:18 14 C 65 %
806 30-04-2020 14:13:18 14 C 65 %
807 30-04-2020 14:23:17 14 C 65 %
808 30-04-2020 14:33:18 14 C 65 %
809 30-04-2020 14:43:18 14 C 65 %
810 30-04-2020 14:53:17 14.1 C 65 %
811 30-04-2020 15:03:18 14 C 65 %
812 30-04-2020 15:13:18 14.1 C 65 %
813 30-04-2020 15:23:17 14.1 C 65 %
814 30-04-2020 15:33:17 14.1 C 65 %
815 30-04-2020 15:43:17 14.1 C 65 %
816 30-04-2020 15:53:18 14.1 C 65 %
817 30-04-2020 16:03:17 14.1 C 65 %
818 30-04-2020 16:13:17 14.1 C 65 %
819 30-04-2020 16:23:17 14.1 C 65 %
820 30-04-2020 16:33:17 14.1 C 65 %
821 30-04-2020 16:43:18 14.1 C 65 %
822 30-04-2020 16:53:17 14.1 C 65 %
823 30-04-2020 17:03:17 14.2 C 65 %
824 30-04-2020 17:13:17 14.2 C 65 %
825 30-04-2020 17:23:18 14.2 C 65 %
Sensor: Nr:Datum:Temp:Feuchte:
G-T/H 826 30-04-2020 17:33:17 14.1 C 65 %
827 30-04-2020 17:43:17 14.2 C 65 %
828 30-04-2020 17:53:17 14.2 C 65 %
829 30-04-2020 18:03:17 14.1 C 65 %
830 30-04-2020 18:13:18 14.1 C 65 %
831 30-04-2020 18:23:17 14.2 C 65 %
832 30-04-2020 18:33:17 14.1 C 65 %
833 30-04-2020 18:43:17 14.2 C 65 %
834 30-04-2020 18:53:17 14.2 C 65 %
835 30-04-2020 19:03:18 14.1 C 65 %
836 30-04-2020 19:13:18 14.2 C 65 %
837 30-04-2020 19:23:17 14.1 C 65 %
838 30-04-2020 19:33:18 14.2 C 65 %
839 30-04-2020 19:43:18 14.2 C 65 %
840 30-04-2020 19:53:17 14.2 C 65 %
841 30-04-2020 20:03:17 14.2 C 65 %
842 30-04-2020 20:13:17 14.2 C 65 %
843 30-04-2020 20:23:17 14.2 C 65 %
844 30-04-2020 20:33:18 14.1 C 65 %
845 30-04-2020 20:43:18 14.2 C 65 %
846 30-04-2020 20:53:17 14.1 C 65 %
847 30-04-2020 21:03:17 14.2 C 65 %
848 30-04-2020 21:13:17 14.1 C 65 %
849 30-04-2020 21:23:17 14.1 C 65 %
850 30-04-2020 21:33:17 14.1 C 65 %
Sensor: Nr:Datum:Temp:Feuchte:
G-T/H 851 30-04-2020 21:43:18 14.1 C 65 %
852 30-04-2020 21:53:17 14.1 C 65 %
853 30-04-2020 22:03:18 14.1 C 65 %
854 30-04-2020 22:13:18 14.1 C 65 %
855 30-04-2020 22:23:18 14.1 C 65 %
856 30-04-2020 22:33:17 14.1 C 65 %
857 30-04-2020 22:43:17 14.1 C 65 %
858 30-04-2020 22:53:18 14.1 C 65 %
859 30-04-2020 23:03:17 14.1 C 65 %
860 30-04-2020 23:13:17 14.1 C 65 %
861 30-04-2020 23:23:17 14 C 65 %
862 30-04-2020 23:33:17 14 C 65 %
863 30-04-2020 23:43:17 14 C 65 %
864 30-04-2020 23:53:17 14 C 65 %
865 01-05-2020 00:03:17 14 C 65 %
866 01-05-2020 00:13:17 14 C 65 %
867 01-05-2020 00:23:17 14 C 65 %
868 01-05-2020 00:33:18 14 C 65 %
869 01-05-2020 00:43:18 14 C 65 %
870 01-05-2020 00:53:17 14 C 65 %
871 01-05-2020 01:03:17 14 C 65 %
872 01-05-2020 01:13:18 13.9 C 65 %
873 01-05-2020 01:23:18 13.9 C 65 %
874 01-05-2020 01:33:18 13.9 C 65 %
875 01-05-2020 01:43:18 13.9 C 65 %
Sensor: Nr:Datum:Temp:Feuchte:
G-T/H 876 01-05-2020 01:53:17 13.9 C 65 %
877 01-05-2020 02:03:17 13.9 C 65 %
878 01-05-2020 02:13:18 13.8 C 65 %
879 01-05-2020 02:23:17 13.8 C 65 %
880 01-05-2020 02:33:17 13.8 C 65 %
881 01-05-2020 02:43:17 13.8 C 65 %
882 01-05-2020 02:53:17 13.8 C 65 %
883 01-05-2020 03:03:17 13.8 C 65 %
884 01-05-2020 03:13:18 13.7 C 65 %
885 01-05-2020 03:23:17 13.8 C 65 %
886 01-05-2020 03:33:17 13.7 C 65 %
887 01-05-2020 03:43:17 13.7 C 65 %
888 01-05-2020 03:53:18 13.7 C 64 %
889 01-05-2020 04:03:17 13.7 C 64 %
890 01-05-2020 04:13:17 13.7 C 64 %
891 01-05-2020 04:23:17 13.6 C 64 %
892 01-05-2020 04:33:17 13.7 C 64 %
893 01-05-2020 04:43:17 13.7 C 64 %
894 01-05-2020 04:53:17 13.6 C 64 %
895 01-05-2020 05:03:18 13.6 C 64 %
896 01-05-2020 05:13:18 13.6 C 64 %
897 01-05-2020 05:23:17 13.5 C 64 %
898 01-05-2020 05:33:18 13.5 C 64 %
899 01-05-2020 05:43:18 13.5 C 64 %
900 01-05-2020 05:53:17 13.5 C 64 %
Sensor: Nr:Datum:Temp:Feuchte:
G-T/H 901 01-05-2020 06:03:17 13.5 C 64 %
902 01-05-2020 06:13:17 13.5 C 64 %
903 01-05-2020 06:23:17 13.5 C 64 %
904 01-05-2020 06:33:17 13.5 C 64 %
905 01-05-2020 06:43:17 13.4 C 64 %
906 01-05-2020 06:53:17 13.4 C 64 %
907 01-05-2020 07:03:17 13.4 C 64 %
908 01-05-2020 07:13:17 13.4 C 64 %
909 01-05-2020 07:23:17 13.4 C 64 %
910 01-05-2020 07:33:18 13.4 C 64 %
911 01-05-2020 07:43:18 13.3 C 64 %
912 01-05-2020 07:53:17 13.3 C 64 %
913 01-05-2020 08:03:18 13.3 C 64 %
914 01-05-2020 08:13:18 13.3 C 64 %
915 01-05-2020 08:23:18 13.3 C 64 %
916 01-05-2020 08:33:18 13.3 C 64 %
917 01-05-2020 08:43:18 13.2 C 64 %
918 01-05-2020 08:53:17 13.2 C 64 %
919 01-05-2020 09:03:17 13.2 C 64 %
920 01-05-2020 09:13:17 13.2 C 64 %
921 01-05-2020 09:23:17 13.2 C 64 %
922 01-05-2020 09:33:17 13.2 C 65 %
923 01-05-2020 09:43:18 13.2 C 65 %
924 01-05-2020 09:53:18 13.2 C 65 %
925 01-05-2020 10:03:18 13.2 C 65 %
Sensor: Nr:Datum:Temp:Feuchte:
G-T/H 926 01-05-2020 10:13:18 13.1 C 65 %
927 01-05-2020 10:23:17 13.2 C 65 %
928 01-05-2020 10:33:17 13.2 C 65 %
929 01-05-2020 10:43:17 13.2 C 65 %
930 01-05-2020 10:53:17 13.2 C 65 %
931 01-05-2020 11:03:17 13.2 C 65 %
932 01-05-2020 11:13:18 13.1 C 65 %
933 01-05-2020 11:23:17 13.2 C 65 %
934 01-05-2020 11:33:18 13.1 C 65 %
935 01-05-2020 11:43:18 13.2 C 65 %
936 01-05-2020 11:53:17 13.2 C 65 %
937 01-05-2020 12:03:17 13.2 C 65 %
938 01-05-2020 12:13:17 13.2 C 65 %
939 01-05-2020 12:23:17 13.1 C 65 %
940 01-05-2020 12:33:17 13.2 C 65 %
941 01-05-2020 12:43:17 13.2 C 65 %
942 01-05-2020 12:53:17 13.2 C 65 %
943 01-05-2020 13:03:18 13.1 C 65 %
944 01-05-2020 13:13:18 13.2 C 65 %
945 01-05-2020 13:23:17 13.2 C 65 %
946 01-05-2020 13:33:17 13.2 C 65 %
947 01-05-2020 13:43:17 13.2 C 65 %
948 01-05-2020 13:53:17 13.2 C 65 %
949 01-05-2020 14:03:17 13.2 C 65 %
950 01-05-2020 14:13:17 13.2 C 65 %
Sensor: Nr:Datum:Temp:Feuchte:
G-T/H 951 01-05-2020 14:23:18 13.2 C 65 %
952 01-05-2020 14:33:18 13.3 C 65 %
953 01-05-2020 14:43:18 13.2 C 66 %
954 01-05-2020 14:53:17 13.3 C 66 %
955 01-05-2020 15:03:17 13.2 C 66 %
956 01-05-2020 15:13:17 13.2 C 66 %
957 01-05-2020 15:23:17 13.3 C 66 %
958 01-05-2020 15:33:17 13.3 C 66 %
959 01-05-2020 15:43:17 13.3 C 66 %
960 01-05-2020 15:53:17 13.3 C 66 %
961 01-05-2020 16:03:18 13.3 C 66 %
962 01-05-2020 16:13:18 13.3 C 66 %
963 01-05-2020 16:23:17 13.3 C 66 %
964 01-05-2020 16:33:18 13.3 C 66 %
965 01-05-2020 16:43:18 13.3 C 66 %
966 01-05-2020 16:53:17 13.4 C 66 %
967 01-05-2020 17:03:18 13.4 C 66 %
968 01-05-2020 17:13:18 13.4 C 66 %
969 01-05-2020 17:23:17 13.4 C 66 %
970 01-05-2020 17:33:17 13.4 C 66 %
971 01-05-2020 17:43:17 13.4 C 66 %
972 01-05-2020 17:53:17 13.4 C 66 %
973 01-05-2020 18:03:18 13.4 C 66 %
974 01-05-2020 18:13:18 13.4 C 66 %
975 01-05-2020 18:23:17 13.4 C 66 %
Sensor: Nr:Datum:Temp:Feuchte:
G-T/H 976 01-05-2020 18:33:18 13.4 C 66 %
977 01-05-2020 18:43:18 13.4 C 66 %
978 01-05-2020 18:53:17 13.4 C 67 %
979 01-05-2020 19:03:18 13.4 C 67 %
980 01-05-2020 19:13:18 13.4 C 67 %
981 01-05-2020 19:23:18 13.4 C 67 %
982 01-05-2020 19:33:17 13.4 C 66 %
983 01-05-2020 19:43:17 13.4 C 66 %
984 01-05-2020 19:53:17 13.4 C 66 %
985 01-05-2020 20:03:17 13.4 C 66 %
986 01-05-2020 20:13:17 13.4 C 66 %
987 01-05-2020 20:23:17 13.4 C 66 %
988 01-05-2020 20:33:17 13.4 C 66 %
989 01-05-2020 20:43:17 13.4 C 66 %
990 01-05-2020 20:53:17 13.4 C 66 %
991 01-05-2020 21:03:18 13.4 C 66 %
992 01-05-2020 21:13:18 13.4 C 66 %
993 01-05-2020 21:23:17 13.4 C 66 %
994 01-05-2020 21:33:17 13.4 C 66 %
995 01-05-2020 21:43:17 13.4 C 66 %
996 01-05-2020 21:53:17 13.4 C 66 %
997 01-05-2020 22:03:18 13.4 C 66 %
998 01-05-2020 22:13:18 13.4 C 66 %
999 01-05-2020 22:23:17 13.4 C 65 %
1000 01-05-2020 22:33:17 13.4 C 65 %
Sensor: Nr:Datum:Temp:Feuchte:
G-T/H 1001 01-05-2020 22:43:17 13.3 C 65 %
1002 01-05-2020 22:53:18 13.3 C 65 %
1003 01-05-2020 23:03:17 13.3 C 65 %
1004 01-05-2020 23:13:17 13.3 C 65 %
1005 01-05-2020 23:23:17 13.3 C 65 %
1006 01-05-2020 23:33:17 13.3 C 65 %
1007 01-05-2020 23:43:17 13.3 C 65 %
1008 01-05-2020 23:53:17 13.3 C 65 %
1009 02-05-2020 00:03:17 13.3 C 65 %
1010 02-05-2020 00:13:17 13.3 C 65 %
1011 02-05-2020 00:23:17 13.3 C 65 %
1012 02-05-2020 00:33:18 13.3 C 65 %
1013 02-05-2020 00:43:18 13.3 C 65 %
1014 02-05-2020 00:53:17 13.3 C 65 %
1015 02-05-2020 01:03:18 13.2 C 65 %
1016 02-05-2020 01:13:18 13.2 C 65 %
1017 02-05-2020 01:23:17 13.3 C 65 %
1018 02-05-2020 01:33:17 13.2 C 65 %
1019 02-05-2020 01:43:18 13.2 C 65 %
1020 02-05-2020 01:53:17 13.2 C 65 %
1021 02-05-2020 02:03:18 13.2 C 65 %
1022 02-05-2020 02:13:18 13.2 C 65 %
1023 02-05-2020 02:23:17 13.2 C 65 %
1024 02-05-2020 02:33:18 13.2 C 65 %
1025 02-05-2020 02:43:18 13.2 C 65 %
Sensor: Nr:Datum:Temp:Feuchte:
G-T/H 1026 02-05-2020 02:53:17 13.1 C 65 %
1027 02-05-2020 03:03:18 13.2 C 65 %
1028 02-05-2020 03:13:18 13.2 C 65 %
1029 02-05-2020 03:23:17 13.1 C 65 %
1030 02-05-2020 03:33:17 13.1 C 65 %
1031 02-05-2020 03:43:17 13.1 C 65 %
1032 02-05-2020 03:53:17 13.1 C 65 %
1033 02-05-2020 04:03:18 13.1 C 65 %
1034 02-05-2020 04:13:18 13.1 C 65 %
1035 02-05-2020 04:23:17 13.1 C 65 %
1036 02-05-2020 04:33:18 13.1 C 65 %
1037 02-05-2020 04:43:18 13.1 C 65 %
1038 02-05-2020 04:53:18 13 C 65 %
1039 02-05-2020 05:03:17 13 C 65 %
1040 02-05-2020 05:13:17 13 C 65 %
1041 02-05-2020 05:23:17 13 C 65 %
1042 02-05-2020 05:33:17 13 C 65 %
1043 02-05-2020 05:43:17 13 C 65 %
1044 02-05-2020 05:53:17 13 C 65 %
1045 02-05-2020 06:03:17 13 C 65 %
1046 02-05-2020 06:13:17 12.9 C 66 %
1047 02-05-2020 06:23:17 12.9 C 66 %
1048 02-05-2020 06:33:17 12.9 C 66 %
1049 02-05-2020 06:43:17 12.9 C 66 %
1050 02-05-2020 06:53:17 12.9 C 66 %
Sensor: Nr:Datum:Temp:Feuchte:
G-T/H 1051 02-05-2020 07:03:17 12.9 C 66 %
1052 02-05-2020 07:13:17 12.9 C 66 %
1053 02-05-2020 07:23:17 12.8 C 66 %
1054 02-05-2020 07:33:17 12.8 C 66 %
1055 02-05-2020 07:43:17 12.8 C 66 %
1056 02-05-2020 07:53:17 12.8 C 66 %
1057 02-05-2020 08:03:17 12.8 C 66 %
1058 02-05-2020 08:13:17 12.8 C 66 %
1059 02-05-2020 08:23:17 12.8 C 66 %
1060 02-05-2020 08:33:17 12.8 C 66 %
1061 02-05-2020 08:43:17 12.8 C 66 %
1062 02-05-2020 08:53:17 12.8 C 66 %
1063 02-05-2020 09:03:17 12.8 C 66 %
1064 02-05-2020 09:13:17 12.8 C 66 %
1065 02-05-2020 09:23:17 12.8 C 66 %
1066 02-05-2020 09:33:17 12.8 C 66 %
1067 02-05-2020 09:43:17 12.8 C 66 %
1068 02-05-2020 09:53:17 12.8 C 66 %
1069 02-05-2020 10:03:18 12.8 C 66 %
1070 02-05-2020 10:13:18 12.8 C 66 %
1071 02-05-2020 10:23:17 12.7 C 66 %
1072 02-05-2020 10:33:17 12.7 C 66 %
1073 02-05-2020 10:43:17 12.7 C 66 %
1074 02-05-2020 10:53:17 12.7 C 66 %
1075 02-05-2020 11:03:17 12.7 C 66 %
Sensor: Nr:Datum:Temp:Feuchte:
G-T/H 1076 02-05-2020 11:13:17 12.7 C 66 %
1077 02-05-2020 11:23:17 12.7 C 66 %
1078 02-05-2020 11:33:17 12.7 C 66 %
1079 02-05-2020 11:43:17 12.7 C 66 %
1080 02-05-2020 11:53:17 12.7 C 66 %
1081 02-05-2020 12:03:17 12.7 C 66 %
1082 02-05-2020 12:13:17 12.8 C 66 %
1083 02-05-2020 12:23:17 12.8 C 66 %
1084 02-05-2020 12:33:18 12.8 C 66 %
1085 02-05-2020 12:43:18 12.7 C 66 %
1086 02-05-2020 12:53:17 12.8 C 66 %
1087 02-05-2020 13:03:17 12.7 C 66 %
1088 02-05-2020 13:13:17 12.7 C 66 %
1089 02-05-2020 13:23:17 12.7 C 66 %
1090 02-05-2020 13:33:17 12.7 C 66 %
1091 02-05-2020 13:43:17 12.7 C 66 %
1092 02-05-2020 13:53:17 12.7 C 66 %
1093 02-05-2020 14:03:17 12.8 C 66 %
1094 02-05-2020 14:13:17 12.7 C 66 %
1095 02-05-2020 14:23:18 12.7 C 66 %
1096 02-05-2020 14:33:17 12.8 C 66 %
1097 02-05-2020 14:43:18 12.8 C 66 %
1098 02-05-2020 14:53:17 12.7 C 66 %
1099 02-05-2020 15:03:17 12.7 C 66 %
1100 02-05-2020 15:13:17 12.8 C 66 %
Sensor: Nr:Datum:Temp:Feuchte:
G-T/H 1101 02-05-2020 15:23:17 12.7 C 66 %
1102 02-05-2020 15:33:18 12.7 C 66 %
1103 02-05-2020 15:43:18 12.8 C 66 %
1104 02-05-2020 15:53:17 12.8 C 66 %
1105 02-05-2020 16:03:17 12.8 C 66 %
1106 02-05-2020 16:13:17 12.8 C 66 %
1107 02-05-2020 16:23:17 12.8 C 67 %
1108 02-05-2020 16:33:17 12.8 C 67 %
1109 02-05-2020 16:43:17 12.8 C 67 %
1110 02-05-2020 16:53:17 12.8 C 67 %
1111 02-05-2020 17:03:17 12.9 C 67 %
1112 02-05-2020 17:13:17 12.8 C 67 %
1113 02-05-2020 17:23:18 12.9 C 67 %
1114 02-05-2020 17:33:18 12.9 C 67 %
1115 02-05-2020 17:43:18 12.9 C 67 %
1116 02-05-2020 17:53:17 12.9 C 67 %
1117 02-05-2020 18:03:17 12.9 C 67 %
1118 02-05-2020 18:13:17 12.9 C 67 %
1119 02-05-2020 18:23:17 13 C 66 %
1120 02-05-2020 18:33:17 13 C 66 %
1121 02-05-2020 18:43:17 12.9 C 67 %
1122 02-05-2020 18:53:17 12.9 C 67 %
1123 02-05-2020 19:03:17 12.9 C 66 %
1124 02-05-2020 19:13:17 12.9 C 66 %
1125 02-05-2020 19:23:17 12.9 C 66 %
Sensor: Nr:Datum:Temp:Feuchte:
G-T/H 1126 02-05-2020 19:33:17 12.9 C 66 %
1127 02-05-2020 19:43:18 12.9 C 66 %
1128 02-05-2020 19:53:17 12.9 C 66 %
1129 02-05-2020 20:03:17 13 C 66 %
1130 02-05-2020 20:13:17 13 C 66 %
1131 02-05-2020 20:23:17 13 C 66 %
1132 02-05-2020 20:33:17 13 C 66 %
1133 02-05-2020 20:43:17 13 C 66 %
1134 02-05-2020 20:53:17 13 C 66 %
1135 02-05-2020 21:03:17 13 C 66 %
1136 02-05-2020 21:13:17 12.9 C 67 %
1137 02-05-2020 21:23:17 12.9 C 67 %
1138 02-05-2020 21:33:17 12.9 C 66 %
1139 02-05-2020 21:43:17 12.9 C 66 %
1140 02-05-2020 21:53:18 12.9 C 66 %
1141 02-05-2020 22:03:17 12.9 C 66 %
1142 02-05-2020 22:13:17 12.9 C 66 %
1143 02-05-2020 22:23:17 12.9 C 66 %
1144 02-05-2020 22:33:17 12.9 C 66 %
1145 02-05-2020 22:43:17 12.9 C 66 %
1146 02-05-2020 22:53:18 12.9 C 66 %
1147 02-05-2020 23:03:17 12.9 C 66 %
1148 02-05-2020 23:13:17 12.9 C 66 %
1149 02-05-2020 23:23:17 12.8 C 66 %
1150 02-05-2020 23:33:17 12.8 C 66 %
Sensor: Nr:Datum:Temp:Feuchte:
G-T/H 1151 02-05-2020 23:43:17 12.8 C 66 %
1152 02-05-2020 23:53:17 12.8 C 66 %
1153 03-05-2020 00:03:17 12.8 C 66 %
1154 03-05-2020 00:13:17 12.8 C 66 %
1155 03-05-2020 00:23:17 12.8 C 66 %
1156 03-05-2020 00:33:17 12.8 C 66 %
1157 03-05-2020 00:43:17 12.8 C 66 %
1158 03-05-2020 00:53:17 12.7 C 66 %
1159 03-05-2020 01:03:18 12.7 C 66 %
1160 03-05-2020 01:13:18 12.7 C 66 %
1161 03-05-2020 01:23:17 12.7 C 66 %
1162 03-05-2020 01:33:18 12.7 C 66 %
1163 03-05-2020 01:43:18 12.7 C 66 %
1164 03-05-2020 01:53:18 12.7 C 66 %
1165 03-05-2020 02:03:18 12.6 C 66 %
1166 03-05-2020 02:13:18 12.6 C 66 %
1167 03-05-2020 02:23:17 12.6 C 66 %
1168 03-05-2020 02:33:18 12.6 C 66 %
1169 03-05-2020 02:43:18 12.6 C 66 %
1170 03-05-2020 02:53:17 12.6 C 66 %
1171 03-05-2020 03:03:17 12.6 C 66 %
1172 03-05-2020 03:13:17 12.5 C 66 %
1173 03-05-2020 03:23:17 12.5 C 66 %
1174 03-05-2020 03:33:18 12.5 C 66 %
1175 03-05-2020 03:43:18 12.5 C 66 %
Sensor: Nr:Datum:Temp:Feuchte:
G-T/H 1176 03-05-2020 03:53:17 12.5 C 66 %
1177 03-05-2020 04:03:18 12.4 C 66 %
1178 03-05-2020 04:13:18 12.4 C 66 %
1179 03-05-2020 04:23:18 12.4 C 66 %
1180 03-05-2020 04:33:17 12.4 C 65 %
1181 03-05-2020 04:43:17 12.3 C 65 %
1182 03-05-2020 04:53:17 12.3 C 65 %
1183 03-05-2020 05:03:17 12.3 C 65 %
1184 03-05-2020 05:13:17 12.3 C 65 %
1185 03-05-2020 05:23:17 12.2 C 64 %
1186 03-05-2020 05:33:17 12.2 C 64 %
1187 03-05-2020 05:43:17 12.2 C 64 %
1188 03-05-2020 05:53:17 12.2 C 64 %
1189 03-05-2020 06:03:17 12.1 C 64 %
1190 03-05-2020 06:13:17 12.1 C 64 %
1191 03-05-2020 06:23:17 12.1 C 64 %
1192 03-05-2020 06:33:18 12.1 C 64 %
1193 03-05-2020 06:43:18 12 C 64 %
1194 03-05-2020 06:53:17 12 C 64 %
1195 03-05-2020 07:03:17 12 C 64 %
1196 03-05-2020 07:13:17 12 C 64 %
1197 03-05-2020 07:23:18 12 C 64 %
1198 03-05-2020 07:33:18 12 C 64 %
1199 03-05-2020 07:43:18 12 C 64 %
1200 03-05-2020 07:53:18 12 C 64 %
Sensor: Nr:Datum:Temp:Feuchte:
G-T/H 1201 03-05-2020 08:03:18 12 C 64 %
1202 03-05-2020 08:13:18 12 C 64 %
1203 03-05-2020 08:23:18 11.9 C 65 %
1204 03-05-2020 08:33:17 11.9 C 65 %
1205 03-05-2020 08:43:17 11.9 C 65 %
1206 03-05-2020 08:53:17 11.9 C 65 %
1207 03-05-2020 09:03:17 12 C 65 %
1208 03-05-2020 09:13:17 11.9 C 65 %
1209 03-05-2020 09:23:17 11.9 C 65 %
1210 03-05-2020 09:33:18 11.9 C 66 %
1211 03-05-2020 09:43:18 11.9 C 66 %
1212 03-05-2020 09:53:17 11.9 C 66 %
1213 03-05-2020 10:03:17 11.9 C 66 %
1214 03-05-2020 10:13:17 11.9 C 66 %
1215 03-05-2020 10:23:18 11.9 C 66 %
1216 03-05-2020 10:33:17 11.9 C 66 %
1217 03-05-2020 10:43:17 12 C 65 %
1218 03-05-2020 10:53:17 11.9 C 66 %
1219 03-05-2020 11:03:17 11.9 C 66 %
1220 03-05-2020 11:13:17 11.9 C 66 %
1221 03-05-2020 11:23:17 11.9 C 66 %
1222 03-05-2020 11:33:17 11.9 C 66 %
1223 03-05-2020 11:43:18 12 C 66 %
1224 03-05-2020 11:53:18 12 C 66 %
1225 03-05-2020 12:03:18 12 C 66 %
Sensor: Nr:Datum:Temp:Feuchte:
G-T/H 1226 03-05-2020 12:13:18 12 C 66 %
1227 03-05-2020 12:23:17 12 C 66 %
1228 03-05-2020 12:33:18 12 C 66 %
1229 03-05-2020 12:43:18 12 C 66 %
1230 03-05-2020 12:53:17 12.1 C 66 %
1231 03-05-2020 13:03:18 12.1 C 66 %
1232 03-05-2020 13:13:18 12.1 C 66 %
1233 03-05-2020 13:23:17 12.1 C 66 %
1234 03-05-2020 13:33:18 12.1 C 66 %
1235 03-05-2020 13:43:18 12.1 C 66 %
1236 03-05-2020 13:53:18 12.2 C 66 %
1237 03-05-2020 14:03:18 12.2 C 66 %
1238 03-05-2020 14:13:18 12.2 C 66 %
1239 03-05-2020 14:23:17 12.3 C 66 %
1240 03-05-2020 14:33:18 12.3 C 66 %
1241 03-05-2020 14:43:18 12.3 C 66 %
1242 03-05-2020 14:53:17 12.4 C 66 %
1243 03-05-2020 15:03:17 12.4 C 66 %
1244 03-05-2020 15:13:17 12.4 C 66 %
1245 03-05-2020 15:23:17 12.4 C 66 %
1246 03-05-2020 15:33:18 12.5 C 66 %
1247 03-05-2020 15:43:18 12.5 C 66 %
1248 03-05-2020 15:53:17 12.5 C 66 %
1249 03-05-2020 16:03:17 12.6 C 66 %
1250 03-05-2020 16:13:17 12.6 C 66 %
Sensor: Nr:Datum:Temp:Feuchte:
G-T/H 1251 03-05-2020 16:23:17 12.6 C 66 %
1252 03-05-2020 16:33:18 12.6 C 66 %
1253 03-05-2020 16:43:18 12.7 C 66 %
1254 03-05-2020 16:53:17 12.7 C 66 %
1255 03-05-2020 17:03:17 12.7 C 66 %
1256 03-05-2020 17:13:17 12.7 C 66 %
1257 03-05-2020 17:23:18 12.8 C 66 %
1258 03-05-2020 17:33:17 12.8 C 66 %
1259 03-05-2020 17:43:17 12.8 C 66 %
1260 03-05-2020 17:53:18 12.8 C 66 %
1261 03-05-2020 18:03:18 12.8 C 66 %
1262 03-05-2020 18:13:18 12.9 C 66 %
1263 03-05-2020 18:23:17 12.9 C 66 %
1264 03-05-2020 18:33:17 12.9 C 66 %
1265 03-05-2020 18:43:17 13 C 65 %
1266 03-05-2020 18:53:17 13 C 65 %
1267 03-05-2020 19:03:17 13 C 65 %
1268 03-05-2020 19:13:17 13 C 66 %
1269 03-05-2020 19:23:17 13 C 66 %
1270 03-05-2020 19:33:18 13.1 C 66 %
1271 03-05-2020 19:43:18 13.1 C 66 %
1272 03-05-2020 19:53:17 13.1 C 66 %
1273 03-05-2020 20:03:17 13.1 C 66 %
1274 03-05-2020 20:13:17 13.1 C 66 %
1275 03-05-2020 20:23:17 13.1 C 66 %
Sensor: Nr:Datum:Temp:Feuchte:
G-T/H 1276 03-05-2020 20:33:18 13.1 C 66 %
1277 03-05-2020 20:43:18 13.1 C 66 %
1278 03-05-2020 20:53:17 13.2 C 66 %
1279 03-05-2020 21:03:17 13.2 C 66 %
1280 03-05-2020 21:13:17 13.2 C 66 %
1281 03-05-2020 21:23:17 13.2 C 66 %
1282 03-05-2020 21:33:17 13.2 C 66 %
1283 03-05-2020 21:43:18 13.2 C 66 %
1284 03-05-2020 21:53:17 13.2 C 66 %
1285 03-05-2020 22:03:18 13.2 C 66 %
1286 03-05-2020 22:13:18 13.2 C 66 %
1287 03-05-2020 22:23:17 13.2 C 66 %
1288 03-05-2020 22:33:17 13.2 C 66 %
1289 03-05-2020 22:43:17 13.3 C 66 %
1290 03-05-2020 22:53:18 13.3 C 66 %
1291 03-05-2020 23:03:17 13.3 C 66 %
1292 03-05-2020 23:13:17 13.3 C 66 %
1293 03-05-2020 23:23:17 13.3 C 66 %
1294 03-05-2020 23:33:17 13.3 C 66 %
1295 03-05-2020 23:43:17 13.3 C 66 %
1296 03-05-2020 23:53:17 13.4 C 66 %
1297 04-05-2020 00:03:17 13.3 C 66 %
1298 04-05-2020 00:13:17 13.4 C 66 %
1299 04-05-2020 00:23:17 13.3 C 66 %
1300 04-05-2020 00:33:18 13.3 C 66 %
Sensor: Nr:Datum:Temp:Feuchte:
G-T/H 1301 04-05-2020 00:43:18 13.3 C 66 %
1302 04-05-2020 00:53:17 13.3 C 67 %
1303 04-05-2020 01:03:17 13.4 C 67 %
1304 04-05-2020 01:13:17 13.4 C 67 %
1305 04-05-2020 01:23:17 13.3 C 67 %
1306 04-05-2020 01:33:17 13.4 C 67 %
1307 04-05-2020 01:43:17 13.3 C 67 %
1308 04-05-2020 01:53:17 13.4 C 67 %
1309 04-05-2020 02:03:17 13.3 C 67 %
1310 04-05-2020 02:13:17 13.3 C 67 %
1311 04-05-2020 02:23:17 13.3 C 67 %
1312 04-05-2020 02:33:18 13.4 C 67 %
1313 04-05-2020 02:43:18 13.4 C 67 %
1314 04-05-2020 02:53:17 13.4 C 67 %
1315 04-05-2020 03:03:17 13.3 C 67 %
1316 04-05-2020 03:13:17 13.4 C 66 %
1317 04-05-2020 03:23:17 13.3 C 66 %
1318 04-05-2020 03:33:17 13.4 C 66 %
1319 04-05-2020 03:43:17 13.3 C 66 %
1320 04-05-2020 03:53:18 13.4 C 66 %
1321 04-05-2020 04:03:17 13.3 C 66 %
1322 04-05-2020 04:13:17 13.4 C 66 %
1323 04-05-2020 04:23:17 13.3 C 66 %
1324 04-05-2020 04:33:17 13.4 C 66 %
1325 04-05-2020 04:43:17 13.4 C 66 %
Sensor: Nr:Datum:Temp:Feuchte:
G-T/H 1326 04-05-2020 04:53:18 13.4 C 66 %
1327 04-05-2020 05:03:17 13.4 C 66 %
1328 04-05-2020 05:13:17 13.3 C 66 %
1329 04-05-2020 05:23:17 13.3 C 66 %
1330 04-05-2020 05:33:18 13.3 C 66 %
1331 04-05-2020 05:43:18 13.3 C 66 %
1332 04-05-2020 05:53:17 13.3 C 66 %
1333 04-05-2020 06:03:18 13.3 C 66 %
1334 04-05-2020 06:13:18 13.3 C 66 %
1335 04-05-2020 06:23:18 13.3 C 66 %
1336 04-05-2020 06:33:17 13.3 C 66 %
1337 04-05-2020 06:43:17 13.3 C 66 %
1338 04-05-2020 06:53:17 13.3 C 66 %
1339 04-05-2020 07:03:17 13.3 C 66 %
1340 04-05-2020 07:13:17 13.3 C 66 %
1341 04-05-2020 07:23:17 13.3 C 66 %
1342 04-05-2020 07:33:17 13.3 C 66 %
1343 04-05-2020 07:43:18 13.3 C 66 %
1344 04-05-2020 07:53:17 13.3 C 66 %
1345 04-05-2020 08:03:17 13.3 C 66 %
1346 04-05-2020 08:13:17 13.3 C 66 %
1347 04-05-2020 08:23:17 13.3 C 66 %
1348 04-05-2020 08:33:17 13.2 C 66 %
1349 04-05-2020 08:43:18 13.2 C 66 %
1350 04-05-2020 08:53:17 13.2 C 66 %
Sensor: Nr:Datum:Temp:Feuchte:
G-T/H 1351 04-05-2020 09:03:18 13.3 C 66 %
1352 04-05-2020 09:13:18 13.3 C 66 %
1353 04-05-2020 09:23:18 13.3 C 66 %
1354 04-05-2020 09:33:17 13.3 C 67 %
1355 04-05-2020 09:43:17 13.3 C 67 %
1356 04-05-2020 09:53:17 13.2 C 67 %
1357 04-05-2020 10:03:18 13.3 C 67 %
1358 04-05-2020 10:13:18 13.3 C 67 %
1359 04-05-2020 10:23:17 13.3 C 67 %
1360 04-05-2020 10:33:18 13.3 C 67 %
1361 04-05-2020 10:43:18 13.3 C 67 %
1362 04-05-2020 10:53:17 13.3 C 67 %
1363 04-05-2020 11:03:17 13.3 C 67 %
1364 04-05-2020 11:13:17 13.3 C 67 %
1365 04-05-2020 11:23:17 13.3 C 67 %
1366 04-05-2020 11:33:18 13.3 C 67 %
1367 04-05-2020 11:43:18 13.3 C 67 %
1368 04-05-2020 11:53:17 13.3 C 67 %
1369 04-05-2020 12:03:17 13.3 C 67 %
1370 04-05-2020 12:13:17 13.3 C 67 %
1371 04-05-2020 12:23:17 13.3 C 67 %
1372 04-05-2020 12:33:17 13.3 C 67 %
1373 04-05-2020 12:43:17 13.3 C 67 %
1374 04-05-2020 12:53:17 13.3 C 67 %
1375 04-05-2020 13:03:18 13.3 C 67 %
Sensor: Nr:Datum:Temp:Feuchte:
G-T/H 1376 04-05-2020 13:13:18 13.3 C 67 %
1377 04-05-2020 13:23:17 13.3 C 67 %
1378 04-05-2020 13:33:17 13.3 C 67 %
1379 04-05-2020 13:43:17 13.3 C 67 %
1380 04-05-2020 13:53:17 13.3 C 67 %
1381 04-05-2020 14:03:17 13.3 C 67 %
1382 04-05-2020 14:13:17 13.3 C 67 %
1383 04-05-2020 14:23:17 13.3 C 67 %
1384 04-05-2020 14:33:17 13.3 C 67 %
1385 04-05-2020 14:43:17 13.3 C 67 %
1386 04-05-2020 14:53:17 13.3 C 67 %
1387 04-05-2020 15:03:17 13.3 C 67 %
1388 04-05-2020 15:13:17 13.3 C 67 %
1389 04-05-2020 15:23:17 13.3 C 67 %
1390 04-05-2020 15:33:17 13.3 C 67 %
1391 04-05-2020 15:43:17 13.3 C 67 %
1392 04-05-2020 15:53:17 13.3 C 67 %
1393 04-05-2020 16:03:18 13.3 C 67 %
1394 04-05-2020 16:13:18 13.3 C 67 %
1395 04-05-2020 16:23:17 13.3 C 67 %
1396 04-05-2020 16:33:17 13.3 C 67 %
1397 04-05-2020 16:43:17 13.3 C 67 %
1398 04-05-2020 16:53:18 13.3 C 67 %
1399 04-05-2020 17:03:18 13.3 C 67 %
1400 04-05-2020 17:13:18 13.3 C 67 %
Sensor: Nr:Datum:Temp:Feuchte:
G-T/H 1401 04-05-2020 17:23:17 13.3 C 67 %
1402 04-05-2020 17:33:18 13.3 C 67 %
1403 04-05-2020 17:43:18 13.3 C 67 %
1404 04-05-2020 17:53:17 13.3 C 67 %
1405 04-05-2020 18:03:17 13.3 C 67 %
1406 04-05-2020 18:13:17 13.3 C 67 %
1407 04-05-2020 18:23:17 13.3 C 67 %
1408 04-05-2020 18:33:17 13.3 C 67 %
1409 04-05-2020 18:43:17 13.3 C 67 %
1410 04-05-2020 18:53:17 13.3 C 67 %
1411 04-05-2020 19:03:17 13.3 C 67 %
1412 04-05-2020 19:13:17 13.3 C 67 %
1413 04-05-2020 19:23:17 13.3 C 67 %
1414 04-05-2020 19:33:17 13.3 C 67 %
1415 04-05-2020 19:43:17 13.3 C 67 %
1416 04-05-2020 19:53:17 13.3 C 67 %
1417 04-05-2020 20:03:18 13.3 C 67 %
1418 04-05-2020 20:13:18 13.3 C 67 %
1419 04-05-2020 20:23:17 13.3 C 67 %
1420 04-05-2020 20:33:17 13.3 C 67 %
1421 04-05-2020 20:43:18 13.3 C 67 %

Legende:
   Min
   Max


Maximal/Minimal-Werte vom 07.04.2020 - 09.05.2020

Sensor Min Max Avg
Temp
(Aussen-T/F)
-0.9 °C
14-04-2020  06:22:17
33.2 °C
12-04-2020  16:11:17
13.01 °C
Feuchte
(Aussen-T/F)
20 %
07-04-2020  12:41:17
48 %
03-05-2020  05:03:17
30.08 %
Temp
(G-T/H)
6.8 °C
16-04-2020  07:22:17
18.8 °C
17-04-2020  19:12:17
13.34 °C
Feuchte
(G-T/H)
35 %
24-04-2020  17:42:18
68 %
07-04-2020  11:01:17
60.03 %

Die Daten stammen von einer Davis Vantage Pro 2 Wetter-Station und werden unter Linux mit der Software wview2wettercgi und aufbereitet. Alle Angaben erfolgen ohne Gewähr für ihre Vollständigkeit oder Richtigkeit.
Kontakt: Rainer Krienke krienke@uni-koblenz.de . Meine Webseiten an der Uni Koblenz oder privat.
Version: $Revision: 0.78 $